<?xml version="1.0" encoding="UTF-8" standalone="no" ?>
<gpx xmlns="http://www.topografix.com/GPX/1/1" xmlns:xsi="http://www.w3.org/2001/XMLSchema-instance" xsi:schemaLocation="http://www.topografix.com/GPX/1/1 http://www.topografix.com/GPX/1/1/gpx.xsd" version="1.1" creator="VisuGPX - https://www.visugpx.com">
  <metadata>
    <name>de montceau au claves; allan</name>
    <desc><![CDATA[montceau puis les claves d\'Allan par Jamot et descente sur Espluche]]></desc>
  </metadata>
  <trk>
    <name><![CDATA[30-OCT-14 16-34-44-MNT]]></name>
    <trkseg>
      <trkpt lat="44.49934" lon="4.78641">
        <ele>147</ele>
        <time>2014-10-30T12:18:30Z</time>
      </trkpt>
      <trkpt lat="44.49938" lon="4.78642">
        <ele>147</ele>
        <time>2014-10-30T12:18:31Z</time>
      </trkpt>
      <trkpt lat="44.5" lon="4.78665">
        <ele>148</ele>
        <time>2014-10-30T12:18:46Z</time>
      </trkpt>
      <trkpt lat="44.50069" lon="4.78692">
        <ele>150</ele>
        <time>2014-10-30T12:19:03Z</time>
      </trkpt>
      <trkpt lat="44.50151" lon="4.78723">
        <ele>152</ele>
        <time>2014-10-30T12:19:23Z</time>
      </trkpt>
      <trkpt lat="44.50205" lon="4.78742">
        <ele>154</ele>
        <time>2014-10-30T12:19:37Z</time>
      </trkpt>
      <trkpt lat="44.5027" lon="4.78767">
        <ele>157</ele>
        <time>2014-10-30T12:19:54Z</time>
      </trkpt>
      <trkpt lat="44.50331" lon="4.7879">
        <ele>158</ele>
        <time>2014-10-30T12:20:10Z</time>
      </trkpt>
      <trkpt lat="44.50355" lon="4.78805">
        <ele>158</ele>
        <time>2014-10-30T12:20:16Z</time>
      </trkpt>
      <trkpt lat="44.50358" lon="4.78808">
        <ele>158</ele>
        <time>2014-10-30T12:20:17Z</time>
      </trkpt>
      <trkpt lat="44.50375" lon="4.78828">
        <ele>158</ele>
        <time>2014-10-30T12:20:22Z</time>
      </trkpt>
      <trkpt lat="44.50378" lon="4.78833">
        <ele>159</ele>
        <time>2014-10-30T12:20:23Z</time>
      </trkpt>
      <trkpt lat="44.50385" lon="4.78848">
        <ele>159</ele>
        <time>2014-10-30T12:20:26Z</time>
      </trkpt>
      <trkpt lat="44.50414" lon="4.78927">
        <ele>160</ele>
        <time>2014-10-30T12:20:41Z</time>
      </trkpt>
      <trkpt lat="44.50438" lon="4.79013">
        <ele>162</ele>
        <time>2014-10-30T12:20:57Z</time>
      </trkpt>
      <trkpt lat="44.5044" lon="4.79018">
        <ele>162</ele>
        <time>2014-10-30T12:20:58Z</time>
      </trkpt>
      <trkpt lat="44.50443" lon="4.79023">
        <ele>162</ele>
        <time>2014-10-30T12:20:59Z</time>
      </trkpt>
      <trkpt lat="44.50446" lon="4.79028">
        <ele>162</ele>
        <time>2014-10-30T12:21:00Z</time>
      </trkpt>
      <trkpt lat="44.50449" lon="4.79032">
        <ele>162</ele>
        <time>2014-10-30T12:21:01Z</time>
      </trkpt>
      <trkpt lat="44.50453" lon="4.79034">
        <ele>162</ele>
        <time>2014-10-30T12:21:02Z</time>
      </trkpt>
      <trkpt lat="44.50458" lon="4.79036">
        <ele>162</ele>
        <time>2014-10-30T12:21:03Z</time>
      </trkpt>
      <trkpt lat="44.50462" lon="4.79037">
        <ele>162</ele>
        <time>2014-10-30T12:21:04Z</time>
      </trkpt>
      <trkpt lat="44.50467" lon="4.79037">
        <ele>162</ele>
        <time>2014-10-30T12:21:05Z</time>
      </trkpt>
      <trkpt lat="44.50472" lon="4.79038">
        <ele>162</ele>
        <time>2014-10-30T12:21:06Z</time>
      </trkpt>
      <trkpt lat="44.50476" lon="4.7904">
        <ele>162</ele>
        <time>2014-10-30T12:21:07Z</time>
      </trkpt>
      <trkpt lat="44.5048" lon="4.79042">
        <ele>162</ele>
        <time>2014-10-30T12:21:08Z</time>
      </trkpt>
      <trkpt lat="44.50484" lon="4.79045">
        <ele>162</ele>
        <time>2014-10-30T12:21:09Z</time>
      </trkpt>
      <trkpt lat="44.50492" lon="4.79049">
        <ele>162</ele>
        <time>2014-10-30T12:21:11Z</time>
      </trkpt>
      <trkpt lat="44.50497" lon="4.79051">
        <ele>162</ele>
        <time>2014-10-30T12:21:12Z</time>
      </trkpt>
      <trkpt lat="44.50501" lon="4.79051">
        <ele>162</ele>
        <time>2014-10-30T12:21:13Z</time>
      </trkpt>
      <trkpt lat="44.50506" lon="4.79051">
        <ele>162</ele>
        <time>2014-10-30T12:21:14Z</time>
      </trkpt>
      <trkpt lat="44.50511" lon="4.79049">
        <ele>162</ele>
        <time>2014-10-30T12:21:15Z</time>
      </trkpt>
      <trkpt lat="44.50516" lon="4.79047">
        <ele>162</ele>
        <time>2014-10-30T12:21:16Z</time>
      </trkpt>
      <trkpt lat="44.50521" lon="4.79046">
        <ele>162</ele>
        <time>2014-10-30T12:21:17Z</time>
      </trkpt>
      <trkpt lat="44.50527" lon="4.79046">
        <ele>161</ele>
        <time>2014-10-30T12:21:18Z</time>
      </trkpt>
      <trkpt lat="44.50533" lon="4.79047">
        <ele>161</ele>
        <time>2014-10-30T12:21:19Z</time>
      </trkpt>
      <trkpt lat="44.50538" lon="4.7905">
        <ele>161</ele>
        <time>2014-10-30T12:21:20Z</time>
      </trkpt>
      <trkpt lat="44.50543" lon="4.79054">
        <ele>161</ele>
        <time>2014-10-30T12:21:21Z</time>
      </trkpt>
      <trkpt lat="44.50639" lon="4.79101">
        <ele>161</ele>
        <time>2014-10-30T12:21:39Z</time>
      </trkpt>
      <trkpt lat="44.50751" lon="4.79151">
        <ele>158</ele>
        <time>2014-10-30T12:21:59Z</time>
      </trkpt>
      <trkpt lat="44.50827" lon="4.7919">
        <ele>156</ele>
        <time>2014-10-30T12:22:11Z</time>
      </trkpt>
      <trkpt lat="44.50868" lon="4.79207">
        <ele>154</ele>
        <time>2014-10-30T12:22:17Z</time>
      </trkpt>
      <trkpt lat="44.50875" lon="4.79208">
        <ele>154</ele>
        <time>2014-10-30T12:22:18Z</time>
      </trkpt>
      <trkpt lat="44.50882" lon="4.79208">
        <ele>154</ele>
        <time>2014-10-30T12:22:19Z</time>
      </trkpt>
      <trkpt lat="44.50888" lon="4.79208">
        <ele>154</ele>
        <time>2014-10-30T12:22:20Z</time>
      </trkpt>
      <trkpt lat="44.50894" lon="4.79211">
        <ele>154</ele>
        <time>2014-10-30T12:22:21Z</time>
      </trkpt>
      <trkpt lat="44.50897" lon="4.79217">
        <ele>154</ele>
        <time>2014-10-30T12:22:22Z</time>
      </trkpt>
      <trkpt lat="44.50898" lon="4.79226">
        <ele>154</ele>
        <time>2014-10-30T12:22:23Z</time>
      </trkpt>
      <trkpt lat="44.50898" lon="4.79234">
        <ele>154</ele>
        <time>2014-10-30T12:22:24Z</time>
      </trkpt>
      <trkpt lat="44.50898" lon="4.79242">
        <ele>154</ele>
        <time>2014-10-30T12:22:25Z</time>
      </trkpt>
      <trkpt lat="44.50899" lon="4.7925">
        <ele>154</ele>
        <time>2014-10-30T12:22:26Z</time>
      </trkpt>
      <trkpt lat="44.509" lon="4.79258">
        <ele>154</ele>
        <time>2014-10-30T12:22:27Z</time>
      </trkpt>
      <trkpt lat="44.50901" lon="4.79265">
        <ele>154</ele>
        <time>2014-10-30T12:22:28Z</time>
      </trkpt>
      <trkpt lat="44.50905" lon="4.79292">
        <ele>154</ele>
        <time>2014-10-30T12:22:32Z</time>
      </trkpt>
      <trkpt lat="44.50905" lon="4.79298">
        <ele>154</ele>
        <time>2014-10-30T12:22:33Z</time>
      </trkpt>
      <trkpt lat="44.50904" lon="4.79305">
        <ele>154</ele>
        <time>2014-10-30T12:22:34Z</time>
      </trkpt>
      <trkpt lat="44.50903" lon="4.79311">
        <ele>154</ele>
        <time>2014-10-30T12:22:35Z</time>
      </trkpt>
      <trkpt lat="44.50901" lon="4.79318">
        <ele>154</ele>
        <time>2014-10-30T12:22:36Z</time>
      </trkpt>
      <trkpt lat="44.50899" lon="4.79324">
        <ele>154</ele>
        <time>2014-10-30T12:22:37Z</time>
      </trkpt>
      <trkpt lat="44.50886" lon="4.79362">
        <ele>154</ele>
        <time>2014-10-30T12:22:44Z</time>
      </trkpt>
      <trkpt lat="44.50884" lon="4.79367">
        <ele>154</ele>
        <time>2014-10-30T12:22:45Z</time>
      </trkpt>
      <trkpt lat="44.50882" lon="4.79372">
        <ele>154</ele>
        <time>2014-10-30T12:22:46Z</time>
      </trkpt>
      <trkpt lat="44.50872" lon="4.794">
        <ele>154</ele>
        <time>2014-10-30T12:22:51Z</time>
      </trkpt>
      <trkpt lat="44.50872" lon="4.79406">
        <ele>154</ele>
        <time>2014-10-30T12:22:52Z</time>
      </trkpt>
      <trkpt lat="44.50873" lon="4.79412">
        <ele>154</ele>
        <time>2014-10-30T12:22:53Z</time>
      </trkpt>
      <trkpt lat="44.50874" lon="4.79418">
        <ele>154</ele>
        <time>2014-10-30T12:22:54Z</time>
      </trkpt>
      <trkpt lat="44.50877" lon="4.79423">
        <ele>154</ele>
        <time>2014-10-30T12:22:55Z</time>
      </trkpt>
      <trkpt lat="44.5088" lon="4.79428">
        <ele>154</ele>
        <time>2014-10-30T12:22:56Z</time>
      </trkpt>
      <trkpt lat="44.50893" lon="4.79444">
        <ele>154</ele>
        <time>2014-10-30T12:23:00Z</time>
      </trkpt>
      <trkpt lat="44.50953" lon="4.79521">
        <ele>155</ele>
        <time>2014-10-30T12:23:18Z</time>
      </trkpt>
      <trkpt lat="44.51015" lon="4.79601">
        <ele>155</ele>
        <time>2014-10-30T12:23:36Z</time>
      </trkpt>
      <trkpt lat="44.51079" lon="4.79684">
        <ele>155</ele>
        <time>2014-10-30T12:23:55Z</time>
      </trkpt>
      <trkpt lat="44.51107" lon="4.79719">
        <ele>155</ele>
        <time>2014-10-30T12:24:03Z</time>
      </trkpt>
      <trkpt lat="44.51111" lon="4.79722">
        <ele>155</ele>
        <time>2014-10-30T12:24:04Z</time>
      </trkpt>
      <trkpt lat="44.51116" lon="4.79724">
        <ele>155</ele>
        <time>2014-10-30T12:24:05Z</time>
      </trkpt>
      <trkpt lat="44.51134" lon="4.79733">
        <ele>155</ele>
        <time>2014-10-30T12:24:09Z</time>
      </trkpt>
      <trkpt lat="44.51138" lon="4.79735">
        <ele>155</ele>
        <time>2014-10-30T12:24:10Z</time>
      </trkpt>
      <trkpt lat="44.51143" lon="4.79737">
        <ele>155</ele>
        <time>2014-10-30T12:24:11Z</time>
      </trkpt>
      <trkpt lat="44.51169" lon="4.79747">
        <ele>155</ele>
        <time>2014-10-30T12:24:17Z</time>
      </trkpt>
      <trkpt lat="44.51173" lon="4.79749">
        <ele>155</ele>
        <time>2014-10-30T12:24:18Z</time>
      </trkpt>
      <trkpt lat="44.51205" lon="4.79761">
        <ele>156</ele>
        <time>2014-10-30T12:24:26Z</time>
      </trkpt>
      <trkpt lat="44.51284" lon="4.7979">
        <ele>158</ele>
        <time>2014-10-30T12:24:46Z</time>
      </trkpt>
      <trkpt lat="44.51349" lon="4.79814">
        <ele>162</ele>
        <time>2014-10-30T12:25:03Z</time>
      </trkpt>
      <trkpt lat="44.5137" lon="4.79845">
        <ele>163</ele>
        <time>2014-10-30T12:25:13Z</time>
      </trkpt>
      <trkpt lat="44.51367" lon="4.79896">
        <ele>162</ele>
        <time>2014-10-30T12:25:21Z</time>
      </trkpt>
      <trkpt lat="44.51368" lon="4.79902">
        <ele>162</ele>
        <time>2014-10-30T12:25:22Z</time>
      </trkpt>
      <trkpt lat="44.5137" lon="4.79908">
        <ele>162</ele>
        <time>2014-10-30T12:25:23Z</time>
      </trkpt>
      <trkpt lat="44.51373" lon="4.79912">
        <ele>162</ele>
        <time>2014-10-30T12:25:24Z</time>
      </trkpt>
      <trkpt lat="44.51377" lon="4.79914">
        <ele>162</ele>
        <time>2014-10-30T12:25:25Z</time>
      </trkpt>
      <trkpt lat="44.51381" lon="4.79915">
        <ele>163</ele>
        <time>2014-10-30T12:25:26Z</time>
      </trkpt>
      <trkpt lat="44.51385" lon="4.79916">
        <ele>163</ele>
        <time>2014-10-30T12:25:27Z</time>
      </trkpt>
      <trkpt lat="44.51457" lon="4.79931">
        <ele>167</ele>
        <time>2014-10-30T12:25:45Z</time>
      </trkpt>
      <trkpt lat="44.51487" lon="4.79937">
        <ele>169</ele>
        <time>2014-10-30T12:25:54Z</time>
      </trkpt>
      <trkpt lat="44.51536" lon="4.79942">
        <ele>172</ele>
        <time>2014-10-30T12:26:09Z</time>
      </trkpt>
      <trkpt lat="44.51579" lon="4.79945">
        <ele>175</ele>
        <time>2014-10-30T12:26:22Z</time>
      </trkpt>
      <trkpt lat="44.51646" lon="4.7994">
        <ele>181</ele>
        <time>2014-10-30T12:26:41Z</time>
      </trkpt>
      <trkpt lat="44.51689" lon="4.79943">
        <ele>184</ele>
        <time>2014-10-30T12:26:55Z</time>
      </trkpt>
      <trkpt lat="44.51691" lon="4.79947">
        <ele>184</ele>
        <time>2014-10-30T12:26:56Z</time>
      </trkpt>
      <trkpt lat="44.51714" lon="4.8003">
        <ele>183</ele>
        <time>2014-10-30T12:27:13Z</time>
      </trkpt>
      <trkpt lat="44.51732" lon="4.80088">
        <ele>183</ele>
        <time>2014-10-30T12:27:23Z</time>
      </trkpt>
      <trkpt lat="44.51734" lon="4.80093">
        <ele>183</ele>
        <time>2014-10-30T12:27:24Z</time>
      </trkpt>
      <trkpt lat="44.51741" lon="4.80102">
        <ele>183</ele>
        <time>2014-10-30T12:27:26Z</time>
      </trkpt>
      <trkpt lat="44.51745" lon="4.80105">
        <ele>183</ele>
        <time>2014-10-30T12:27:27Z</time>
      </trkpt>
      <trkpt lat="44.51749" lon="4.80105">
        <ele>183</ele>
        <time>2014-10-30T12:27:28Z</time>
      </trkpt>
      <trkpt lat="44.51753" lon="4.80104">
        <ele>184</ele>
        <time>2014-10-30T12:27:29Z</time>
      </trkpt>
      <trkpt lat="44.51757" lon="4.80103">
        <ele>184</ele>
        <time>2014-10-30T12:27:30Z</time>
      </trkpt>
      <trkpt lat="44.51797" lon="4.80096">
        <ele>187</ele>
        <time>2014-10-30T12:27:40Z</time>
      </trkpt>
      <trkpt lat="44.51801" lon="4.80096">
        <ele>187</ele>
        <time>2014-10-30T12:27:41Z</time>
      </trkpt>
      <trkpt lat="44.51837" lon="4.80092">
        <ele>191</ele>
        <time>2014-10-30T12:27:50Z</time>
      </trkpt>
      <trkpt lat="44.51841" lon="4.80094">
        <ele>191</ele>
        <time>2014-10-30T12:27:51Z</time>
      </trkpt>
      <trkpt lat="44.51843" lon="4.80098">
        <ele>192</ele>
        <time>2014-10-30T12:27:52Z</time>
      </trkpt>
      <trkpt lat="44.51845" lon="4.80103">
        <ele>192</ele>
        <time>2014-10-30T12:27:53Z</time>
      </trkpt>
      <trkpt lat="44.51846" lon="4.80108">
        <ele>192</ele>
        <time>2014-10-30T12:27:54Z</time>
      </trkpt>
      <trkpt lat="44.51847" lon="4.80114">
        <ele>192</ele>
        <time>2014-10-30T12:27:55Z</time>
      </trkpt>
      <trkpt lat="44.51848" lon="4.8012">
        <ele>192</ele>
        <time>2014-10-30T12:27:56Z</time>
      </trkpt>
      <trkpt lat="44.5185" lon="4.80126">
        <ele>193</ele>
        <time>2014-10-30T12:27:57Z</time>
      </trkpt>
      <trkpt lat="44.51854" lon="4.80144">
        <ele>193</ele>
        <time>2014-10-30T12:28:00Z</time>
      </trkpt>
      <trkpt lat="44.51858" lon="4.80169">
        <ele>194</ele>
        <time>2014-10-30T12:28:04Z</time>
      </trkpt>
      <trkpt lat="44.5187" lon="4.80253">
        <ele>194</ele>
        <time>2014-10-30T12:28:16Z</time>
      </trkpt>
      <trkpt lat="44.51895" lon="4.80342">
        <ele>194</ele>
        <time>2014-10-30T12:28:28Z</time>
      </trkpt>
      <trkpt lat="44.51899" lon="4.80366">
        <ele>193</ele>
        <time>2014-10-30T12:28:31Z</time>
      </trkpt>
      <trkpt lat="44.519" lon="4.80375">
        <ele>193</ele>
        <time>2014-10-30T12:28:32Z</time>
      </trkpt>
      <trkpt lat="44.51901" lon="4.80382">
        <ele>193</ele>
        <time>2014-10-30T12:28:33Z</time>
      </trkpt>
      <trkpt lat="44.51909" lon="4.8042">
        <ele>193</ele>
        <time>2014-10-30T12:28:38Z</time>
      </trkpt>
      <trkpt lat="44.51911" lon="4.80452">
        <ele>192</ele>
        <time>2014-10-30T12:28:42Z</time>
      </trkpt>
      <trkpt lat="44.51911" lon="4.8046">
        <ele>192</ele>
        <time>2014-10-30T12:28:43Z</time>
      </trkpt>
      <trkpt lat="44.51912" lon="4.80468">
        <ele>192</ele>
        <time>2014-10-30T12:28:44Z</time>
      </trkpt>
      <trkpt lat="44.51915" lon="4.80502">
        <ele>193</ele>
        <time>2014-10-30T12:28:48Z</time>
      </trkpt>
      <trkpt lat="44.51917" lon="4.8051">
        <ele>193</ele>
        <time>2014-10-30T12:28:49Z</time>
      </trkpt>
      <trkpt lat="44.5192" lon="4.80526">
        <ele>193</ele>
        <time>2014-10-30T12:28:51Z</time>
      </trkpt>
      <trkpt lat="44.51932" lon="4.80563">
        <ele>194</ele>
        <time>2014-10-30T12:28:56Z</time>
      </trkpt>
      <trkpt lat="44.51952" lon="4.80626">
        <ele>194</ele>
        <time>2014-10-30T12:29:05Z</time>
      </trkpt>
      <trkpt lat="44.51955" lon="4.80631">
        <ele>194</ele>
        <time>2014-10-30T12:29:06Z</time>
      </trkpt>
      <trkpt lat="44.51958" lon="4.80636">
        <ele>194</ele>
        <time>2014-10-30T12:29:07Z</time>
      </trkpt>
      <trkpt lat="44.51962" lon="4.80641">
        <ele>194</ele>
        <time>2014-10-30T12:29:08Z</time>
      </trkpt>
      <trkpt lat="44.51966" lon="4.80647">
        <ele>194</ele>
        <time>2014-10-30T12:29:09Z</time>
      </trkpt>
      <trkpt lat="44.5197" lon="4.80654">
        <ele>194</ele>
        <time>2014-10-30T12:29:10Z</time>
      </trkpt>
      <trkpt lat="44.51973" lon="4.80661">
        <ele>193</ele>
        <time>2014-10-30T12:29:11Z</time>
      </trkpt>
      <trkpt lat="44.51988" lon="4.80685">
        <ele>192</ele>
        <time>2014-10-30T12:29:15Z</time>
      </trkpt>
      <trkpt lat="44.5201" lon="4.80711">
        <ele>192</ele>
        <time>2014-10-30T12:29:20Z</time>
      </trkpt>
      <trkpt lat="44.5202" lon="4.80724">
        <ele>192</ele>
        <time>2014-10-30T12:29:22Z</time>
      </trkpt>
      <trkpt lat="44.52025" lon="4.80731">
        <ele>193</ele>
        <time>2014-10-30T12:29:23Z</time>
      </trkpt>
      <trkpt lat="44.52029" lon="4.80739">
        <ele>193</ele>
        <time>2014-10-30T12:29:24Z</time>
      </trkpt>
      <trkpt lat="44.5203" lon="4.80748">
        <ele>192</ele>
        <time>2014-10-30T12:29:25Z</time>
      </trkpt>
      <trkpt lat="44.52028" lon="4.80757">
        <ele>192</ele>
        <time>2014-10-30T12:29:26Z</time>
      </trkpt>
      <trkpt lat="44.52023" lon="4.80774">
        <ele>190</ele>
        <time>2014-10-30T12:29:28Z</time>
      </trkpt>
      <trkpt lat="44.52018" lon="4.80779">
        <ele>189</ele>
        <time>2014-10-30T12:29:29Z</time>
      </trkpt>
      <trkpt lat="44.52012" lon="4.80783">
        <ele>188</ele>
        <time>2014-10-30T12:29:30Z</time>
      </trkpt>
      <trkpt lat="44.52005" lon="4.80787">
        <ele>187</ele>
        <time>2014-10-30T12:29:31Z</time>
      </trkpt>
      <trkpt lat="44.51999" lon="4.80792">
        <ele>186</ele>
        <time>2014-10-30T12:29:32Z</time>
      </trkpt>
      <trkpt lat="44.51987" lon="4.80805">
        <ele>184</ele>
        <time>2014-10-30T12:29:34Z</time>
      </trkpt>
      <trkpt lat="44.51981" lon="4.80813">
        <ele>183</ele>
        <time>2014-10-30T12:29:35Z</time>
      </trkpt>
      <trkpt lat="44.51975" lon="4.80822">
        <ele>182</ele>
        <time>2014-10-30T12:29:36Z</time>
      </trkpt>
      <trkpt lat="44.5197" lon="4.80831">
        <ele>181</ele>
        <time>2014-10-30T12:29:37Z</time>
      </trkpt>
      <trkpt lat="44.51968" lon="4.80841">
        <ele>180</ele>
        <time>2014-10-30T12:29:38Z</time>
      </trkpt>
      <trkpt lat="44.51965" lon="4.8086">
        <ele>179</ele>
        <time>2014-10-30T12:29:40Z</time>
      </trkpt>
      <trkpt lat="44.51966" lon="4.80869">
        <ele>178</ele>
        <time>2014-10-30T12:29:41Z</time>
      </trkpt>
      <trkpt lat="44.51967" lon="4.80876">
        <ele>178</ele>
        <time>2014-10-30T12:29:42Z</time>
      </trkpt>
      <trkpt lat="44.51971" lon="4.80882">
        <ele>177</ele>
        <time>2014-10-30T12:29:43Z</time>
      </trkpt>
      <trkpt lat="44.51976" lon="4.80886">
        <ele>177</ele>
        <time>2014-10-30T12:29:44Z</time>
      </trkpt>
      <trkpt lat="44.51982" lon="4.8089">
        <ele>177</ele>
        <time>2014-10-30T12:29:45Z</time>
      </trkpt>
      <trkpt lat="44.51988" lon="4.80894">
        <ele>177</ele>
        <time>2014-10-30T12:29:46Z</time>
      </trkpt>
      <trkpt lat="44.52036" lon="4.8095">
        <ele>174</ele>
        <time>2014-10-30T12:29:54Z</time>
      </trkpt>
      <trkpt lat="44.52049" lon="4.80967">
        <ele>173</ele>
        <time>2014-10-30T12:29:56Z</time>
      </trkpt>
      <trkpt lat="44.52088" lon="4.81012">
        <ele>173</ele>
        <time>2014-10-30T12:30:02Z</time>
      </trkpt>
      <trkpt lat="44.52098" lon="4.81026">
        <ele>173</ele>
        <time>2014-10-30T12:30:04Z</time>
      </trkpt>
      <trkpt lat="44.52102" lon="4.81034">
        <ele>172</ele>
        <time>2014-10-30T12:30:05Z</time>
      </trkpt>
      <trkpt lat="44.52106" lon="4.81041">
        <ele>172</ele>
        <time>2014-10-30T12:30:06Z</time>
      </trkpt>
      <trkpt lat="44.52111" lon="4.81048">
        <ele>171</ele>
        <time>2014-10-30T12:30:07Z</time>
      </trkpt>
      <trkpt lat="44.52116" lon="4.81055">
        <ele>171</ele>
        <time>2014-10-30T12:30:08Z</time>
      </trkpt>
      <trkpt lat="44.52132" lon="4.81074">
        <ele>169</ele>
        <time>2014-10-30T12:30:11Z</time>
      </trkpt>
      <trkpt lat="44.52157" lon="4.811">
        <ele>168</ele>
        <time>2014-10-30T12:30:15Z</time>
      </trkpt>
      <trkpt lat="44.52174" lon="4.81124">
        <ele>166</ele>
        <time>2014-10-30T12:30:18Z</time>
      </trkpt>
      <trkpt lat="44.52188" lon="4.81138">
        <ele>165</ele>
        <time>2014-10-30T12:30:20Z</time>
      </trkpt>
      <trkpt lat="44.52222" lon="4.81164">
        <ele>163</ele>
        <time>2014-10-30T12:30:25Z</time>
      </trkpt>
      <trkpt lat="44.52271" lon="4.81191">
        <ele>160</ele>
        <time>2014-10-30T12:30:32Z</time>
      </trkpt>
      <trkpt lat="44.52291" lon="4.81198">
        <ele>159</ele>
        <time>2014-10-30T12:30:35Z</time>
      </trkpt>
      <trkpt lat="44.52304" lon="4.81202">
        <ele>159</ele>
        <time>2014-10-30T12:30:37Z</time>
      </trkpt>
      <trkpt lat="44.5231" lon="4.81205">
        <ele>158</ele>
        <time>2014-10-30T12:30:38Z</time>
      </trkpt>
      <trkpt lat="44.52317" lon="4.81209">
        <ele>157</ele>
        <time>2014-10-30T12:30:39Z</time>
      </trkpt>
      <trkpt lat="44.52323" lon="4.81214">
        <ele>156</ele>
        <time>2014-10-30T12:30:40Z</time>
      </trkpt>
      <trkpt lat="44.52328" lon="4.81222">
        <ele>155</ele>
        <time>2014-10-30T12:30:41Z</time>
      </trkpt>
      <trkpt lat="44.52331" lon="4.81231">
        <ele>154</ele>
        <time>2014-10-30T12:30:42Z</time>
      </trkpt>
      <trkpt lat="44.52331" lon="4.81243">
        <ele>152</ele>
        <time>2014-10-30T12:30:43Z</time>
      </trkpt>
      <trkpt lat="44.52329" lon="4.81255">
        <ele>150</ele>
        <time>2014-10-30T12:30:44Z</time>
      </trkpt>
      <trkpt lat="44.52328" lon="4.81266">
        <ele>149</ele>
        <time>2014-10-30T12:30:45Z</time>
      </trkpt>
      <trkpt lat="44.52324" lon="4.81292">
        <ele>147</ele>
        <time>2014-10-30T12:30:48Z</time>
      </trkpt>
      <trkpt lat="44.52324" lon="4.81297">
        <ele>146</ele>
        <time>2014-10-30T12:30:49Z</time>
      </trkpt>
      <trkpt lat="44.52326" lon="4.81301">
        <ele>146</ele>
        <time>2014-10-30T12:30:50Z</time>
      </trkpt>
      <trkpt lat="44.52329" lon="4.81303">
        <ele>146</ele>
        <time>2014-10-30T12:30:51Z</time>
      </trkpt>
      <trkpt lat="44.52333" lon="4.81304">
        <ele>146</ele>
        <time>2014-10-30T12:30:52Z</time>
      </trkpt>
      <trkpt lat="44.52338" lon="4.81304">
        <ele>146</ele>
        <time>2014-10-30T12:30:53Z</time>
      </trkpt>
      <trkpt lat="44.52344" lon="4.81303">
        <ele>146</ele>
        <time>2014-10-30T12:30:54Z</time>
      </trkpt>
      <trkpt lat="44.5235" lon="4.81301">
        <ele>146</ele>
        <time>2014-10-30T12:30:55Z</time>
      </trkpt>
      <trkpt lat="44.52356" lon="4.81299">
        <ele>147</ele>
        <time>2014-10-30T12:30:56Z</time>
      </trkpt>
      <trkpt lat="44.52462" lon="4.81268">
        <ele>146</ele>
        <time>2014-10-30T12:31:12Z</time>
      </trkpt>
      <trkpt lat="44.52581" lon="4.81234">
        <ele>143</ele>
        <time>2014-10-30T12:31:29Z</time>
      </trkpt>
      <trkpt lat="44.52691" lon="4.81203">
        <ele>144</ele>
        <time>2014-10-30T12:31:44Z</time>
      </trkpt>
      <trkpt lat="44.52803" lon="4.81172">
        <ele>139</ele>
        <time>2014-10-30T12:32:01Z</time>
      </trkpt>
      <trkpt lat="44.52818" lon="4.81165">
        <ele>139</ele>
        <time>2014-10-30T12:32:05Z</time>
      </trkpt>
      <trkpt lat="44.5282" lon="4.81161">
        <ele>140</ele>
        <time>2014-10-30T12:32:06Z</time>
      </trkpt>
      <trkpt lat="44.5282" lon="4.81156">
        <ele>140</ele>
        <time>2014-10-30T12:32:07Z</time>
      </trkpt>
      <trkpt lat="44.52819" lon="4.81152">
        <ele>141</ele>
        <time>2014-10-30T12:32:08Z</time>
      </trkpt>
      <trkpt lat="44.52817" lon="4.8115">
        <ele>141</ele>
        <time>2014-10-30T12:32:09Z</time>
      </trkpt>
      <trkpt lat="44.52815" lon="4.81149">
        <ele>142</ele>
        <time>2014-10-30T12:32:10Z</time>
      </trkpt>
      <trkpt lat="44.52814" lon="4.81148">
        <ele>142</ele>
        <time>2014-10-30T12:32:11Z</time>
      </trkpt>
      <trkpt lat="44.52812" lon="4.81147">
        <ele>142</ele>
        <time>2014-10-30T12:32:12Z</time>
      </trkpt>
      <trkpt lat="44.5281" lon="4.81146">
        <ele>142</ele>
        <time>2014-10-30T12:32:13Z</time>
      </trkpt>
      <trkpt lat="44.52809" lon="4.81145">
        <ele>143</ele>
        <time>2014-10-30T12:32:14Z</time>
      </trkpt>
      <trkpt lat="44.52807" lon="4.81144">
        <ele>143</ele>
        <time>2014-10-30T12:32:15Z</time>
      </trkpt>
      <trkpt lat="44.52781" lon="4.81132">
        <ele>147</ele>
        <time>2014-10-30T12:32:27Z</time>
      </trkpt>
      <trkpt lat="44.52777" lon="4.81131">
        <ele>148</ele>
        <time>2014-10-30T12:32:29Z</time>
      </trkpt>
      <trkpt lat="44.52776" lon="4.81131">
        <ele>148</ele>
        <time>2014-10-30T12:32:30Z</time>
      </trkpt>
      <trkpt lat="44.52753" lon="4.81129">
        <ele>151</ele>
        <time>2014-10-30T12:32:41Z</time>
      </trkpt>
      <trkpt lat="44.52751" lon="4.81129">
        <ele>151</ele>
        <time>2014-10-30T12:32:42Z</time>
      </trkpt>
      <trkpt lat="44.5272" lon="4.81129">
        <ele>154</ele>
        <time>2014-10-30T12:32:54Z</time>
      </trkpt>
      <trkpt lat="44.52702" lon="4.81131">
        <ele>156</ele>
        <time>2014-10-30T12:33:00Z</time>
      </trkpt>
      <trkpt lat="44.52676" lon="4.81134">
        <ele>157</ele>
        <time>2014-10-30T12:33:11Z</time>
      </trkpt>
      <trkpt lat="44.52677" lon="4.81135">
        <ele>157</ele>
        <time>2014-10-30T12:33:12Z</time>
      </trkpt>
      <trkpt lat="44.52678" lon="4.81135">
        <ele>157</ele>
        <time>2014-10-30T12:33:13Z</time>
      </trkpt>
      <trkpt lat="44.527" lon="4.81133">
        <ele>155</ele>
        <time>2014-10-30T12:33:19Z</time>
      </trkpt>
      <trkpt lat="44.52706" lon="4.81132">
        <ele>155</ele>
        <time>2014-10-30T12:33:20Z</time>
      </trkpt>
      <trkpt lat="44.52749" lon="4.81132">
        <ele>151</ele>
        <time>2014-10-30T12:33:26Z</time>
      </trkpt>
      <trkpt lat="44.52765" lon="4.81134">
        <ele>149</ele>
        <time>2014-10-30T12:33:28Z</time>
      </trkpt>
      <trkpt lat="44.52773" lon="4.81137">
        <ele>147</ele>
        <time>2014-10-30T12:33:29Z</time>
      </trkpt>
      <trkpt lat="44.52789" lon="4.81143">
        <ele>145</ele>
        <time>2014-10-30T12:33:31Z</time>
      </trkpt>
      <trkpt lat="44.52795" lon="4.81146">
        <ele>144</ele>
        <time>2014-10-30T12:33:32Z</time>
      </trkpt>
      <trkpt lat="44.52802" lon="4.8115">
        <ele>142</ele>
        <time>2014-10-30T12:33:34Z</time>
      </trkpt>
      <trkpt lat="44.5283" lon="4.81146">
        <ele>141</ele>
        <time>2014-10-30T12:33:44Z</time>
      </trkpt>
      <trkpt lat="44.52841" lon="4.81142">
        <ele>141</ele>
        <time>2014-10-30T12:33:49Z</time>
      </trkpt>
      <trkpt lat="44.52847" lon="4.81143">
        <ele>140</ele>
        <time>2014-10-30T12:33:52Z</time>
      </trkpt>
      <trkpt lat="44.52849" lon="4.81142">
        <ele>140</ele>
        <time>2014-10-30T12:33:53Z</time>
      </trkpt>
      <trkpt lat="44.52875" lon="4.81128">
        <ele>141</ele>
        <time>2014-10-30T12:34:06Z</time>
      </trkpt>
      <trkpt lat="44.52899" lon="4.81108">
        <ele>142</ele>
        <time>2014-10-30T12:34:17Z</time>
      </trkpt>
      <trkpt lat="44.52903" lon="4.81104">
        <ele>142</ele>
        <time>2014-10-30T12:34:19Z</time>
      </trkpt>
      <trkpt lat="44.52905" lon="4.81102">
        <ele>143</ele>
        <time>2014-10-30T12:34:20Z</time>
      </trkpt>
      <trkpt lat="44.52907" lon="4.811">
        <ele>143</ele>
        <time>2014-10-30T12:34:21Z</time>
      </trkpt>
      <trkpt lat="44.52926" lon="4.8108">
        <ele>145</ele>
        <time>2014-10-30T12:34:31Z</time>
      </trkpt>
      <trkpt lat="44.52927" lon="4.81077">
        <ele>145</ele>
        <time>2014-10-30T12:34:32Z</time>
      </trkpt>
      <trkpt lat="44.52932" lon="4.81067">
        <ele>146</ele>
        <time>2014-10-30T12:34:35Z</time>
      </trkpt>
      <trkpt lat="44.52946" lon="4.81025">
        <ele>151</ele>
        <time>2014-10-30T12:34:48Z</time>
      </trkpt>
      <trkpt lat="44.52967" lon="4.80993">
        <ele>153</ele>
        <time>2014-10-30T12:34:59Z</time>
      </trkpt>
      <trkpt lat="44.52971" lon="4.80987">
        <ele>153</ele>
        <time>2014-10-30T12:35:02Z</time>
      </trkpt>
      <trkpt lat="44.52972" lon="4.80981">
        <ele>154</ele>
        <time>2014-10-30T12:35:09Z</time>
      </trkpt>
      <trkpt lat="44.52971" lon="4.80982">
        <ele>154</ele>
        <time>2014-10-30T12:35:10Z</time>
      </trkpt>
      <trkpt lat="44.5297" lon="4.80985">
        <ele>154</ele>
        <time>2014-10-30T12:35:11Z</time>
      </trkpt>
      <trkpt lat="44.52969" lon="4.80987">
        <ele>153</ele>
        <time>2014-10-30T12:35:12Z</time>
      </trkpt>
      <trkpt lat="44.52967" lon="4.8099">
        <ele>153</ele>
        <time>2014-10-30T12:35:13Z</time>
      </trkpt>
      <trkpt lat="44.52965" lon="4.80993">
        <ele>153</ele>
        <time>2014-10-30T12:35:14Z</time>
      </trkpt>
      <trkpt lat="44.52963" lon="4.80995">
        <ele>153</ele>
        <time>2014-10-30T12:35:15Z</time>
      </trkpt>
      <trkpt lat="44.52961" lon="4.80998">
        <ele>153</ele>
        <time>2014-10-30T12:35:16Z</time>
      </trkpt>
      <trkpt lat="44.52959" lon="4.81001">
        <ele>153</ele>
        <time>2014-10-30T12:35:17Z</time>
      </trkpt>
      <trkpt lat="44.52957" lon="4.81004">
        <ele>153</ele>
        <time>2014-10-30T12:35:18Z</time>
      </trkpt>
      <trkpt lat="44.52937" lon="4.81049">
        <ele>148</ele>
        <time>2014-10-30T12:35:29Z</time>
      </trkpt>
      <trkpt lat="44.52919" lon="4.81092">
        <ele>144</ele>
        <time>2014-10-30T12:35:40Z</time>
      </trkpt>
      <trkpt lat="44.5287" lon="4.81133">
        <ele>141</ele>
        <time>2014-10-30T12:35:52Z</time>
      </trkpt>
      <trkpt lat="44.5283" lon="4.81149">
        <ele>141</ele>
        <time>2014-10-30T12:36:02Z</time>
      </trkpt>
      <trkpt lat="44.52814" lon="4.81154">
        <ele>141</ele>
        <time>2014-10-30T12:36:11Z</time>
      </trkpt>
      <trkpt lat="44.52814" lon="4.81153">
        <ele>141</ele>
        <time>2014-10-30T12:36:33Z</time>
      </trkpt>
      <trkpt lat="44.52813" lon="4.81154">
        <ele>141</ele>
        <time>2014-10-30T12:36:54Z</time>
      </trkpt>
      <trkpt lat="44.52813" lon="4.81153">
        <ele>141</ele>
        <time>2014-10-30T12:37:29Z</time>
      </trkpt>
      <trkpt lat="44.52813" lon="4.81154">
        <ele>141</ele>
        <time>2014-10-30T12:37:59Z</time>
      </trkpt>
      <trkpt lat="44.52813" lon="4.81153">
        <ele>141</ele>
        <time>2014-10-30T12:38:26Z</time>
      </trkpt>
      <trkpt lat="44.52812" lon="4.81153">
        <ele>141</ele>
        <time>2014-10-30T12:38:43Z</time>
      </trkpt>
      <trkpt lat="44.52795" lon="4.81142">
        <ele>144</ele>
        <time>2014-10-30T12:38:53Z</time>
      </trkpt>
      <trkpt lat="44.52775" lon="4.81131">
        <ele>148</ele>
        <time>2014-10-30T12:39:03Z</time>
      </trkpt>
      <trkpt lat="44.52773" lon="4.8113">
        <ele>148</ele>
        <time>2014-10-30T12:39:04Z</time>
      </trkpt>
      <trkpt lat="44.52749" lon="4.81128">
        <ele>151</ele>
        <time>2014-10-30T12:39:15Z</time>
      </trkpt>
      <trkpt lat="44.52725" lon="4.81127">
        <ele>154</ele>
        <time>2014-10-30T12:39:25Z</time>
      </trkpt>
      <trkpt lat="44.52699" lon="4.8113">
        <ele>156</ele>
        <time>2014-10-30T12:39:36Z</time>
      </trkpt>
      <trkpt lat="44.52675" lon="4.81134">
        <ele>157</ele>
        <time>2014-10-30T12:39:45Z</time>
      </trkpt>
      <trkpt lat="44.52673" lon="4.81134">
        <ele>158</ele>
        <time>2014-10-30T12:39:46Z</time>
      </trkpt>
      <trkpt lat="44.52671" lon="4.81134">
        <ele>158</ele>
        <time>2014-10-30T12:39:47Z</time>
      </trkpt>
      <trkpt lat="44.52669" lon="4.81134">
        <ele>158</ele>
        <time>2014-10-30T12:39:48Z</time>
      </trkpt>
      <trkpt lat="44.52666" lon="4.81134">
        <ele>158</ele>
        <time>2014-10-30T12:39:49Z</time>
      </trkpt>
      <trkpt lat="44.52637" lon="4.81123">
        <ele>163</ele>
        <time>2014-10-30T12:40:02Z</time>
      </trkpt>
      <trkpt lat="44.5262" lon="4.81115">
        <ele>167</ele>
        <time>2014-10-30T12:40:12Z</time>
      </trkpt>
      <trkpt lat="44.52618" lon="4.81114">
        <ele>167</ele>
        <time>2014-10-30T12:40:13Z</time>
      </trkpt>
      <trkpt lat="44.52616" lon="4.81114">
        <ele>168</ele>
        <time>2014-10-30T12:40:14Z</time>
      </trkpt>
      <trkpt lat="44.52614" lon="4.81113">
        <ele>168</ele>
        <time>2014-10-30T12:40:15Z</time>
      </trkpt>
      <trkpt lat="44.52613" lon="4.81113">
        <ele>168</ele>
        <time>2014-10-30T12:40:16Z</time>
      </trkpt>
      <trkpt lat="44.52611" lon="4.81113">
        <ele>168</ele>
        <time>2014-10-30T12:40:17Z</time>
      </trkpt>
      <trkpt lat="44.52609" lon="4.81113">
        <ele>168</ele>
        <time>2014-10-30T12:40:18Z</time>
      </trkpt>
      <trkpt lat="44.52607" lon="4.81113">
        <ele>169</ele>
        <time>2014-10-30T12:40:19Z</time>
      </trkpt>
      <trkpt lat="44.52582" lon="4.81112">
        <ele>172</ele>
        <time>2014-10-30T12:40:32Z</time>
      </trkpt>
      <trkpt lat="44.52554" lon="4.81111">
        <ele>175</ele>
        <time>2014-10-30T12:40:46Z</time>
      </trkpt>
      <trkpt lat="44.52528" lon="4.81111">
        <ele>177</ele>
        <time>2014-10-30T12:40:59Z</time>
      </trkpt>
      <trkpt lat="44.52527" lon="4.8111">
        <ele>177</ele>
        <time>2014-10-30T12:41:00Z</time>
      </trkpt>
      <trkpt lat="44.52526" lon="4.81108">
        <ele>178</ele>
        <time>2014-10-30T12:41:01Z</time>
      </trkpt>
      <trkpt lat="44.52525" lon="4.81106">
        <ele>179</ele>
        <time>2014-10-30T12:41:02Z</time>
      </trkpt>
      <trkpt lat="44.52526" lon="4.81104">
        <ele>179</ele>
        <time>2014-10-30T12:41:03Z</time>
      </trkpt>
      <trkpt lat="44.52527" lon="4.81102">
        <ele>180</ele>
        <time>2014-10-30T12:41:04Z</time>
      </trkpt>
      <trkpt lat="44.52529" lon="4.811">
        <ele>180</ele>
        <time>2014-10-30T12:41:05Z</time>
      </trkpt>
      <trkpt lat="44.5253" lon="4.811">
        <ele>180</ele>
        <time>2014-10-30T12:41:06Z</time>
      </trkpt>
      <trkpt lat="44.52531" lon="4.81099">
        <ele>180</ele>
        <time>2014-10-30T12:41:07Z</time>
      </trkpt>
      <trkpt lat="44.52533" lon="4.81099">
        <ele>180</ele>
        <time>2014-10-30T12:41:08Z</time>
      </trkpt>
      <trkpt lat="44.52535" lon="4.81098">
        <ele>180</ele>
        <time>2014-10-30T12:41:09Z</time>
      </trkpt>
      <trkpt lat="44.52542" lon="4.81093">
        <ele>181</ele>
        <time>2014-10-30T12:41:14Z</time>
      </trkpt>
      <trkpt lat="44.52555" lon="4.81086">
        <ele>183</ele>
        <time>2014-10-30T12:41:22Z</time>
      </trkpt>
      <trkpt lat="44.52557" lon="4.81085">
        <ele>183</ele>
        <time>2014-10-30T12:41:23Z</time>
      </trkpt>
      <trkpt lat="44.52558" lon="4.81083">
        <ele>183</ele>
        <time>2014-10-30T12:41:24Z</time>
      </trkpt>
      <trkpt lat="44.52559" lon="4.81082">
        <ele>184</ele>
        <time>2014-10-30T12:41:25Z</time>
      </trkpt>
      <trkpt lat="44.52561" lon="4.81081">
        <ele>184</ele>
        <time>2014-10-30T12:41:26Z</time>
      </trkpt>
      <trkpt lat="44.52563" lon="4.8108">
        <ele>184</ele>
        <time>2014-10-30T12:41:27Z</time>
      </trkpt>
      <trkpt lat="44.52564" lon="4.81079">
        <ele>184</ele>
        <time>2014-10-30T12:41:28Z</time>
      </trkpt>
      <trkpt lat="44.52566" lon="4.81078">
        <ele>184</ele>
        <time>2014-10-30T12:41:29Z</time>
      </trkpt>
      <trkpt lat="44.52588" lon="4.81061">
        <ele>186</ele>
        <time>2014-10-30T12:41:43Z</time>
      </trkpt>
      <trkpt lat="44.52607" lon="4.81046">
        <ele>187</ele>
        <time>2014-10-30T12:41:55Z</time>
      </trkpt>
      <trkpt lat="44.52615" lon="4.81038">
        <ele>188</ele>
        <time>2014-10-30T12:42:01Z</time>
      </trkpt>
      <trkpt lat="44.52616" lon="4.81036">
        <ele>188</ele>
        <time>2014-10-30T12:42:02Z</time>
      </trkpt>
      <trkpt lat="44.52617" lon="4.81035">
        <ele>188</ele>
        <time>2014-10-30T12:42:03Z</time>
      </trkpt>
      <trkpt lat="44.52619" lon="4.81034">
        <ele>189</ele>
        <time>2014-10-30T12:42:04Z</time>
      </trkpt>
      <trkpt lat="44.5262" lon="4.81033">
        <ele>189</ele>
        <time>2014-10-30T12:42:05Z</time>
      </trkpt>
      <trkpt lat="44.52622" lon="4.81031">
        <ele>189</ele>
        <time>2014-10-30T12:42:06Z</time>
      </trkpt>
      <trkpt lat="44.52623" lon="4.8103">
        <ele>189</ele>
        <time>2014-10-30T12:42:07Z</time>
      </trkpt>
      <trkpt lat="44.52625" lon="4.81028">
        <ele>189</ele>
        <time>2014-10-30T12:42:08Z</time>
      </trkpt>
      <trkpt lat="44.52626" lon="4.81027">
        <ele>190</ele>
        <time>2014-10-30T12:42:09Z</time>
      </trkpt>
      <trkpt lat="44.52634" lon="4.8102">
        <ele>191</ele>
        <time>2014-10-30T12:42:14Z</time>
      </trkpt>
      <trkpt lat="44.52636" lon="4.81019">
        <ele>191</ele>
        <time>2014-10-30T12:42:15Z</time>
      </trkpt>
      <trkpt lat="44.52637" lon="4.81017">
        <ele>191</ele>
        <time>2014-10-30T12:42:16Z</time>
      </trkpt>
      <trkpt lat="44.52639" lon="4.81016">
        <ele>192</ele>
        <time>2014-10-30T12:42:17Z</time>
      </trkpt>
      <trkpt lat="44.5264" lon="4.81014">
        <ele>192</ele>
        <time>2014-10-30T12:42:18Z</time>
      </trkpt>
      <trkpt lat="44.52641" lon="4.81012">
        <ele>192</ele>
        <time>2014-10-30T12:42:19Z</time>
      </trkpt>
      <trkpt lat="44.52658" lon="4.80992">
        <ele>196</ele>
        <time>2014-10-30T12:42:32Z</time>
      </trkpt>
      <trkpt lat="44.5268" lon="4.80968">
        <ele>198</ele>
        <time>2014-10-30T12:42:47Z</time>
      </trkpt>
      <trkpt lat="44.52698" lon="4.80946">
        <ele>199</ele>
        <time>2014-10-30T12:43:00Z</time>
      </trkpt>
      <trkpt lat="44.5271" lon="4.80918">
        <ele>203</ele>
        <time>2014-10-30T12:43:13Z</time>
      </trkpt>
      <trkpt lat="44.52723" lon="4.80887">
        <ele>206</ele>
        <time>2014-10-30T12:43:28Z</time>
      </trkpt>
      <trkpt lat="44.52736" lon="4.80858">
        <ele>209</ele>
        <time>2014-10-30T12:43:41Z</time>
      </trkpt>
      <trkpt lat="44.52744" lon="4.80836">
        <ele>213</ele>
        <time>2014-10-30T12:43:51Z</time>
      </trkpt>
      <trkpt lat="44.52745" lon="4.80834">
        <ele>213</ele>
        <time>2014-10-30T12:43:52Z</time>
      </trkpt>
      <trkpt lat="44.52746" lon="4.80832">
        <ele>213</ele>
        <time>2014-10-30T12:43:53Z</time>
      </trkpt>
      <trkpt lat="44.52762" lon="4.80803">
        <ele>218</ele>
        <time>2014-10-30T12:44:07Z</time>
      </trkpt>
      <trkpt lat="44.52776" lon="4.80795">
        <ele>218</ele>
        <time>2014-10-30T12:44:17Z</time>
      </trkpt>
      <trkpt lat="44.52778" lon="4.80795">
        <ele>218</ele>
        <time>2014-10-30T12:44:18Z</time>
      </trkpt>
      <trkpt lat="44.52779" lon="4.80794">
        <ele>218</ele>
        <time>2014-10-30T12:44:19Z</time>
      </trkpt>
      <trkpt lat="44.52781" lon="4.80794">
        <ele>218</ele>
        <time>2014-10-30T12:44:20Z</time>
      </trkpt>
      <trkpt lat="44.52782" lon="4.80794">
        <ele>218</ele>
        <time>2014-10-30T12:44:21Z</time>
      </trkpt>
      <trkpt lat="44.52784" lon="4.80793">
        <ele>218</ele>
        <time>2014-10-30T12:44:22Z</time>
      </trkpt>
      <trkpt lat="44.52785" lon="4.80793">
        <ele>218</ele>
        <time>2014-10-30T12:44:23Z</time>
      </trkpt>
      <trkpt lat="44.52787" lon="4.80792">
        <ele>217</ele>
        <time>2014-10-30T12:44:24Z</time>
      </trkpt>
      <trkpt lat="44.52788" lon="4.80792">
        <ele>217</ele>
        <time>2014-10-30T12:44:25Z</time>
      </trkpt>
      <trkpt lat="44.5279" lon="4.80792">
        <ele>217</ele>
        <time>2014-10-30T12:44:26Z</time>
      </trkpt>
      <trkpt lat="44.52792" lon="4.80792">
        <ele>217</ele>
        <time>2014-10-30T12:44:27Z</time>
      </trkpt>
      <trkpt lat="44.52793" lon="4.80791">
        <ele>217</ele>
        <time>2014-10-30T12:44:28Z</time>
      </trkpt>
      <trkpt lat="44.52795" lon="4.8079">
        <ele>217</ele>
        <time>2014-10-30T12:44:29Z</time>
      </trkpt>
      <trkpt lat="44.52796" lon="4.80789">
        <ele>217</ele>
        <time>2014-10-30T12:44:30Z</time>
      </trkpt>
      <trkpt lat="44.52798" lon="4.80787">
        <ele>218</ele>
        <time>2014-10-30T12:44:31Z</time>
      </trkpt>
      <trkpt lat="44.52799" lon="4.80786">
        <ele>218</ele>
        <time>2014-10-30T12:44:32Z</time>
      </trkpt>
      <trkpt lat="44.52813" lon="4.80771">
        <ele>220</ele>
        <time>2014-10-30T12:44:41Z</time>
      </trkpt>
      <trkpt lat="44.52808" lon="4.80767">
        <ele>222</ele>
        <time>2014-10-30T12:44:46Z</time>
      </trkpt>
      <trkpt lat="44.52786" lon="4.80774">
        <ele>224</ele>
        <time>2014-10-30T12:44:59Z</time>
      </trkpt>
      <trkpt lat="44.52764" lon="4.80773">
        <ele>228</ele>
        <time>2014-10-30T12:45:13Z</time>
      </trkpt>
      <trkpt lat="44.52745" lon="4.8077">
        <ele>233</ele>
        <time>2014-10-30T12:45:25Z</time>
      </trkpt>
      <trkpt lat="44.52727" lon="4.80777">
        <ele>235</ele>
        <time>2014-10-30T12:45:37Z</time>
      </trkpt>
      <trkpt lat="44.52711" lon="4.80801">
        <ele>235</ele>
        <time>2014-10-30T12:45:49Z</time>
      </trkpt>
      <trkpt lat="44.5269" lon="4.80827">
        <ele>238</ele>
        <time>2014-10-30T12:46:05Z</time>
      </trkpt>
      <trkpt lat="44.52665" lon="4.80846">
        <ele>244</ele>
        <time>2014-10-30T12:46:21Z</time>
      </trkpt>
      <trkpt lat="44.52644" lon="4.8086">
        <ele>248</ele>
        <time>2014-10-30T12:46:35Z</time>
      </trkpt>
      <trkpt lat="44.52635" lon="4.80865">
        <ele>249</ele>
        <time>2014-10-30T12:46:40Z</time>
      </trkpt>
      <trkpt lat="44.52613" lon="4.80877">
        <ele>252</ele>
        <time>2014-10-30T12:46:54Z</time>
      </trkpt>
      <trkpt lat="44.52592" lon="4.80886">
        <ele>254</ele>
        <time>2014-10-30T12:47:07Z</time>
      </trkpt>
      <trkpt lat="44.52577" lon="4.80893">
        <ele>255</ele>
        <time>2014-10-30T12:47:17Z</time>
      </trkpt>
      <trkpt lat="44.52548" lon="4.80901">
        <ele>258</ele>
        <time>2014-10-30T12:47:33Z</time>
      </trkpt>
      <trkpt lat="44.52526" lon="4.80903">
        <ele>259</ele>
        <time>2014-10-30T12:47:46Z</time>
      </trkpt>
      <trkpt lat="44.52501" lon="4.809">
        <ele>260</ele>
        <time>2014-10-30T12:48:01Z</time>
      </trkpt>
      <trkpt lat="44.5248" lon="4.80893">
        <ele>261</ele>
        <time>2014-10-30T12:48:15Z</time>
      </trkpt>
      <trkpt lat="44.52463" lon="4.80885">
        <ele>262</ele>
        <time>2014-10-30T12:48:27Z</time>
      </trkpt>
      <trkpt lat="44.5244" lon="4.80872">
        <ele>264</ele>
        <time>2014-10-30T12:48:42Z</time>
      </trkpt>
      <trkpt lat="44.5242" lon="4.80856">
        <ele>265</ele>
        <time>2014-10-30T12:48:56Z</time>
      </trkpt>
      <trkpt lat="44.52406" lon="4.80833">
        <ele>268</ele>
        <time>2014-10-30T12:49:10Z</time>
      </trkpt>
      <trkpt lat="44.52403" lon="4.80827">
        <ele>268</ele>
        <time>2014-10-30T12:49:13Z</time>
      </trkpt>
      <trkpt lat="44.52403" lon="4.80794">
        <ele>271</ele>
        <time>2014-10-30T12:49:28Z</time>
      </trkpt>
      <trkpt lat="44.52404" lon="4.80786">
        <ele>272</ele>
        <time>2014-10-30T12:49:32Z</time>
      </trkpt>
      <trkpt lat="44.52413" lon="4.80767">
        <ele>276</ele>
        <time>2014-10-30T12:49:45Z</time>
      </trkpt>
      <trkpt lat="44.52414" lon="4.80764">
        <ele>276</ele>
        <time>2014-10-30T12:49:47Z</time>
      </trkpt>
      <trkpt lat="44.52414" lon="4.80759">
        <ele>276</ele>
        <time>2014-10-30T12:49:50Z</time>
      </trkpt>
      <trkpt lat="44.52415" lon="4.80729">
        <ele>277</ele>
        <time>2014-10-30T12:50:05Z</time>
      </trkpt>
      <trkpt lat="44.52414" lon="4.80722">
        <ele>277</ele>
        <time>2014-10-30T12:50:08Z</time>
      </trkpt>
      <trkpt lat="44.52413" lon="4.80711">
        <ele>277</ele>
        <time>2014-10-30T12:50:13Z</time>
      </trkpt>
      <trkpt lat="44.52407" lon="4.80684">
        <ele>278</ele>
        <time>2014-10-30T12:50:28Z</time>
      </trkpt>
      <trkpt lat="44.52402" lon="4.80655">
        <ele>281</ele>
        <time>2014-10-30T12:50:42Z</time>
      </trkpt>
      <trkpt lat="44.52401" lon="4.8063">
        <ele>282</ele>
        <time>2014-10-30T12:50:53Z</time>
      </trkpt>
      <trkpt lat="44.52402" lon="4.8061">
        <ele>283</ele>
        <time>2014-10-30T12:51:03Z</time>
      </trkpt>
      <trkpt lat="44.52403" lon="4.80599">
        <ele>283</ele>
        <time>2014-10-30T12:51:09Z</time>
      </trkpt>
      <trkpt lat="44.52407" lon="4.80591">
        <ele>285</ele>
        <time>2014-10-30T12:51:14Z</time>
      </trkpt>
      <trkpt lat="44.52417" lon="4.80598">
        <ele>287</ele>
        <time>2014-10-30T12:51:22Z</time>
      </trkpt>
      <trkpt lat="44.5242" lon="4.80602">
        <ele>287</ele>
        <time>2014-10-30T12:51:25Z</time>
      </trkpt>
      <trkpt lat="44.52431" lon="4.80611">
        <ele>289</ele>
        <time>2014-10-30T12:51:34Z</time>
      </trkpt>
      <trkpt lat="44.52449" lon="4.80632">
        <ele>292</ele>
        <time>2014-10-30T12:51:49Z</time>
      </trkpt>
      <trkpt lat="44.52467" lon="4.8065">
        <ele>293</ele>
        <time>2014-10-30T12:52:04Z</time>
      </trkpt>
      <trkpt lat="44.52487" lon="4.80672">
        <ele>295</ele>
        <time>2014-10-30T12:52:20Z</time>
      </trkpt>
      <trkpt lat="44.52494" lon="4.80682">
        <ele>296</ele>
        <time>2014-10-30T12:52:26Z</time>
      </trkpt>
      <trkpt lat="44.52508" lon="4.80696">
        <ele>297</ele>
        <time>2014-10-30T12:52:38Z</time>
      </trkpt>
      <trkpt lat="44.52511" lon="4.807">
        <ele>297</ele>
        <time>2014-10-30T12:52:41Z</time>
      </trkpt>
      <trkpt lat="44.52519" lon="4.80709">
        <ele>297</ele>
        <time>2014-10-30T12:52:54Z</time>
      </trkpt>
      <trkpt lat="44.5252" lon="4.80709">
        <ele>297</ele>
        <time>2014-10-30T12:52:56Z</time>
      </trkpt>
      <trkpt lat="44.52521" lon="4.80705">
        <ele>297</ele>
        <time>2014-10-30T12:52:59Z</time>
      </trkpt>
      <trkpt lat="44.52524" lon="4.80694">
        <ele>297</ele>
        <time>2014-10-30T12:53:11Z</time>
      </trkpt>
      <trkpt lat="44.52524" lon="4.80694">
        <ele>297</ele>
        <time>2014-10-30T12:53:37Z</time>
      </trkpt>
      <trkpt lat="44.52525" lon="4.80695">
        <ele>297</ele>
        <time>2014-10-30T12:54:02Z</time>
      </trkpt>
      <trkpt lat="44.52526" lon="4.80694">
        <ele>297</ele>
        <time>2014-10-30T12:54:28Z</time>
      </trkpt>
      <trkpt lat="44.52527" lon="4.80693">
        <ele>297</ele>
        <time>2014-10-30T12:54:51Z</time>
      </trkpt>
      <trkpt lat="44.52526" lon="4.80692">
        <ele>297</ele>
        <time>2014-10-30T12:55:24Z</time>
      </trkpt>
      <trkpt lat="44.52526" lon="4.80692">
        <ele>297</ele>
        <time>2014-10-30T12:55:52Z</time>
      </trkpt>
      <trkpt lat="44.52525" lon="4.80693">
        <ele>297</ele>
        <time>2014-10-30T12:56:22Z</time>
      </trkpt>
      <trkpt lat="44.52524" lon="4.80689">
        <ele>297</ele>
        <time>2014-10-30T12:56:42Z</time>
      </trkpt>
      <trkpt lat="44.52502" lon="4.80648">
        <ele>297</ele>
        <time>2014-10-30T12:56:57Z</time>
      </trkpt>
      <trkpt lat="44.52477" lon="4.80598">
        <ele>295</ele>
        <time>2014-10-30T12:57:12Z</time>
      </trkpt>
      <trkpt lat="44.5247" lon="4.80576">
        <ele>296</ele>
        <time>2014-10-30T12:57:18Z</time>
      </trkpt>
      <trkpt lat="44.5248" lon="4.80568">
        <ele>297</ele>
        <time>2014-10-30T12:57:22Z</time>
      </trkpt>
      <trkpt lat="44.52523" lon="4.80553">
        <ele>298</ele>
        <time>2014-10-30T12:57:35Z</time>
      </trkpt>
      <trkpt lat="44.52563" lon="4.80541">
        <ele>296</ele>
        <time>2014-10-30T12:57:46Z</time>
      </trkpt>
      <trkpt lat="44.52567" lon="4.80541">
        <ele>296</ele>
        <time>2014-10-30T12:57:47Z</time>
      </trkpt>
      <trkpt lat="44.52611" lon="4.8053">
        <ele>294</ele>
        <time>2014-10-30T12:57:58Z</time>
      </trkpt>
      <trkpt lat="44.52613" lon="4.80526">
        <ele>294</ele>
        <time>2014-10-30T12:57:59Z</time>
      </trkpt>
      <trkpt lat="44.52612" lon="4.80521">
        <ele>294</ele>
        <time>2014-10-30T12:58:00Z</time>
      </trkpt>
      <trkpt lat="44.52611" lon="4.80517">
        <ele>294</ele>
        <time>2014-10-30T12:58:01Z</time>
      </trkpt>
      <trkpt lat="44.52609" lon="4.80511">
        <ele>293</ele>
        <time>2014-10-30T12:58:02Z</time>
      </trkpt>
      <trkpt lat="44.52608" lon="4.80505">
        <ele>293</ele>
        <time>2014-10-30T12:58:03Z</time>
      </trkpt>
      <trkpt lat="44.52607" lon="4.80498">
        <ele>293</ele>
        <time>2014-10-30T12:58:04Z</time>
      </trkpt>
      <trkpt lat="44.52605" lon="4.80482">
        <ele>292</ele>
        <time>2014-10-30T12:58:06Z</time>
      </trkpt>
      <trkpt lat="44.52603" lon="4.80474">
        <ele>292</ele>
        <time>2014-10-30T12:58:07Z</time>
      </trkpt>
      <trkpt lat="44.526" lon="4.80458">
        <ele>291</ele>
        <time>2014-10-30T12:58:09Z</time>
      </trkpt>
      <trkpt lat="44.52599" lon="4.80451">
        <ele>291</ele>
        <time>2014-10-30T12:58:10Z</time>
      </trkpt>
      <trkpt lat="44.52594" lon="4.80414">
        <ele>290</ele>
        <time>2014-10-30T12:58:16Z</time>
      </trkpt>
      <trkpt lat="44.52591" lon="4.80401">
        <ele>288</ele>
        <time>2014-10-30T12:58:18Z</time>
      </trkpt>
      <trkpt lat="44.52587" lon="4.80387">
        <ele>287</ele>
        <time>2014-10-30T12:58:20Z</time>
      </trkpt>
      <trkpt lat="44.52583" lon="4.80382">
        <ele>286</ele>
        <time>2014-10-30T12:58:21Z</time>
      </trkpt>
      <trkpt lat="44.52568" lon="4.80366">
        <ele>286</ele>
        <time>2014-10-30T12:58:25Z</time>
      </trkpt>
      <trkpt lat="44.52565" lon="4.80361">
        <ele>285</ele>
        <time>2014-10-30T12:58:26Z</time>
      </trkpt>
      <trkpt lat="44.52562" lon="4.80355">
        <ele>285</ele>
        <time>2014-10-30T12:58:27Z</time>
      </trkpt>
      <trkpt lat="44.52556" lon="4.80345">
        <ele>285</ele>
        <time>2014-10-30T12:58:29Z</time>
      </trkpt>
      <trkpt lat="44.52553" lon="4.80339">
        <ele>284</ele>
        <time>2014-10-30T12:58:30Z</time>
      </trkpt>
      <trkpt lat="44.52549" lon="4.80333">
        <ele>282</ele>
        <time>2014-10-30T12:58:31Z</time>
      </trkpt>
      <trkpt lat="44.52537" lon="4.80318">
        <ele>278</ele>
        <time>2014-10-30T12:58:34Z</time>
      </trkpt>
      <trkpt lat="44.52527" lon="4.80308">
        <ele>276</ele>
        <time>2014-10-30T12:58:36Z</time>
      </trkpt>
      <trkpt lat="44.52523" lon="4.80302">
        <ele>274</ele>
        <time>2014-10-30T12:58:37Z</time>
      </trkpt>
      <trkpt lat="44.52518" lon="4.80298">
        <ele>274</ele>
        <time>2014-10-30T12:58:38Z</time>
      </trkpt>
      <trkpt lat="44.52498" lon="4.80285">
        <ele>271</ele>
        <time>2014-10-30T12:58:42Z</time>
      </trkpt>
      <trkpt lat="44.52494" lon="4.80283">
        <ele>271</ele>
        <time>2014-10-30T12:58:43Z</time>
      </trkpt>
      <trkpt lat="44.52491" lon="4.80281">
        <ele>271</ele>
        <time>2014-10-30T12:58:44Z</time>
      </trkpt>
      <trkpt lat="44.52489" lon="4.80279">
        <ele>270</ele>
        <time>2014-10-30T12:58:55Z</time>
      </trkpt>
      <trkpt lat="44.52489" lon="4.8028">
        <ele>270</ele>
        <time>2014-10-30T12:59:23Z</time>
      </trkpt>
      <trkpt lat="44.52488" lon="4.80279">
        <ele>270</ele>
        <time>2014-10-30T12:59:49Z</time>
      </trkpt>
      <trkpt lat="44.52487" lon="4.80279">
        <ele>270</ele>
        <time>2014-10-30T12:59:52Z</time>
      </trkpt>
      <trkpt lat="44.52485" lon="4.80278">
        <ele>270</ele>
        <time>2014-10-30T12:59:53Z</time>
      </trkpt>
      <trkpt lat="44.52463" lon="4.80269">
        <ele>268</ele>
        <time>2014-10-30T13:00:00Z</time>
      </trkpt>
      <trkpt lat="44.52459" lon="4.80267">
        <ele>267</ele>
        <time>2014-10-30T13:00:01Z</time>
      </trkpt>
      <trkpt lat="44.52454" lon="4.80265">
        <ele>267</ele>
        <time>2014-10-30T13:00:02Z</time>
      </trkpt>
      <trkpt lat="44.5245" lon="4.80262">
        <ele>266</ele>
        <time>2014-10-30T13:00:03Z</time>
      </trkpt>
      <trkpt lat="44.52445" lon="4.80259">
        <ele>266</ele>
        <time>2014-10-30T13:00:04Z</time>
      </trkpt>
      <trkpt lat="44.52439" lon="4.80257">
        <ele>265</ele>
        <time>2014-10-30T13:00:05Z</time>
      </trkpt>
      <trkpt lat="44.52434" lon="4.80255">
        <ele>265</ele>
        <time>2014-10-30T13:00:06Z</time>
      </trkpt>
      <trkpt lat="44.52429" lon="4.80253">
        <ele>264</ele>
        <time>2014-10-30T13:00:07Z</time>
      </trkpt>
      <trkpt lat="44.52418" lon="4.8025">
        <ele>264</ele>
        <time>2014-10-30T13:00:09Z</time>
      </trkpt>
      <trkpt lat="44.52346" lon="4.80243">
        <ele>261</ele>
        <time>2014-10-30T13:00:23Z</time>
      </trkpt>
      <trkpt lat="44.52323" lon="4.80242">
        <ele>260</ele>
        <time>2014-10-30T13:00:27Z</time>
      </trkpt>
      <trkpt lat="44.52298" lon="4.80246">
        <ele>260</ele>
        <time>2014-10-30T13:00:32Z</time>
      </trkpt>
      <trkpt lat="44.52293" lon="4.80246">
        <ele>260</ele>
        <time>2014-10-30T13:00:33Z</time>
      </trkpt>
      <trkpt lat="44.52279" lon="4.80251">
        <ele>259</ele>
        <time>2014-10-30T13:00:36Z</time>
      </trkpt>
      <trkpt lat="44.52256" lon="4.80278">
        <ele>259</ele>
        <time>2014-10-30T13:00:45Z</time>
      </trkpt>
      <trkpt lat="44.5225" lon="4.80316">
        <ele>260</ele>
        <time>2014-10-30T13:00:52Z</time>
      </trkpt>
      <trkpt lat="44.52247" lon="4.80321">
        <ele>260</ele>
        <time>2014-10-30T13:00:53Z</time>
      </trkpt>
      <trkpt lat="44.52243" lon="4.80325">
        <ele>259</ele>
        <time>2014-10-30T13:00:54Z</time>
      </trkpt>
      <trkpt lat="44.52239" lon="4.80329">
        <ele>258</ele>
        <time>2014-10-30T13:00:55Z</time>
      </trkpt>
      <trkpt lat="44.52234" lon="4.80333">
        <ele>257</ele>
        <time>2014-10-30T13:00:56Z</time>
      </trkpt>
      <trkpt lat="44.5223" lon="4.80336">
        <ele>256</ele>
        <time>2014-10-30T13:00:57Z</time>
      </trkpt>
      <trkpt lat="44.5222" lon="4.80344">
        <ele>255</ele>
        <time>2014-10-30T13:00:59Z</time>
      </trkpt>
      <trkpt lat="44.52215" lon="4.80349">
        <ele>255</ele>
        <time>2014-10-30T13:01:00Z</time>
      </trkpt>
      <trkpt lat="44.52211" lon="4.80354">
        <ele>255</ele>
        <time>2014-10-30T13:01:01Z</time>
      </trkpt>
      <trkpt lat="44.52207" lon="4.8036">
        <ele>255</ele>
        <time>2014-10-30T13:01:02Z</time>
      </trkpt>
      <trkpt lat="44.52204" lon="4.80367">
        <ele>255</ele>
        <time>2014-10-30T13:01:03Z</time>
      </trkpt>
      <trkpt lat="44.52203" lon="4.80373">
        <ele>256</ele>
        <time>2014-10-30T13:01:04Z</time>
      </trkpt>
      <trkpt lat="44.52202" lon="4.80379">
        <ele>256</ele>
        <time>2014-10-30T13:01:05Z</time>
      </trkpt>
      <trkpt lat="44.52201" lon="4.80384">
        <ele>257</ele>
        <time>2014-10-30T13:01:06Z</time>
      </trkpt>
      <trkpt lat="44.52202" lon="4.8039">
        <ele>258</ele>
        <time>2014-10-30T13:01:07Z</time>
      </trkpt>
      <trkpt lat="44.52202" lon="4.80394">
        <ele>258</ele>
        <time>2014-10-30T13:01:08Z</time>
      </trkpt>
      <trkpt lat="44.52203" lon="4.80399">
        <ele>257</ele>
        <time>2014-10-30T13:01:18Z</time>
      </trkpt>
      <trkpt lat="44.52203" lon="4.80399">
        <ele>257</ele>
        <time>2014-10-30T13:01:37Z</time>
      </trkpt>
      <trkpt lat="44.52202" lon="4.804">
        <ele>257</ele>
        <time>2014-10-30T13:02:03Z</time>
      </trkpt>
      <trkpt lat="44.52202" lon="4.804">
        <ele>257</ele>
        <time>2014-10-30T13:02:29Z</time>
      </trkpt>
      <trkpt lat="44.52219" lon="4.80436">
        <ele>259</ele>
        <time>2014-10-30T13:02:43Z</time>
      </trkpt>
      <trkpt lat="44.52242" lon="4.80473">
        <ele>260</ele>
        <time>2014-10-30T13:02:54Z</time>
      </trkpt>
      <trkpt lat="44.52284" lon="4.80507">
        <ele>261</ele>
        <time>2014-10-30T13:03:08Z</time>
      </trkpt>
      <trkpt lat="44.52329" lon="4.80523">
        <ele>267</ele>
        <time>2014-10-30T13:03:22Z</time>
      </trkpt>
      <trkpt lat="44.52341" lon="4.80536">
        <ele>267</ele>
        <time>2014-10-30T13:03:27Z</time>
      </trkpt>
      <trkpt lat="44.52337" lon="4.80578">
        <ele>259</ele>
        <time>2014-10-30T13:03:38Z</time>
      </trkpt>
      <trkpt lat="44.52325" lon="4.80633">
        <ele>255</ele>
        <time>2014-10-30T13:03:51Z</time>
      </trkpt>
      <trkpt lat="44.52323" lon="4.80645">
        <ele>255</ele>
        <time>2014-10-30T13:04:02Z</time>
      </trkpt>
      <trkpt lat="44.52324" lon="4.80651">
        <ele>255</ele>
        <time>2014-10-30T13:04:07Z</time>
      </trkpt>
      <trkpt lat="44.52324" lon="4.80653">
        <ele>255</ele>
        <time>2014-10-30T13:04:08Z</time>
      </trkpt>
      <trkpt lat="44.52325" lon="4.80655">
        <ele>255</ele>
        <time>2014-10-30T13:04:10Z</time>
      </trkpt>
      <trkpt lat="44.52326" lon="4.80656">
        <ele>256</ele>
        <time>2014-10-30T13:04:11Z</time>
      </trkpt>
      <trkpt lat="44.52327" lon="4.80663">
        <ele>255</ele>
        <time>2014-10-30T13:04:22Z</time>
      </trkpt>
      <trkpt lat="44.52326" lon="4.80673">
        <ele>254</ele>
        <time>2014-10-30T13:04:32Z</time>
      </trkpt>
      <trkpt lat="44.52325" lon="4.80676">
        <ele>254</ele>
        <time>2014-10-30T13:04:34Z</time>
      </trkpt>
      <trkpt lat="44.52324" lon="4.80681">
        <ele>253</ele>
        <time>2014-10-30T13:04:45Z</time>
      </trkpt>
      <trkpt lat="44.52324" lon="4.80692">
        <ele>252</ele>
        <time>2014-10-30T13:04:56Z</time>
      </trkpt>
      <trkpt lat="44.52321" lon="4.80699">
        <ele>250</ele>
        <time>2014-10-30T13:05:07Z</time>
      </trkpt>
      <trkpt lat="44.5232" lon="4.80699">
        <ele>250</ele>
        <time>2014-10-30T13:05:21Z</time>
      </trkpt>
      <trkpt lat="44.52314" lon="4.80699">
        <ele>248</ele>
        <time>2014-10-30T13:05:34Z</time>
      </trkpt>
      <trkpt lat="44.52307" lon="4.80701">
        <ele>246</ele>
        <time>2014-10-30T13:05:42Z</time>
      </trkpt>
      <trkpt lat="44.52306" lon="4.807">
        <ele>245</ele>
        <time>2014-10-30T13:05:43Z</time>
      </trkpt>
      <trkpt lat="44.523" lon="4.80701">
        <ele>243</ele>
        <time>2014-10-30T13:05:54Z</time>
      </trkpt>
      <trkpt lat="44.52303" lon="4.80714">
        <ele>244</ele>
        <time>2014-10-30T13:06:07Z</time>
      </trkpt>
      <trkpt lat="44.52299" lon="4.80725">
        <ele>242</ele>
        <time>2014-10-30T13:06:19Z</time>
      </trkpt>
      <trkpt lat="44.52296" lon="4.80727">
        <ele>242</ele>
        <time>2014-10-30T13:06:22Z</time>
      </trkpt>
      <trkpt lat="44.52292" lon="4.80726">
        <ele>240</ele>
        <time>2014-10-30T13:06:33Z</time>
      </trkpt>
      <trkpt lat="44.52289" lon="4.80724">
        <ele>239</ele>
        <time>2014-10-30T13:06:40Z</time>
      </trkpt>
      <trkpt lat="44.52288" lon="4.80724">
        <ele>239</ele>
        <time>2014-10-30T13:06:41Z</time>
      </trkpt>
      <trkpt lat="44.52287" lon="4.80724">
        <ele>238</ele>
        <time>2014-10-30T13:06:42Z</time>
      </trkpt>
      <trkpt lat="44.52285" lon="4.80723">
        <ele>238</ele>
        <time>2014-10-30T13:06:43Z</time>
      </trkpt>
      <trkpt lat="44.52284" lon="4.80722">
        <ele>237</ele>
        <time>2014-10-30T13:06:44Z</time>
      </trkpt>
      <trkpt lat="44.5228" lon="4.80725">
        <ele>237</ele>
        <time>2014-10-30T13:06:55Z</time>
      </trkpt>
      <trkpt lat="44.52283" lon="4.80727">
        <ele>237</ele>
        <time>2014-10-30T13:07:09Z</time>
      </trkpt>
      <trkpt lat="44.52284" lon="4.80731">
        <ele>238</ele>
        <time>2014-10-30T13:07:12Z</time>
      </trkpt>
      <trkpt lat="44.52277" lon="4.80734">
        <ele>236</ele>
        <time>2014-10-30T13:07:17Z</time>
      </trkpt>
      <trkpt lat="44.52266" lon="4.80735">
        <ele>233</ele>
        <time>2014-10-30T13:07:24Z</time>
      </trkpt>
      <trkpt lat="44.52262" lon="4.80735">
        <ele>232</ele>
        <time>2014-10-30T13:07:26Z</time>
      </trkpt>
      <trkpt lat="44.52247" lon="4.80729">
        <ele>228</ele>
        <time>2014-10-30T13:07:33Z</time>
      </trkpt>
      <trkpt lat="44.52239" lon="4.80725">
        <ele>225</ele>
        <time>2014-10-30T13:07:36Z</time>
      </trkpt>
      <trkpt lat="44.52227" lon="4.80715">
        <ele>221</ele>
        <time>2014-10-30T13:07:40Z</time>
      </trkpt>
      <trkpt lat="44.52224" lon="4.80712">
        <ele>220</ele>
        <time>2014-10-30T13:07:41Z</time>
      </trkpt>
      <trkpt lat="44.52207" lon="4.80707">
        <ele>215</ele>
        <time>2014-10-30T13:07:47Z</time>
      </trkpt>
      <trkpt lat="44.52199" lon="4.80703">
        <ele>214</ele>
        <time>2014-10-30T13:07:50Z</time>
      </trkpt>
      <trkpt lat="44.52188" lon="4.80705">
        <ele>211</ele>
        <time>2014-10-30T13:07:58Z</time>
      </trkpt>
      <trkpt lat="44.5216" lon="4.80718">
        <ele>208</ele>
        <time>2014-10-30T13:08:10Z</time>
      </trkpt>
      <trkpt lat="44.52126" lon="4.80733">
        <ele>206</ele>
        <time>2014-10-30T13:08:19Z</time>
      </trkpt>
      <trkpt lat="44.52104" lon="4.80742">
        <ele>204</ele>
        <time>2014-10-30T13:08:28Z</time>
      </trkpt>
      <trkpt lat="44.52086" lon="4.80752">
        <ele>202</ele>
        <time>2014-10-30T13:08:35Z</time>
      </trkpt>
      <trkpt lat="44.52081" lon="4.80755">
        <ele>201</ele>
        <time>2014-10-30T13:08:37Z</time>
      </trkpt>
      <trkpt lat="44.52078" lon="4.80756">
        <ele>201</ele>
        <time>2014-10-30T13:08:38Z</time>
      </trkpt>
      <trkpt lat="44.52075" lon="4.80757">
        <ele>200</ele>
        <time>2014-10-30T13:08:39Z</time>
      </trkpt>
      <trkpt lat="44.52072" lon="4.80758">
        <ele>199</ele>
        <time>2014-10-30T13:08:40Z</time>
      </trkpt>
      <trkpt lat="44.52068" lon="4.8076">
        <ele>199</ele>
        <time>2014-10-30T13:08:41Z</time>
      </trkpt>
      <trkpt lat="44.52065" lon="4.80762">
        <ele>198</ele>
        <time>2014-10-30T13:08:42Z</time>
      </trkpt>
      <trkpt lat="44.52062" lon="4.80764">
        <ele>197</ele>
        <time>2014-10-30T13:08:43Z</time>
      </trkpt>
      <trkpt lat="44.52059" lon="4.80765">
        <ele>196</ele>
        <time>2014-10-30T13:08:44Z</time>
      </trkpt>
      <trkpt lat="44.52054" lon="4.80764">
        <ele>195</ele>
        <time>2014-10-30T13:08:45Z</time>
      </trkpt>
      <trkpt lat="44.52049" lon="4.80763">
        <ele>194</ele>
        <time>2014-10-30T13:08:46Z</time>
      </trkpt>
      <trkpt lat="44.52045" lon="4.8076">
        <ele>194</ele>
        <time>2014-10-30T13:08:47Z</time>
      </trkpt>
      <trkpt lat="44.52041" lon="4.80757">
        <ele>193</ele>
        <time>2014-10-30T13:08:48Z</time>
      </trkpt>
      <trkpt lat="44.52039" lon="4.80754">
        <ele>193</ele>
        <time>2014-10-30T13:08:49Z</time>
      </trkpt>
      <trkpt lat="44.52039" lon="4.80752">
        <ele>193</ele>
        <time>2014-10-30T13:08:50Z</time>
      </trkpt>
      <trkpt lat="44.52038" lon="4.8075">
        <ele>193</ele>
        <time>2014-10-30T13:08:51Z</time>
      </trkpt>
      <trkpt lat="44.52037" lon="4.80749">
        <ele>193</ele>
        <time>2014-10-30T13:08:52Z</time>
      </trkpt>
      <trkpt lat="44.52036" lon="4.80749">
        <ele>193</ele>
        <time>2014-10-30T13:09:03Z</time>
      </trkpt>
      <trkpt lat="44.52035" lon="4.80752">
        <ele>193</ele>
        <time>2014-10-30T13:09:26Z</time>
      </trkpt>
      <trkpt lat="44.52033" lon="4.80754">
        <ele>192</ele>
        <time>2014-10-30T13:09:27Z</time>
      </trkpt>
      <trkpt lat="44.52008" lon="4.80774">
        <ele>188</ele>
        <time>2014-10-30T13:09:38Z</time>
      </trkpt>
      <trkpt lat="44.51994" lon="4.80789">
        <ele>186</ele>
        <time>2014-10-30T13:09:44Z</time>
      </trkpt>
      <trkpt lat="44.51972" lon="4.80824">
        <ele>182</ele>
        <time>2014-10-30T13:09:54Z</time>
      </trkpt>
      <trkpt lat="44.51969" lon="4.80837">
        <ele>181</ele>
        <time>2014-10-30T13:09:56Z</time>
      </trkpt>
      <trkpt lat="44.51958" lon="4.8087">
        <ele>178</ele>
        <time>2014-10-30T13:10:04Z</time>
      </trkpt>
      <trkpt lat="44.51944" lon="4.80884">
        <ele>177</ele>
        <time>2014-10-30T13:10:09Z</time>
      </trkpt>
      <trkpt lat="44.5194" lon="4.80887">
        <ele>176</ele>
        <time>2014-10-30T13:10:10Z</time>
      </trkpt>
      <trkpt lat="44.51936" lon="4.80891">
        <ele>176</ele>
        <time>2014-10-30T13:10:11Z</time>
      </trkpt>
      <trkpt lat="44.51931" lon="4.80894">
        <ele>176</ele>
        <time>2014-10-30T13:10:12Z</time>
      </trkpt>
      <trkpt lat="44.51927" lon="4.80899">
        <ele>175</ele>
        <time>2014-10-30T13:10:13Z</time>
      </trkpt>
      <trkpt lat="44.51902" lon="4.80921">
        <ele>173</ele>
        <time>2014-10-30T13:10:18Z</time>
      </trkpt>
      <trkpt lat="44.51861" lon="4.80955">
        <ele>168</ele>
        <time>2014-10-30T13:10:25Z</time>
      </trkpt>
      <trkpt lat="44.5181" lon="4.80994">
        <ele>166</ele>
        <time>2014-10-30T13:10:36Z</time>
      </trkpt>
      <trkpt lat="44.51803" lon="4.80998">
        <ele>165</ele>
        <time>2014-10-30T13:10:38Z</time>
      </trkpt>
      <trkpt lat="44.51792" lon="4.81006">
        <ele>164</ele>
        <time>2014-10-30T13:10:41Z</time>
      </trkpt>
      <trkpt lat="44.51788" lon="4.81009">
        <ele>164</ele>
        <time>2014-10-30T13:10:42Z</time>
      </trkpt>
      <trkpt lat="44.51779" lon="4.81016">
        <ele>163</ele>
        <time>2014-10-30T13:10:44Z</time>
      </trkpt>
      <trkpt lat="44.51775" lon="4.8102">
        <ele>163</ele>
        <time>2014-10-30T13:10:45Z</time>
      </trkpt>
      <trkpt lat="44.51767" lon="4.81028">
        <ele>162</ele>
        <time>2014-10-30T13:10:47Z</time>
      </trkpt>
      <trkpt lat="44.51751" lon="4.81041">
        <ele>161</ele>
        <time>2014-10-30T13:10:50Z</time>
      </trkpt>
      <trkpt lat="44.51734" lon="4.81055">
        <ele>160</ele>
        <time>2014-10-30T13:10:53Z</time>
      </trkpt>
      <trkpt lat="44.5168" lon="4.81097">
        <ele>157</ele>
        <time>2014-10-30T13:11:02Z</time>
      </trkpt>
      <trkpt lat="44.5167" lon="4.81105">
        <ele>156</ele>
        <time>2014-10-30T13:11:04Z</time>
      </trkpt>
      <trkpt lat="44.51635" lon="4.81135">
        <ele>155</ele>
        <time>2014-10-30T13:11:11Z</time>
      </trkpt>
      <trkpt lat="44.51615" lon="4.8116">
        <ele>155</ele>
        <time>2014-10-30T13:11:16Z</time>
      </trkpt>
      <trkpt lat="44.51613" lon="4.81166">
        <ele>155</ele>
        <time>2014-10-30T13:11:17Z</time>
      </trkpt>
      <trkpt lat="44.51612" lon="4.81172">
        <ele>155</ele>
        <time>2014-10-30T13:11:18Z</time>
      </trkpt>
      <trkpt lat="44.51612" lon="4.81178">
        <ele>155</ele>
        <time>2014-10-30T13:11:19Z</time>
      </trkpt>
      <trkpt lat="44.51612" lon="4.81184">
        <ele>155</ele>
        <time>2014-10-30T13:11:20Z</time>
      </trkpt>
      <trkpt lat="44.51613" lon="4.81189">
        <ele>155</ele>
        <time>2014-10-30T13:11:21Z</time>
      </trkpt>
      <trkpt lat="44.51614" lon="4.81194">
        <ele>155</ele>
        <time>2014-10-30T13:11:22Z</time>
      </trkpt>
      <trkpt lat="44.51624" lon="4.81231">
        <ele>155</ele>
        <time>2014-10-30T13:11:28Z</time>
      </trkpt>
      <trkpt lat="44.51624" lon="4.81238">
        <ele>155</ele>
        <time>2014-10-30T13:11:29Z</time>
      </trkpt>
      <trkpt lat="44.51625" lon="4.81286">
        <ele>155</ele>
        <time>2014-10-30T13:11:36Z</time>
      </trkpt>
      <trkpt lat="44.51624" lon="4.81293">
        <ele>155</ele>
        <time>2014-10-30T13:11:37Z</time>
      </trkpt>
      <trkpt lat="44.51622" lon="4.81305">
        <ele>155</ele>
        <time>2014-10-30T13:11:39Z</time>
      </trkpt>
      <trkpt lat="44.51621" lon="4.8131">
        <ele>155</ele>
        <time>2014-10-30T13:11:40Z</time>
      </trkpt>
      <trkpt lat="44.51612" lon="4.81356">
        <ele>157</ele>
        <time>2014-10-30T13:11:48Z</time>
      </trkpt>
      <trkpt lat="44.51611" lon="4.81362">
        <ele>157</ele>
        <time>2014-10-30T13:11:49Z</time>
      </trkpt>
      <trkpt lat="44.51591" lon="4.81437">
        <ele>159</ele>
        <time>2014-10-30T13:12:03Z</time>
      </trkpt>
      <trkpt lat="44.51589" lon="4.81443">
        <ele>159</ele>
        <time>2014-10-30T13:12:04Z</time>
      </trkpt>
      <trkpt lat="44.51565" lon="4.81522">
        <ele>160</ele>
        <time>2014-10-30T13:12:18Z</time>
      </trkpt>
      <trkpt lat="44.51562" lon="4.81527">
        <ele>160</ele>
        <time>2014-10-30T13:12:19Z</time>
      </trkpt>
      <trkpt lat="44.51559" lon="4.81532">
        <ele>160</ele>
        <time>2014-10-30T13:12:20Z</time>
      </trkpt>
      <trkpt lat="44.51556" lon="4.81536">
        <ele>160</ele>
        <time>2014-10-30T13:12:21Z</time>
      </trkpt>
      <trkpt lat="44.51552" lon="4.81539">
        <ele>160</ele>
        <time>2014-10-30T13:12:22Z</time>
      </trkpt>
      <trkpt lat="44.51547" lon="4.81541">
        <ele>160</ele>
        <time>2014-10-30T13:12:23Z</time>
      </trkpt>
      <trkpt lat="44.51543" lon="4.81543">
        <ele>161</ele>
        <time>2014-10-30T13:12:24Z</time>
      </trkpt>
      <trkpt lat="44.51539" lon="4.81544">
        <ele>161</ele>
        <time>2014-10-30T13:12:25Z</time>
      </trkpt>
      <trkpt lat="44.51526" lon="4.8155">
        <ele>161</ele>
        <time>2014-10-30T13:12:28Z</time>
      </trkpt>
      <trkpt lat="44.51522" lon="4.81553">
        <ele>162</ele>
        <time>2014-10-30T13:12:29Z</time>
      </trkpt>
      <trkpt lat="44.51518" lon="4.81557">
        <ele>162</ele>
        <time>2014-10-30T13:12:30Z</time>
      </trkpt>
      <trkpt lat="44.51516" lon="4.81562">
        <ele>162</ele>
        <time>2014-10-30T13:12:31Z</time>
      </trkpt>
      <trkpt lat="44.51513" lon="4.81567">
        <ele>162</ele>
        <time>2014-10-30T13:12:32Z</time>
      </trkpt>
      <trkpt lat="44.51511" lon="4.81572">
        <ele>162</ele>
        <time>2014-10-30T13:12:33Z</time>
      </trkpt>
      <trkpt lat="44.51509" lon="4.81578">
        <ele>162</ele>
        <time>2014-10-30T13:12:34Z</time>
      </trkpt>
      <trkpt lat="44.51507" lon="4.81583">
        <ele>162</ele>
        <time>2014-10-30T13:12:35Z</time>
      </trkpt>
      <trkpt lat="44.51504" lon="4.81588">
        <ele>162</ele>
        <time>2014-10-30T13:12:36Z</time>
      </trkpt>
      <trkpt lat="44.515" lon="4.81592">
        <ele>162</ele>
        <time>2014-10-30T13:12:37Z</time>
      </trkpt>
      <trkpt lat="44.51497" lon="4.81594">
        <ele>162</ele>
        <time>2014-10-30T13:12:38Z</time>
      </trkpt>
      <trkpt lat="44.51493" lon="4.81595">
        <ele>162</ele>
        <time>2014-10-30T13:12:39Z</time>
      </trkpt>
      <trkpt lat="44.51489" lon="4.81596">
        <ele>162</ele>
        <time>2014-10-30T13:12:40Z</time>
      </trkpt>
      <trkpt lat="44.51485" lon="4.81596">
        <ele>163</ele>
        <time>2014-10-30T13:12:41Z</time>
      </trkpt>
      <trkpt lat="44.51421" lon="4.81595">
        <ele>166</ele>
        <time>2014-10-30T13:12:58Z</time>
      </trkpt>
      <trkpt lat="44.51366" lon="4.81601">
        <ele>170</ele>
        <time>2014-10-30T13:13:15Z</time>
      </trkpt>
      <trkpt lat="44.51363" lon="4.81606">
        <ele>170</ele>
        <time>2014-10-30T13:13:17Z</time>
      </trkpt>
      <trkpt lat="44.51364" lon="4.81609">
        <ele>170</ele>
        <time>2014-10-30T13:13:18Z</time>
      </trkpt>
      <trkpt lat="44.51365" lon="4.81612">
        <ele>170</ele>
        <time>2014-10-30T13:13:19Z</time>
      </trkpt>
      <trkpt lat="44.51366" lon="4.81616">
        <ele>170</ele>
        <time>2014-10-30T13:13:20Z</time>
      </trkpt>
      <trkpt lat="44.51367" lon="4.8162">
        <ele>170</ele>
        <time>2014-10-30T13:13:21Z</time>
      </trkpt>
      <trkpt lat="44.51396" lon="4.81704">
        <ele>170</ele>
        <time>2014-10-30T13:13:38Z</time>
      </trkpt>
      <trkpt lat="44.51409" lon="4.81742">
        <ele>169</ele>
        <time>2014-10-30T13:13:45Z</time>
      </trkpt>
      <trkpt lat="44.51411" lon="4.81748">
        <ele>169</ele>
        <time>2014-10-30T13:13:46Z</time>
      </trkpt>
      <trkpt lat="44.51412" lon="4.81754">
        <ele>169</ele>
        <time>2014-10-30T13:13:47Z</time>
      </trkpt>
      <trkpt lat="44.51412" lon="4.8176">
        <ele>169</ele>
        <time>2014-10-30T13:13:48Z</time>
      </trkpt>
      <trkpt lat="44.5141" lon="4.81766">
        <ele>170</ele>
        <time>2014-10-30T13:13:49Z</time>
      </trkpt>
      <trkpt lat="44.51407" lon="4.8177">
        <ele>170</ele>
        <time>2014-10-30T13:13:50Z</time>
      </trkpt>
      <trkpt lat="44.51403" lon="4.81772">
        <ele>170</ele>
        <time>2014-10-30T13:13:51Z</time>
      </trkpt>
      <trkpt lat="44.51399" lon="4.81773">
        <ele>170</ele>
        <time>2014-10-30T13:13:52Z</time>
      </trkpt>
      <trkpt lat="44.51395" lon="4.81772">
        <ele>171</ele>
        <time>2014-10-30T13:13:53Z</time>
      </trkpt>
      <trkpt lat="44.5139" lon="4.8177">
        <ele>171</ele>
        <time>2014-10-30T13:13:54Z</time>
      </trkpt>
      <trkpt lat="44.51387" lon="4.81767">
        <ele>171</ele>
        <time>2014-10-30T13:13:55Z</time>
      </trkpt>
      <trkpt lat="44.51383" lon="4.81764">
        <ele>171</ele>
        <time>2014-10-30T13:13:56Z</time>
      </trkpt>
      <trkpt lat="44.51344" lon="4.81743">
        <ele>174</ele>
        <time>2014-10-30T13:14:08Z</time>
      </trkpt>
      <trkpt lat="44.51341" lon="4.81744">
        <ele>175</ele>
        <time>2014-10-30T13:14:09Z</time>
      </trkpt>
      <trkpt lat="44.51338" lon="4.81747">
        <ele>175</ele>
        <time>2014-10-30T13:14:10Z</time>
      </trkpt>
      <trkpt lat="44.51336" lon="4.8175">
        <ele>175</ele>
        <time>2014-10-30T13:14:11Z</time>
      </trkpt>
      <trkpt lat="44.51335" lon="4.81754">
        <ele>175</ele>
        <time>2014-10-30T13:14:12Z</time>
      </trkpt>
      <trkpt lat="44.51334" lon="4.81758">
        <ele>175</ele>
        <time>2014-10-30T13:14:13Z</time>
      </trkpt>
      <trkpt lat="44.51323" lon="4.81824">
        <ele>176</ele>
        <time>2014-10-30T13:14:28Z</time>
      </trkpt>
      <trkpt lat="44.51316" lon="4.81882">
        <ele>176</ele>
        <time>2014-10-30T13:14:39Z</time>
      </trkpt>
      <trkpt lat="44.51318" lon="4.81907">
        <ele>176</ele>
        <time>2014-10-30T13:14:43Z</time>
      </trkpt>
      <trkpt lat="44.51322" lon="4.8192">
        <ele>175</ele>
        <time>2014-10-30T13:14:45Z</time>
      </trkpt>
      <trkpt lat="44.51324" lon="4.81927">
        <ele>175</ele>
        <time>2014-10-30T13:14:46Z</time>
      </trkpt>
      <trkpt lat="44.51348" lon="4.81991">
        <ele>174</ele>
        <time>2014-10-30T13:14:55Z</time>
      </trkpt>
      <trkpt lat="44.51349" lon="4.81999">
        <ele>174</ele>
        <time>2014-10-30T13:14:56Z</time>
      </trkpt>
      <trkpt lat="44.5135" lon="4.82006">
        <ele>173</ele>
        <time>2014-10-30T13:14:57Z</time>
      </trkpt>
      <trkpt lat="44.5135" lon="4.82021">
        <ele>173</ele>
        <time>2014-10-30T13:14:59Z</time>
      </trkpt>
      <trkpt lat="44.51358" lon="4.82066">
        <ele>172</ele>
        <time>2014-10-30T13:15:07Z</time>
      </trkpt>
      <trkpt lat="44.5137" lon="4.82087">
        <ele>172</ele>
        <time>2014-10-30T13:15:11Z</time>
      </trkpt>
      <trkpt lat="44.51372" lon="4.82093">
        <ele>172</ele>
        <time>2014-10-30T13:15:12Z</time>
      </trkpt>
      <trkpt lat="44.51374" lon="4.82099">
        <ele>172</ele>
        <time>2014-10-30T13:15:13Z</time>
      </trkpt>
      <trkpt lat="44.51398" lon="4.82205">
        <ele>171</ele>
        <time>2014-10-30T13:15:29Z</time>
      </trkpt>
      <trkpt lat="44.51399" lon="4.82212">
        <ele>171</ele>
        <time>2014-10-30T13:15:30Z</time>
      </trkpt>
      <trkpt lat="44.51406" lon="4.82259">
        <ele>171</ele>
        <time>2014-10-30T13:15:37Z</time>
      </trkpt>
      <trkpt lat="44.51408" lon="4.82265">
        <ele>171</ele>
        <time>2014-10-30T13:15:38Z</time>
      </trkpt>
      <trkpt lat="44.5141" lon="4.82271">
        <ele>171</ele>
        <time>2014-10-30T13:15:39Z</time>
      </trkpt>
      <trkpt lat="44.51419" lon="4.82292">
        <ele>170</ele>
        <time>2014-10-30T13:15:43Z</time>
      </trkpt>
      <trkpt lat="44.5142" lon="4.82298">
        <ele>170</ele>
        <time>2014-10-30T13:15:44Z</time>
      </trkpt>
      <trkpt lat="44.5142" lon="4.82304">
        <ele>170</ele>
        <time>2014-10-30T13:15:45Z</time>
      </trkpt>
      <trkpt lat="44.51418" lon="4.82311">
        <ele>170</ele>
        <time>2014-10-30T13:15:46Z</time>
      </trkpt>
      <trkpt lat="44.51415" lon="4.82316">
        <ele>171</ele>
        <time>2014-10-30T13:15:47Z</time>
      </trkpt>
      <trkpt lat="44.51412" lon="4.82321">
        <ele>171</ele>
        <time>2014-10-30T13:15:48Z</time>
      </trkpt>
      <trkpt lat="44.51372" lon="4.8238">
        <ele>173</ele>
        <time>2014-10-30T13:16:02Z</time>
      </trkpt>
      <trkpt lat="44.51349" lon="4.82433">
        <ele>175</ele>
        <time>2014-10-30T13:16:14Z</time>
      </trkpt>
      <trkpt lat="44.51335" lon="4.82489">
        <ele>176</ele>
        <time>2014-10-30T13:16:25Z</time>
      </trkpt>
      <trkpt lat="44.51334" lon="4.82495">
        <ele>176</ele>
        <time>2014-10-30T13:16:26Z</time>
      </trkpt>
      <trkpt lat="44.5132" lon="4.82582">
        <ele>178</ele>
        <time>2014-10-30T13:16:42Z</time>
      </trkpt>
      <trkpt lat="44.51312" lon="4.82634">
        <ele>179</ele>
        <time>2014-10-30T13:16:52Z</time>
      </trkpt>
      <trkpt lat="44.51311" lon="4.8264">
        <ele>179</ele>
        <time>2014-10-30T13:16:53Z</time>
      </trkpt>
      <trkpt lat="44.51287" lon="4.82705">
        <ele>180</ele>
        <time>2014-10-30T13:17:07Z</time>
      </trkpt>
      <trkpt lat="44.51255" lon="4.82769">
        <ele>182</ele>
        <time>2014-10-30T13:17:22Z</time>
      </trkpt>
      <trkpt lat="44.51244" lon="4.82836">
        <ele>183</ele>
        <time>2014-10-30T13:17:36Z</time>
      </trkpt>
      <trkpt lat="44.51215" lon="4.82862">
        <ele>185</ele>
        <time>2014-10-30T13:17:48Z</time>
      </trkpt>
      <trkpt lat="44.5118" lon="4.82856">
        <ele>187</ele>
        <time>2014-10-30T13:18:01Z</time>
      </trkpt>
      <trkpt lat="44.51137" lon="4.82858">
        <ele>189</ele>
        <time>2014-10-30T13:18:17Z</time>
      </trkpt>
      <trkpt lat="44.5111" lon="4.82874">
        <ele>192</ele>
        <time>2014-10-30T13:18:29Z</time>
      </trkpt>
      <trkpt lat="44.51079" lon="4.82891">
        <ele>196</ele>
        <time>2014-10-30T13:18:43Z</time>
      </trkpt>
      <trkpt lat="44.51052" lon="4.82901">
        <ele>199</ele>
        <time>2014-10-30T13:18:55Z</time>
      </trkpt>
      <trkpt lat="44.51043" lon="4.82903">
        <ele>199</ele>
        <time>2014-10-30T13:18:59Z</time>
      </trkpt>
      <trkpt lat="44.51041" lon="4.82904">
        <ele>200</ele>
        <time>2014-10-30T13:19:00Z</time>
      </trkpt>
      <trkpt lat="44.51039" lon="4.82904">
        <ele>200</ele>
        <time>2014-10-30T13:19:01Z</time>
      </trkpt>
      <trkpt lat="44.51038" lon="4.82904">
        <ele>200</ele>
        <time>2014-10-30T13:19:02Z</time>
      </trkpt>
      <trkpt lat="44.51035" lon="4.82903">
        <ele>200</ele>
        <time>2014-10-30T13:19:03Z</time>
      </trkpt>
      <trkpt lat="44.51033" lon="4.82902">
        <ele>200</ele>
        <time>2014-10-30T13:19:04Z</time>
      </trkpt>
      <trkpt lat="44.51031" lon="4.82901">
        <ele>200</ele>
        <time>2014-10-30T13:19:05Z</time>
      </trkpt>
      <trkpt lat="44.51028" lon="4.829">
        <ele>200</ele>
        <time>2014-10-30T13:19:06Z</time>
      </trkpt>
      <trkpt lat="44.51026" lon="4.82899">
        <ele>200</ele>
        <time>2014-10-30T13:19:07Z</time>
      </trkpt>
      <trkpt lat="44.51023" lon="4.82898">
        <ele>200</ele>
        <time>2014-10-30T13:19:08Z</time>
      </trkpt>
      <trkpt lat="44.51021" lon="4.82897">
        <ele>200</ele>
        <time>2014-10-30T13:19:09Z</time>
      </trkpt>
      <trkpt lat="44.51019" lon="4.82895">
        <ele>200</ele>
        <time>2014-10-30T13:19:10Z</time>
      </trkpt>
      <trkpt lat="44.51017" lon="4.82894">
        <ele>200</ele>
        <time>2014-10-30T13:19:11Z</time>
      </trkpt>
      <trkpt lat="44.50993" lon="4.82886">
        <ele>202</ele>
        <time>2014-10-30T13:19:23Z</time>
      </trkpt>
      <trkpt lat="44.50971" lon="4.82885">
        <ele>205</ele>
        <time>2014-10-30T13:19:33Z</time>
      </trkpt>
      <trkpt lat="44.50953" lon="4.82892">
        <ele>208</ele>
        <time>2014-10-30T13:19:42Z</time>
      </trkpt>
      <trkpt lat="44.50953" lon="4.82894">
        <ele>209</ele>
        <time>2014-10-30T13:19:43Z</time>
      </trkpt>
      <trkpt lat="44.50952" lon="4.82897">
        <ele>209</ele>
        <time>2014-10-30T13:19:44Z</time>
      </trkpt>
      <trkpt lat="44.50952" lon="4.829">
        <ele>209</ele>
        <time>2014-10-30T13:19:45Z</time>
      </trkpt>
      <trkpt lat="44.50952" lon="4.82904">
        <ele>210</ele>
        <time>2014-10-30T13:19:46Z</time>
      </trkpt>
      <trkpt lat="44.50953" lon="4.82906">
        <ele>210</ele>
        <time>2014-10-30T13:19:47Z</time>
      </trkpt>
      <trkpt lat="44.50952" lon="4.8291">
        <ele>210</ele>
        <time>2014-10-30T13:19:48Z</time>
      </trkpt>
      <trkpt lat="44.50952" lon="4.82912">
        <ele>210</ele>
        <time>2014-10-30T13:19:49Z</time>
      </trkpt>
      <trkpt lat="44.50952" lon="4.82914">
        <ele>210</ele>
        <time>2014-10-30T13:19:50Z</time>
      </trkpt>
      <trkpt lat="44.50953" lon="4.82916">
        <ele>210</ele>
        <time>2014-10-30T13:19:51Z</time>
      </trkpt>
      <trkpt lat="44.5095" lon="4.82925">
        <ele>211</ele>
        <time>2014-10-30T13:19:56Z</time>
      </trkpt>
      <trkpt lat="44.5095" lon="4.82926">
        <ele>212</ele>
        <time>2014-10-30T13:19:57Z</time>
      </trkpt>
      <trkpt lat="44.50949" lon="4.82928">
        <ele>212</ele>
        <time>2014-10-30T13:19:58Z</time>
      </trkpt>
      <trkpt lat="44.50948" lon="4.82931">
        <ele>212</ele>
        <time>2014-10-30T13:19:59Z</time>
      </trkpt>
      <trkpt lat="44.50948" lon="4.8296">
        <ele>214</ele>
        <time>2014-10-30T13:20:09Z</time>
      </trkpt>
      <trkpt lat="44.50949" lon="4.82965">
        <ele>214</ele>
        <time>2014-10-30T13:20:11Z</time>
      </trkpt>
      <trkpt lat="44.50949" lon="4.82967">
        <ele>214</ele>
        <time>2014-10-30T13:20:12Z</time>
      </trkpt>
      <trkpt lat="44.50951" lon="4.82972">
        <ele>214</ele>
        <time>2014-10-30T13:20:14Z</time>
      </trkpt>
      <trkpt lat="44.50954" lon="4.82994">
        <ele>214</ele>
        <time>2014-10-30T13:20:26Z</time>
      </trkpt>
      <trkpt lat="44.50949" lon="4.83024">
        <ele>216</ele>
        <time>2014-10-30T13:20:41Z</time>
      </trkpt>
      <trkpt lat="44.50948" lon="4.83026">
        <ele>216</ele>
        <time>2014-10-30T13:20:42Z</time>
      </trkpt>
      <trkpt lat="44.50937" lon="4.83049">
        <ele>219</ele>
        <time>2014-10-30T13:20:55Z</time>
      </trkpt>
      <trkpt lat="44.50927" lon="4.83067">
        <ele>221</ele>
        <time>2014-10-30T13:21:06Z</time>
      </trkpt>
      <trkpt lat="44.50926" lon="4.83069">
        <ele>221</ele>
        <time>2014-10-30T13:21:07Z</time>
      </trkpt>
      <trkpt lat="44.50924" lon="4.83072">
        <ele>221</ele>
        <time>2014-10-30T13:21:09Z</time>
      </trkpt>
      <trkpt lat="44.50923" lon="4.83073">
        <ele>221</ele>
        <time>2014-10-30T13:21:10Z</time>
      </trkpt>
      <trkpt lat="44.50921" lon="4.83075">
        <ele>221</ele>
        <time>2014-10-30T13:21:11Z</time>
      </trkpt>
      <trkpt lat="44.5092" lon="4.83076">
        <ele>222</ele>
        <time>2014-10-30T13:21:12Z</time>
      </trkpt>
      <trkpt lat="44.50918" lon="4.83076">
        <ele>222</ele>
        <time>2014-10-30T13:21:13Z</time>
      </trkpt>
      <trkpt lat="44.50915" lon="4.83088">
        <ele>222</ele>
        <time>2014-10-30T13:21:19Z</time>
      </trkpt>
      <trkpt lat="44.50913" lon="4.83099">
        <ele>223</ele>
        <time>2014-10-30T13:21:24Z</time>
      </trkpt>
      <trkpt lat="44.50912" lon="4.83117">
        <ele>224</ele>
        <time>2014-10-30T13:21:33Z</time>
      </trkpt>
      <trkpt lat="44.50913" lon="4.83138">
        <ele>225</ele>
        <time>2014-10-30T13:21:42Z</time>
      </trkpt>
      <trkpt lat="44.50918" lon="4.83152">
        <ele>226</ele>
        <time>2014-10-30T13:21:48Z</time>
      </trkpt>
      <trkpt lat="44.5092" lon="4.83154">
        <ele>226</ele>
        <time>2014-10-30T13:21:49Z</time>
      </trkpt>
      <trkpt lat="44.50921" lon="4.83156">
        <ele>226</ele>
        <time>2014-10-30T13:21:50Z</time>
      </trkpt>
      <trkpt lat="44.50929" lon="4.83173">
        <ele>227</ele>
        <time>2014-10-30T13:21:59Z</time>
      </trkpt>
      <trkpt lat="44.50931" lon="4.83177">
        <ele>227</ele>
        <time>2014-10-30T13:22:01Z</time>
      </trkpt>
      <trkpt lat="44.50935" lon="4.83187">
        <ele>228</ele>
        <time>2014-10-30T13:22:05Z</time>
      </trkpt>
      <trkpt lat="44.50936" lon="4.8319">
        <ele>228</ele>
        <time>2014-10-30T13:22:06Z</time>
      </trkpt>
      <trkpt lat="44.50937" lon="4.83193">
        <ele>229</ele>
        <time>2014-10-30T13:22:07Z</time>
      </trkpt>
      <trkpt lat="44.50938" lon="4.83195">
        <ele>229</ele>
        <time>2014-10-30T13:22:08Z</time>
      </trkpt>
      <trkpt lat="44.50938" lon="4.83198">
        <ele>229</ele>
        <time>2014-10-30T13:22:09Z</time>
      </trkpt>
      <trkpt lat="44.50939" lon="4.83205">
        <ele>230</ele>
        <time>2014-10-30T13:22:12Z</time>
      </trkpt>
      <trkpt lat="44.50939" lon="4.83208">
        <ele>230</ele>
        <time>2014-10-30T13:22:13Z</time>
      </trkpt>
      <trkpt lat="44.50941" lon="4.8321">
        <ele>230</ele>
        <time>2014-10-30T13:22:14Z</time>
      </trkpt>
      <trkpt lat="44.50942" lon="4.83213">
        <ele>230</ele>
        <time>2014-10-30T13:22:15Z</time>
      </trkpt>
      <trkpt lat="44.50943" lon="4.83216">
        <ele>230</ele>
        <time>2014-10-30T13:22:16Z</time>
      </trkpt>
      <trkpt lat="44.50944" lon="4.83218">
        <ele>230</ele>
        <time>2014-10-30T13:22:17Z</time>
      </trkpt>
      <trkpt lat="44.50947" lon="4.83226">
        <ele>230</ele>
        <time>2014-10-30T13:22:19Z</time>
      </trkpt>
      <trkpt lat="44.50948" lon="4.83233">
        <ele>230</ele>
        <time>2014-10-30T13:22:20Z</time>
      </trkpt>
      <trkpt lat="44.5095" lon="4.8324">
        <ele>230</ele>
        <time>2014-10-30T13:22:21Z</time>
      </trkpt>
      <trkpt lat="44.50952" lon="4.83246">
        <ele>230</ele>
        <time>2014-10-30T13:22:22Z</time>
      </trkpt>
      <trkpt lat="44.50952" lon="4.83253">
        <ele>229</ele>
        <time>2014-10-30T13:22:23Z</time>
      </trkpt>
      <trkpt lat="44.50953" lon="4.8326">
        <ele>229</ele>
        <time>2014-10-30T13:22:24Z</time>
      </trkpt>
      <trkpt lat="44.50953" lon="4.83267">
        <ele>229</ele>
        <time>2014-10-30T13:22:25Z</time>
      </trkpt>
      <trkpt lat="44.50954" lon="4.83281">
        <ele>228</ele>
        <time>2014-10-30T13:22:27Z</time>
      </trkpt>
      <trkpt lat="44.50956" lon="4.83295">
        <ele>228</ele>
        <time>2014-10-30T13:22:29Z</time>
      </trkpt>
      <trkpt lat="44.50967" lon="4.83323">
        <ele>226</ele>
        <time>2014-10-30T13:22:34Z</time>
      </trkpt>
      <trkpt lat="44.50971" lon="4.83336">
        <ele>226</ele>
        <time>2014-10-30T13:22:36Z</time>
      </trkpt>
      <trkpt lat="44.51001" lon="4.83393">
        <ele>223</ele>
        <time>2014-10-30T13:22:47Z</time>
      </trkpt>
      <trkpt lat="44.51002" lon="4.83396">
        <ele>224</ele>
        <time>2014-10-30T13:22:48Z</time>
      </trkpt>
      <trkpt lat="44.51001" lon="4.83399">
        <ele>224</ele>
        <time>2014-10-30T13:22:49Z</time>
      </trkpt>
      <trkpt lat="44.51" lon="4.83402">
        <ele>225</ele>
        <time>2014-10-30T13:22:50Z</time>
      </trkpt>
      <trkpt lat="44.50999" lon="4.83406">
        <ele>225</ele>
        <time>2014-10-30T13:22:51Z</time>
      </trkpt>
      <trkpt lat="44.50998" lon="4.83408">
        <ele>226</ele>
        <time>2014-10-30T13:22:52Z</time>
      </trkpt>
      <trkpt lat="44.50997" lon="4.83411">
        <ele>226</ele>
        <time>2014-10-30T13:22:53Z</time>
      </trkpt>
      <trkpt lat="44.50996" lon="4.83413">
        <ele>227</ele>
        <time>2014-10-30T13:22:54Z</time>
      </trkpt>
      <trkpt lat="44.50996" lon="4.83418">
        <ele>227</ele>
        <time>2014-10-30T13:22:56Z</time>
      </trkpt>
      <trkpt lat="44.50996" lon="4.83431">
        <ele>226</ele>
        <time>2014-10-30T13:23:00Z</time>
      </trkpt>
      <trkpt lat="44.50996" lon="4.83433">
        <ele>226</ele>
        <time>2014-10-30T13:23:01Z</time>
      </trkpt>
      <trkpt lat="44.50989" lon="4.83445">
        <ele>226</ele>
        <time>2014-10-30T13:23:07Z</time>
      </trkpt>
      <trkpt lat="44.50988" lon="4.83446">
        <ele>226</ele>
        <time>2014-10-30T13:23:08Z</time>
      </trkpt>
      <trkpt lat="44.50987" lon="4.83448">
        <ele>226</ele>
        <time>2014-10-30T13:23:09Z</time>
      </trkpt>
      <trkpt lat="44.50986" lon="4.83449">
        <ele>227</ele>
        <time>2014-10-30T13:23:10Z</time>
      </trkpt>
      <trkpt lat="44.50984" lon="4.83451">
        <ele>227</ele>
        <time>2014-10-30T13:23:11Z</time>
      </trkpt>
      <trkpt lat="44.50973" lon="4.83464">
        <ele>227</ele>
        <time>2014-10-30T13:23:23Z</time>
      </trkpt>
      <trkpt lat="44.50971" lon="4.83468">
        <ele>227</ele>
        <time>2014-10-30T13:23:49Z</time>
      </trkpt>
      <trkpt lat="44.50972" lon="4.83471">
        <ele>227</ele>
        <time>2014-10-30T13:24:12Z</time>
      </trkpt>
      <trkpt lat="44.50972" lon="4.83471">
        <ele>227</ele>
        <time>2014-10-30T13:24:42Z</time>
      </trkpt>
      <trkpt lat="44.50972" lon="4.8347">
        <ele>227</ele>
        <time>2014-10-30T13:25:12Z</time>
      </trkpt>
      <trkpt lat="44.50972" lon="4.8347">
        <ele>227</ele>
        <time>2014-10-30T13:25:42Z</time>
      </trkpt>
      <trkpt lat="44.50972" lon="4.83471">
        <ele>227</ele>
        <time>2014-10-30T13:26:14Z</time>
      </trkpt>
      <trkpt lat="44.50971" lon="4.8347">
        <ele>227</ele>
        <time>2014-10-30T13:26:44Z</time>
      </trkpt>
      <trkpt lat="44.5097" lon="4.83469">
        <ele>227</ele>
        <time>2014-10-30T13:27:15Z</time>
      </trkpt>
      <trkpt lat="44.50972" lon="4.83469">
        <ele>227</ele>
        <time>2014-10-30T13:27:52Z</time>
      </trkpt>
      <trkpt lat="44.50972" lon="4.8347">
        <ele>227</ele>
        <time>2014-10-30T13:28:23Z</time>
      </trkpt>
      <trkpt lat="44.50972" lon="4.83471">
        <ele>227</ele>
        <time>2014-10-30T13:28:50Z</time>
      </trkpt>
      <trkpt lat="44.50971" lon="4.83472">
        <ele>227</ele>
        <time>2014-10-30T13:29:15Z</time>
      </trkpt>
      <trkpt lat="44.5097" lon="4.83474">
        <ele>227</ele>
        <time>2014-10-30T13:29:16Z</time>
      </trkpt>
      <trkpt lat="44.50968" lon="4.83476">
        <ele>227</ele>
        <time>2014-10-30T13:29:17Z</time>
      </trkpt>
      <trkpt lat="44.50951" lon="4.83499">
        <ele>227</ele>
        <time>2014-10-30T13:29:26Z</time>
      </trkpt>
      <trkpt lat="44.50947" lon="4.83501">
        <ele>227</ele>
        <time>2014-10-30T13:29:27Z</time>
      </trkpt>
      <trkpt lat="44.50944" lon="4.83504">
        <ele>227</ele>
        <time>2014-10-30T13:29:28Z</time>
      </trkpt>
      <trkpt lat="44.5094" lon="4.83507">
        <ele>227</ele>
        <time>2014-10-30T13:29:29Z</time>
      </trkpt>
      <trkpt lat="44.50937" lon="4.83511">
        <ele>227</ele>
        <time>2014-10-30T13:29:30Z</time>
      </trkpt>
      <trkpt lat="44.50934" lon="4.83516">
        <ele>227</ele>
        <time>2014-10-30T13:29:31Z</time>
      </trkpt>
      <trkpt lat="44.50933" lon="4.8352">
        <ele>227</ele>
        <time>2014-10-30T13:29:32Z</time>
      </trkpt>
      <trkpt lat="44.50932" lon="4.83523">
        <ele>226</ele>
        <time>2014-10-30T13:29:33Z</time>
      </trkpt>
      <trkpt lat="44.50911" lon="4.83566">
        <ele>224</ele>
        <time>2014-10-30T13:29:44Z</time>
      </trkpt>
      <trkpt lat="44.50884" lon="4.83605">
        <ele>225</ele>
        <time>2014-10-30T13:29:56Z</time>
      </trkpt>
      <trkpt lat="44.50863" lon="4.83629">
        <ele>223</ele>
        <time>2014-10-30T13:30:04Z</time>
      </trkpt>
      <trkpt lat="44.50859" lon="4.8363">
        <ele>223</ele>
        <time>2014-10-30T13:30:05Z</time>
      </trkpt>
      <trkpt lat="44.5085" lon="4.83628">
        <ele>224</ele>
        <time>2014-10-30T13:30:07Z</time>
      </trkpt>
      <trkpt lat="44.50843" lon="4.83628">
        <ele>224</ele>
        <time>2014-10-30T13:30:08Z</time>
      </trkpt>
      <trkpt lat="44.50808" lon="4.83628">
        <ele>224</ele>
        <time>2014-10-30T13:30:17Z</time>
      </trkpt>
      <trkpt lat="44.50785" lon="4.83626">
        <ele>226</ele>
        <time>2014-10-30T13:30:27Z</time>
      </trkpt>
      <trkpt lat="44.50755" lon="4.83626">
        <ele>227</ele>
        <time>2014-10-30T13:30:40Z</time>
      </trkpt>
      <trkpt lat="44.50728" lon="4.83626">
        <ele>227</ele>
        <time>2014-10-30T13:30:50Z</time>
      </trkpt>
      <trkpt lat="44.50723" lon="4.83625">
        <ele>228</ele>
        <time>2014-10-30T13:30:52Z</time>
      </trkpt>
      <trkpt lat="44.50711" lon="4.83624">
        <ele>227</ele>
        <time>2014-10-30T13:30:57Z</time>
      </trkpt>
      <trkpt lat="44.50704" lon="4.83625">
        <ele>226</ele>
        <time>2014-10-30T13:30:59Z</time>
      </trkpt>
      <trkpt lat="44.50686" lon="4.83616">
        <ele>227</ele>
        <time>2014-10-30T13:31:06Z</time>
      </trkpt>
      <trkpt lat="44.50671" lon="4.83614">
        <ele>226</ele>
        <time>2014-10-30T13:31:11Z</time>
      </trkpt>
      <trkpt lat="44.50668" lon="4.83612">
        <ele>226</ele>
        <time>2014-10-30T13:31:12Z</time>
      </trkpt>
      <trkpt lat="44.50661" lon="4.83606">
        <ele>227</ele>
        <time>2014-10-30T13:31:15Z</time>
      </trkpt>
      <trkpt lat="44.50645" lon="4.83596">
        <ele>228</ele>
        <time>2014-10-30T13:31:23Z</time>
      </trkpt>
      <trkpt lat="44.50637" lon="4.83591">
        <ele>228</ele>
        <time>2014-10-30T13:31:28Z</time>
      </trkpt>
      <trkpt lat="44.50632" lon="4.83578">
        <ele>230</ele>
        <time>2014-10-30T13:31:34Z</time>
      </trkpt>
      <trkpt lat="44.5063" lon="4.83574">
        <ele>231</ele>
        <time>2014-10-30T13:31:36Z</time>
      </trkpt>
      <trkpt lat="44.50627" lon="4.83563">
        <ele>232</ele>
        <time>2014-10-30T13:31:43Z</time>
      </trkpt>
      <trkpt lat="44.50611" lon="4.83538">
        <ele>235</ele>
        <time>2014-10-30T13:31:56Z</time>
      </trkpt>
      <trkpt lat="44.506" lon="4.83512">
        <ele>237</ele>
        <time>2014-10-30T13:32:08Z</time>
      </trkpt>
      <trkpt lat="44.50597" lon="4.83506">
        <ele>238</ele>
        <time>2014-10-30T13:32:10Z</time>
      </trkpt>
      <trkpt lat="44.50586" lon="4.83468">
        <ele>242</ele>
        <time>2014-10-30T13:32:20Z</time>
      </trkpt>
      <trkpt lat="44.50583" lon="4.83464">
        <ele>241</ele>
        <time>2014-10-30T13:32:21Z</time>
      </trkpt>
      <trkpt lat="44.50557" lon="4.83408">
        <ele>235</ele>
        <time>2014-10-30T13:32:32Z</time>
      </trkpt>
      <trkpt lat="44.50555" lon="4.83372">
        <ele>237</ele>
        <time>2014-10-30T13:32:39Z</time>
      </trkpt>
      <trkpt lat="44.50553" lon="4.83362">
        <ele>237</ele>
        <time>2014-10-30T13:32:41Z</time>
      </trkpt>
      <trkpt lat="44.50553" lon="4.83358">
        <ele>237</ele>
        <time>2014-10-30T13:32:42Z</time>
      </trkpt>
      <trkpt lat="44.5055" lon="4.83349">
        <ele>237</ele>
        <time>2014-10-30T13:32:52Z</time>
      </trkpt>
      <trkpt lat="44.50545" lon="4.83348">
        <ele>237</ele>
        <time>2014-10-30T13:33:00Z</time>
      </trkpt>
      <trkpt lat="44.50537" lon="4.83355">
        <ele>237</ele>
        <time>2014-10-30T13:33:12Z</time>
      </trkpt>
      <trkpt lat="44.50528" lon="4.83361">
        <ele>237</ele>
        <time>2014-10-30T13:33:25Z</time>
      </trkpt>
      <trkpt lat="44.50528" lon="4.83361">
        <ele>237</ele>
        <time>2014-10-30T13:33:27Z</time>
      </trkpt>
      <trkpt lat="44.50516" lon="4.83378">
        <ele>237</ele>
        <time>2014-10-30T13:33:38Z</time>
      </trkpt>
      <trkpt lat="44.50504" lon="4.83399">
        <ele>237</ele>
        <time>2014-10-30T13:33:50Z</time>
      </trkpt>
      <trkpt lat="44.50489" lon="4.8341">
        <ele>241</ele>
        <time>2014-10-30T13:34:02Z</time>
      </trkpt>
      <trkpt lat="44.5048" lon="4.83413">
        <ele>243</ele>
        <time>2014-10-30T13:34:06Z</time>
      </trkpt>
      <trkpt lat="44.50472" lon="4.83411">
        <ele>245</ele>
        <time>2014-10-30T13:34:12Z</time>
      </trkpt>
      <trkpt lat="44.50466" lon="4.83409">
        <ele>246</ele>
        <time>2014-10-30T13:34:17Z</time>
      </trkpt>
      <trkpt lat="44.50453" lon="4.83402">
        <ele>248</ele>
        <time>2014-10-30T13:34:26Z</time>
      </trkpt>
      <trkpt lat="44.50451" lon="4.83399">
        <ele>248</ele>
        <time>2014-10-30T13:34:28Z</time>
      </trkpt>
      <trkpt lat="44.50441" lon="4.83393">
        <ele>249</ele>
        <time>2014-10-30T13:34:36Z</time>
      </trkpt>
      <trkpt lat="44.50432" lon="4.83382">
        <ele>252</ele>
        <time>2014-10-30T13:34:45Z</time>
      </trkpt>
      <trkpt lat="44.50427" lon="4.83375">
        <ele>253</ele>
        <time>2014-10-30T13:34:51Z</time>
      </trkpt>
      <trkpt lat="44.5041" lon="4.83364">
        <ele>256</ele>
        <time>2014-10-30T13:35:02Z</time>
      </trkpt>
      <trkpt lat="44.50392" lon="4.83368">
        <ele>260</ele>
        <time>2014-10-30T13:35:15Z</time>
      </trkpt>
      <trkpt lat="44.50391" lon="4.83369">
        <ele>260</ele>
        <time>2014-10-30T13:35:17Z</time>
      </trkpt>
      <trkpt lat="44.50392" lon="4.83374">
        <ele>259</ele>
        <time>2014-10-30T13:35:20Z</time>
      </trkpt>
      <trkpt lat="44.50395" lon="4.83382">
        <ele>258</ele>
        <time>2014-10-30T13:35:24Z</time>
      </trkpt>
      <trkpt lat="44.50391" lon="4.83396">
        <ele>259</ele>
        <time>2014-10-30T13:35:32Z</time>
      </trkpt>
      <trkpt lat="44.5039" lon="4.83406">
        <ele>259</ele>
        <time>2014-10-30T13:35:44Z</time>
      </trkpt>
      <trkpt lat="44.50391" lon="4.83409">
        <ele>259</ele>
        <time>2014-10-30T13:35:58Z</time>
      </trkpt>
      <trkpt lat="44.50406" lon="4.83446">
        <ele>259</ele>
        <time>2014-10-30T13:36:12Z</time>
      </trkpt>
      <trkpt lat="44.50417" lon="4.83481">
        <ele>257</ele>
        <time>2014-10-30T13:36:23Z</time>
      </trkpt>
      <trkpt lat="44.50416" lon="4.83492">
        <ele>256</ele>
        <time>2014-10-30T13:36:25Z</time>
      </trkpt>
      <trkpt lat="44.50413" lon="4.83497">
        <ele>256</ele>
        <time>2014-10-30T13:36:26Z</time>
      </trkpt>
      <trkpt lat="44.50409" lon="4.83502">
        <ele>256</ele>
        <time>2014-10-30T13:36:27Z</time>
      </trkpt>
      <trkpt lat="44.50404" lon="4.83504">
        <ele>256</ele>
        <time>2014-10-30T13:36:28Z</time>
      </trkpt>
      <trkpt lat="44.50399" lon="4.83505">
        <ele>255</ele>
        <time>2014-10-30T13:36:29Z</time>
      </trkpt>
      <trkpt lat="44.50382" lon="4.83508">
        <ele>254</ele>
        <time>2014-10-30T13:36:32Z</time>
      </trkpt>
      <trkpt lat="44.50376" lon="4.83507">
        <ele>254</ele>
        <time>2014-10-30T13:36:33Z</time>
      </trkpt>
      <trkpt lat="44.50365" lon="4.83508">
        <ele>253</ele>
        <time>2014-10-30T13:36:35Z</time>
      </trkpt>
      <trkpt lat="44.50341" lon="4.83512">
        <ele>250</ele>
        <time>2014-10-30T13:36:39Z</time>
      </trkpt>
      <trkpt lat="44.50335" lon="4.83514">
        <ele>250</ele>
        <time>2014-10-30T13:36:40Z</time>
      </trkpt>
      <trkpt lat="44.50329" lon="4.83515">
        <ele>249</ele>
        <time>2014-10-30T13:36:41Z</time>
      </trkpt>
      <trkpt lat="44.50324" lon="4.83516">
        <ele>249</ele>
        <time>2014-10-30T13:36:42Z</time>
      </trkpt>
      <trkpt lat="44.50292" lon="4.83531">
        <ele>248</ele>
        <time>2014-10-30T13:36:47Z</time>
      </trkpt>
      <trkpt lat="44.50286" lon="4.83534">
        <ele>247</ele>
        <time>2014-10-30T13:36:48Z</time>
      </trkpt>
      <trkpt lat="44.50279" lon="4.83535">
        <ele>248</ele>
        <time>2014-10-30T13:36:49Z</time>
      </trkpt>
      <trkpt lat="44.5026" lon="4.83533">
        <ele>248</ele>
        <time>2014-10-30T13:36:52Z</time>
      </trkpt>
      <trkpt lat="44.50254" lon="4.83532">
        <ele>248</ele>
        <time>2014-10-30T13:36:53Z</time>
      </trkpt>
      <trkpt lat="44.50249" lon="4.83531">
        <ele>248</ele>
        <time>2014-10-30T13:36:54Z</time>
      </trkpt>
      <trkpt lat="44.50243" lon="4.8353">
        <ele>248</ele>
        <time>2014-10-30T13:36:55Z</time>
      </trkpt>
      <trkpt lat="44.50237" lon="4.8353">
        <ele>248</ele>
        <time>2014-10-30T13:36:56Z</time>
      </trkpt>
      <trkpt lat="44.50232" lon="4.83531">
        <ele>248</ele>
        <time>2014-10-30T13:36:57Z</time>
      </trkpt>
      <trkpt lat="44.50229" lon="4.83533">
        <ele>248</ele>
        <time>2014-10-30T13:36:58Z</time>
      </trkpt>
      <trkpt lat="44.50226" lon="4.83534">
        <ele>248</ele>
        <time>2014-10-30T13:36:59Z</time>
      </trkpt>
      <trkpt lat="44.50226" lon="4.83537">
        <ele>248</ele>
        <time>2014-10-30T13:37:00Z</time>
      </trkpt>
      <trkpt lat="44.50226" lon="4.83541">
        <ele>248</ele>
        <time>2014-10-30T13:37:01Z</time>
      </trkpt>
      <trkpt lat="44.50227" lon="4.83547">
        <ele>248</ele>
        <time>2014-10-30T13:37:02Z</time>
      </trkpt>
      <trkpt lat="44.50231" lon="4.83555">
        <ele>247</ele>
        <time>2014-10-30T13:37:03Z</time>
      </trkpt>
      <trkpt lat="44.50245" lon="4.83602">
        <ele>242</ele>
        <time>2014-10-30T13:37:09Z</time>
      </trkpt>
      <trkpt lat="44.50246" lon="4.83609">
        <ele>241</ele>
        <time>2014-10-30T13:37:10Z</time>
      </trkpt>
      <trkpt lat="44.50246" lon="4.83615">
        <ele>241</ele>
        <time>2014-10-30T13:37:11Z</time>
      </trkpt>
      <trkpt lat="44.50245" lon="4.83621">
        <ele>241</ele>
        <time>2014-10-30T13:37:12Z</time>
      </trkpt>
      <trkpt lat="44.50243" lon="4.83626">
        <ele>241</ele>
        <time>2014-10-30T13:37:13Z</time>
      </trkpt>
      <trkpt lat="44.5024" lon="4.83631">
        <ele>242</ele>
        <time>2014-10-30T13:37:14Z</time>
      </trkpt>
      <trkpt lat="44.50236" lon="4.83635">
        <ele>242</ele>
        <time>2014-10-30T13:37:15Z</time>
      </trkpt>
      <trkpt lat="44.50233" lon="4.83639">
        <ele>243</ele>
        <time>2014-10-30T13:37:16Z</time>
      </trkpt>
      <trkpt lat="44.50229" lon="4.83642">
        <ele>243</ele>
        <time>2014-10-30T13:37:17Z</time>
      </trkpt>
      <trkpt lat="44.50225" lon="4.83645">
        <ele>243</ele>
        <time>2014-10-30T13:37:18Z</time>
      </trkpt>
      <trkpt lat="44.50213" lon="4.83652">
        <ele>244</ele>
        <time>2014-10-30T13:37:21Z</time>
      </trkpt>
      <trkpt lat="44.50209" lon="4.83654">
        <ele>244</ele>
        <time>2014-10-30T13:37:22Z</time>
      </trkpt>
      <trkpt lat="44.50206" lon="4.83657">
        <ele>244</ele>
        <time>2014-10-30T13:37:23Z</time>
      </trkpt>
      <trkpt lat="44.50203" lon="4.8366">
        <ele>244</ele>
        <time>2014-10-30T13:37:24Z</time>
      </trkpt>
      <trkpt lat="44.50202" lon="4.83663">
        <ele>244</ele>
        <time>2014-10-30T13:37:25Z</time>
      </trkpt>
      <trkpt lat="44.50202" lon="4.83669">
        <ele>244</ele>
        <time>2014-10-30T13:37:26Z</time>
      </trkpt>
      <trkpt lat="44.50201" lon="4.83673">
        <ele>243</ele>
        <time>2014-10-30T13:37:27Z</time>
      </trkpt>
      <trkpt lat="44.50211" lon="4.83708">
        <ele>243</ele>
        <time>2014-10-30T13:37:39Z</time>
      </trkpt>
      <trkpt lat="44.50231" lon="4.83728">
        <ele>245</ele>
        <time>2014-10-30T13:37:51Z</time>
      </trkpt>
      <trkpt lat="44.50263" lon="4.83744">
        <ele>248</ele>
        <time>2014-10-30T13:38:05Z</time>
      </trkpt>
      <trkpt lat="44.50288" lon="4.83776">
        <ele>252</ele>
        <time>2014-10-30T13:38:20Z</time>
      </trkpt>
      <trkpt lat="44.50313" lon="4.83798">
        <ele>253</ele>
        <time>2014-10-30T13:38:33Z</time>
      </trkpt>
      <trkpt lat="44.50338" lon="4.83826">
        <ele>254</ele>
        <time>2014-10-30T13:38:48Z</time>
      </trkpt>
      <trkpt lat="44.50346" lon="4.83863">
        <ele>257</ele>
        <time>2014-10-30T13:39:02Z</time>
      </trkpt>
      <trkpt lat="44.50349" lon="4.83895">
        <ele>261</ele>
        <time>2014-10-30T13:39:14Z</time>
      </trkpt>
      <trkpt lat="44.50366" lon="4.83918">
        <ele>265</ele>
        <time>2014-10-30T13:39:27Z</time>
      </trkpt>
      <trkpt lat="44.50389" lon="4.83906">
        <ele>264</ele>
        <time>2014-10-30T13:39:38Z</time>
      </trkpt>
      <trkpt lat="44.50391" lon="4.83905">
        <ele>264</ele>
        <time>2014-10-30T13:39:39Z</time>
      </trkpt>
      <trkpt lat="44.50393" lon="4.83903">
        <ele>264</ele>
        <time>2014-10-30T13:39:40Z</time>
      </trkpt>
      <trkpt lat="44.50395" lon="4.83902">
        <ele>264</ele>
        <time>2014-10-30T13:39:41Z</time>
      </trkpt>
      <trkpt lat="44.50397" lon="4.83902">
        <ele>264</ele>
        <time>2014-10-30T13:39:42Z</time>
      </trkpt>
      <trkpt lat="44.50398" lon="4.83901">
        <ele>264</ele>
        <time>2014-10-30T13:39:43Z</time>
      </trkpt>
      <trkpt lat="44.504" lon="4.839">
        <ele>264</ele>
        <time>2014-10-30T13:39:44Z</time>
      </trkpt>
      <trkpt lat="44.50401" lon="4.83899">
        <ele>264</ele>
        <time>2014-10-30T13:39:45Z</time>
      </trkpt>
      <trkpt lat="44.50403" lon="4.83898">
        <ele>264</ele>
        <time>2014-10-30T13:39:46Z</time>
      </trkpt>
      <trkpt lat="44.50406" lon="4.83897">
        <ele>264</ele>
        <time>2014-10-30T13:39:47Z</time>
      </trkpt>
      <trkpt lat="44.50408" lon="4.83897">
        <ele>264</ele>
        <time>2014-10-30T13:39:48Z</time>
      </trkpt>
      <trkpt lat="44.5041" lon="4.83896">
        <ele>264</ele>
        <time>2014-10-30T13:39:49Z</time>
      </trkpt>
      <trkpt lat="44.50435" lon="4.83902">
        <ele>266</ele>
        <time>2014-10-30T13:40:02Z</time>
      </trkpt>
      <trkpt lat="44.50465" lon="4.83911">
        <ele>268</ele>
        <time>2014-10-30T13:40:18Z</time>
      </trkpt>
      <trkpt lat="44.50489" lon="4.83918">
        <ele>270</ele>
        <time>2014-10-30T13:40:30Z</time>
      </trkpt>
      <trkpt lat="44.50505" lon="4.83928">
        <ele>270</ele>
        <time>2014-10-30T13:40:40Z</time>
      </trkpt>
      <trkpt lat="44.50506" lon="4.8393">
        <ele>271</ele>
        <time>2014-10-30T13:40:41Z</time>
      </trkpt>
      <trkpt lat="44.50506" lon="4.83932">
        <ele>271</ele>
        <time>2014-10-30T13:40:42Z</time>
      </trkpt>
      <trkpt lat="44.50505" lon="4.83934">
        <ele>272</ele>
        <time>2014-10-30T13:40:43Z</time>
      </trkpt>
      <trkpt lat="44.50504" lon="4.83936">
        <ele>272</ele>
        <time>2014-10-30T13:40:44Z</time>
      </trkpt>
      <trkpt lat="44.50502" lon="4.83937">
        <ele>273</ele>
        <time>2014-10-30T13:40:45Z</time>
      </trkpt>
      <trkpt lat="44.505" lon="4.83937">
        <ele>273</ele>
        <time>2014-10-30T13:40:46Z</time>
      </trkpt>
      <trkpt lat="44.50475" lon="4.83943">
        <ele>274</ele>
        <time>2014-10-30T13:41:00Z</time>
      </trkpt>
      <trkpt lat="44.5045" lon="4.83954">
        <ele>275</ele>
        <time>2014-10-30T13:41:14Z</time>
      </trkpt>
      <trkpt lat="44.50424" lon="4.8397">
        <ele>276</ele>
        <time>2014-10-30T13:41:30Z</time>
      </trkpt>
      <trkpt lat="44.50394" lon="4.83971">
        <ele>276</ele>
        <time>2014-10-30T13:41:45Z</time>
      </trkpt>
      <trkpt lat="44.50373" lon="4.83982">
        <ele>276</ele>
        <time>2014-10-30T13:41:57Z</time>
      </trkpt>
      <trkpt lat="44.50351" lon="4.83995">
        <ele>277</ele>
        <time>2014-10-30T13:42:09Z</time>
      </trkpt>
      <trkpt lat="44.50341" lon="4.84">
        <ele>279</ele>
        <time>2014-10-30T13:42:14Z</time>
      </trkpt>
      <trkpt lat="44.5034" lon="4.84001">
        <ele>279</ele>
        <time>2014-10-30T13:42:15Z</time>
      </trkpt>
      <trkpt lat="44.50338" lon="4.84003">
        <ele>279</ele>
        <time>2014-10-30T13:42:16Z</time>
      </trkpt>
      <trkpt lat="44.50321" lon="4.84011">
        <ele>280</ele>
        <time>2014-10-30T13:42:28Z</time>
      </trkpt>
      <trkpt lat="44.50294" lon="4.84004">
        <ele>282</ele>
        <time>2014-10-30T13:42:42Z</time>
      </trkpt>
      <trkpt lat="44.50274" lon="4.83981">
        <ele>285</ele>
        <time>2014-10-30T13:42:55Z</time>
      </trkpt>
      <trkpt lat="44.50257" lon="4.83959">
        <ele>290</ele>
        <time>2014-10-30T13:43:07Z</time>
      </trkpt>
      <trkpt lat="44.50233" lon="4.83943">
        <ele>296</ele>
        <time>2014-10-30T13:43:21Z</time>
      </trkpt>
      <trkpt lat="44.50228" lon="4.8394">
        <ele>297</ele>
        <time>2014-10-30T13:43:24Z</time>
      </trkpt>
      <trkpt lat="44.50226" lon="4.83939">
        <ele>297</ele>
        <time>2014-10-30T13:43:25Z</time>
      </trkpt>
      <trkpt lat="44.50224" lon="4.83938">
        <ele>297</ele>
        <time>2014-10-30T13:43:26Z</time>
      </trkpt>
      <trkpt lat="44.5021" lon="4.8393">
        <ele>298</ele>
        <time>2014-10-30T13:43:35Z</time>
      </trkpt>
      <trkpt lat="44.50209" lon="4.83929">
        <ele>297</ele>
        <time>2014-10-30T13:43:36Z</time>
      </trkpt>
      <trkpt lat="44.50207" lon="4.83928">
        <ele>298</ele>
        <time>2014-10-30T13:43:37Z</time>
      </trkpt>
      <trkpt lat="44.50205" lon="4.83927">
        <ele>298</ele>
        <time>2014-10-30T13:43:38Z</time>
      </trkpt>
      <trkpt lat="44.50204" lon="4.83927">
        <ele>298</ele>
        <time>2014-10-30T13:43:39Z</time>
      </trkpt>
      <trkpt lat="44.50202" lon="4.83926">
        <ele>298</ele>
        <time>2014-10-30T13:43:40Z</time>
      </trkpt>
      <trkpt lat="44.502" lon="4.83926">
        <ele>298</ele>
        <time>2014-10-30T13:43:41Z</time>
      </trkpt>
      <trkpt lat="44.5018" lon="4.8392">
        <ele>298</ele>
        <time>2014-10-30T13:43:54Z</time>
      </trkpt>
      <trkpt lat="44.50159" lon="4.83923">
        <ele>301</ele>
        <time>2014-10-30T13:44:07Z</time>
      </trkpt>
      <trkpt lat="44.50138" lon="4.83932">
        <ele>307</ele>
        <time>2014-10-30T13:44:21Z</time>
      </trkpt>
      <trkpt lat="44.50128" lon="4.83933">
        <ele>308</ele>
        <time>2014-10-30T13:44:27Z</time>
      </trkpt>
      <trkpt lat="44.50126" lon="4.83935">
        <ele>309</ele>
        <time>2014-10-30T13:44:28Z</time>
      </trkpt>
      <trkpt lat="44.50125" lon="4.83936">
        <ele>310</ele>
        <time>2014-10-30T13:44:29Z</time>
      </trkpt>
      <trkpt lat="44.50124" lon="4.83936">
        <ele>310</ele>
        <time>2014-10-30T13:44:30Z</time>
      </trkpt>
      <trkpt lat="44.50123" lon="4.83937">
        <ele>310</ele>
        <time>2014-10-30T13:44:31Z</time>
      </trkpt>
      <trkpt lat="44.50121" lon="4.83938">
        <ele>311</ele>
        <time>2014-10-30T13:44:32Z</time>
      </trkpt>
      <trkpt lat="44.5012" lon="4.83938">
        <ele>311</ele>
        <time>2014-10-30T13:44:33Z</time>
      </trkpt>
      <trkpt lat="44.50118" lon="4.83939">
        <ele>312</ele>
        <time>2014-10-30T13:44:34Z</time>
      </trkpt>
      <trkpt lat="44.50102" lon="4.83943">
        <ele>313</ele>
        <time>2014-10-30T13:44:46Z</time>
      </trkpt>
      <trkpt lat="44.50083" lon="4.83945">
        <ele>313</ele>
        <time>2014-10-30T13:44:59Z</time>
      </trkpt>
      <trkpt lat="44.50082" lon="4.83945">
        <ele>313</ele>
        <time>2014-10-30T13:45:00Z</time>
      </trkpt>
      <trkpt lat="44.5008" lon="4.83945">
        <ele>313</ele>
        <time>2014-10-30T13:45:01Z</time>
      </trkpt>
      <trkpt lat="44.50079" lon="4.83945">
        <ele>313</ele>
        <time>2014-10-30T13:45:02Z</time>
      </trkpt>
      <trkpt lat="44.50077" lon="4.83945">
        <ele>313</ele>
        <time>2014-10-30T13:45:03Z</time>
      </trkpt>
      <trkpt lat="44.50062" lon="4.83945">
        <ele>312</ele>
        <time>2014-10-30T13:45:14Z</time>
      </trkpt>
      <trkpt lat="44.50044" lon="4.83943">
        <ele>313</ele>
        <time>2014-10-30T13:45:29Z</time>
      </trkpt>
      <trkpt lat="44.50033" lon="4.83941">
        <ele>314</ele>
        <time>2014-10-30T13:45:37Z</time>
      </trkpt>
      <trkpt lat="44.50032" lon="4.83941">
        <ele>314</ele>
        <time>2014-10-30T13:45:38Z</time>
      </trkpt>
      <trkpt lat="44.50031" lon="4.83941">
        <ele>314</ele>
        <time>2014-10-30T13:45:39Z</time>
      </trkpt>
      <trkpt lat="44.50012" lon="4.83935">
        <ele>315</ele>
        <time>2014-10-30T13:45:53Z</time>
      </trkpt>
      <trkpt lat="44.49995" lon="4.8393">
        <ele>316</ele>
        <time>2014-10-30T13:46:06Z</time>
      </trkpt>
      <trkpt lat="44.49976" lon="4.83937">
        <ele>317</ele>
        <time>2014-10-30T13:46:19Z</time>
      </trkpt>
      <trkpt lat="44.49959" lon="4.83943">
        <ele>316</ele>
        <time>2014-10-30T13:46:31Z</time>
      </trkpt>
      <trkpt lat="44.49954" lon="4.83947">
        <ele>315</ele>
        <time>2014-10-30T13:46:35Z</time>
      </trkpt>
      <trkpt lat="44.49947" lon="4.83953">
        <ele>315</ele>
        <time>2014-10-30T13:46:39Z</time>
      </trkpt>
      <trkpt lat="44.49922" lon="4.83965">
        <ele>317</ele>
        <time>2014-10-30T13:46:55Z</time>
      </trkpt>
      <trkpt lat="44.49904" lon="4.83969">
        <ele>319</ele>
        <time>2014-10-30T13:47:08Z</time>
      </trkpt>
      <trkpt lat="44.49884" lon="4.83969">
        <ele>324</ele>
        <time>2014-10-30T13:47:20Z</time>
      </trkpt>
      <trkpt lat="44.49862" lon="4.83962">
        <ele>329</ele>
        <time>2014-10-30T13:47:34Z</time>
      </trkpt>
      <trkpt lat="44.49858" lon="4.83948">
        <ele>330</ele>
        <time>2014-10-30T13:47:41Z</time>
      </trkpt>
      <trkpt lat="44.49856" lon="4.83915">
        <ele>329</ele>
        <time>2014-10-30T13:47:55Z</time>
      </trkpt>
      <trkpt lat="44.49845" lon="4.83892">
        <ele>332</ele>
        <time>2014-10-30T13:48:07Z</time>
      </trkpt>
      <trkpt lat="44.49839" lon="4.83873">
        <ele>334</ele>
        <time>2014-10-30T13:48:18Z</time>
      </trkpt>
      <trkpt lat="44.49827" lon="4.83844">
        <ele>338</ele>
        <time>2014-10-30T13:48:33Z</time>
      </trkpt>
      <trkpt lat="44.49824" lon="4.83834">
        <ele>338</ele>
        <time>2014-10-30T13:48:37Z</time>
      </trkpt>
      <trkpt lat="44.49822" lon="4.83802">
        <ele>337</ele>
        <time>2014-10-30T13:48:49Z</time>
      </trkpt>
      <trkpt lat="44.49821" lon="4.83763">
        <ele>338</ele>
        <time>2014-10-30T13:49:03Z</time>
      </trkpt>
      <trkpt lat="44.49816" lon="4.83731">
        <ele>340</ele>
        <time>2014-10-30T13:49:16Z</time>
      </trkpt>
      <trkpt lat="44.49814" lon="4.83719">
        <ele>341</ele>
        <time>2014-10-30T13:49:21Z</time>
      </trkpt>
      <trkpt lat="44.49805" lon="4.83695">
        <ele>344</ele>
        <time>2014-10-30T13:49:32Z</time>
      </trkpt>
      <trkpt lat="44.49802" lon="4.83669">
        <ele>345</ele>
        <time>2014-10-30T13:49:41Z</time>
      </trkpt>
      <trkpt lat="44.49799" lon="4.83622">
        <ele>345</ele>
        <time>2014-10-30T13:49:57Z</time>
      </trkpt>
      <trkpt lat="44.4981" lon="4.8359">
        <ele>345</ele>
        <time>2014-10-30T13:50:11Z</time>
      </trkpt>
      <trkpt lat="44.49825" lon="4.8356">
        <ele>346</ele>
        <time>2014-10-30T13:50:24Z</time>
      </trkpt>
      <trkpt lat="44.49837" lon="4.8353">
        <ele>348</ele>
        <time>2014-10-30T13:50:37Z</time>
      </trkpt>
      <trkpt lat="44.49842" lon="4.83502">
        <ele>350</ele>
        <time>2014-10-30T13:50:46Z</time>
      </trkpt>
      <trkpt lat="44.49838" lon="4.83498">
        <ele>353</ele>
        <time>2014-10-30T13:50:50Z</time>
      </trkpt>
      <trkpt lat="44.49826" lon="4.8352">
        <ele>353</ele>
        <time>2014-10-30T13:51:04Z</time>
      </trkpt>
      <trkpt lat="44.49809" lon="4.83541">
        <ele>354</ele>
        <time>2014-10-30T13:51:17Z</time>
      </trkpt>
      <trkpt lat="44.49788" lon="4.83561">
        <ele>356</ele>
        <time>2014-10-30T13:51:30Z</time>
      </trkpt>
      <trkpt lat="44.49773" lon="4.83571">
        <ele>358</ele>
        <time>2014-10-30T13:51:39Z</time>
      </trkpt>
      <trkpt lat="44.49767" lon="4.83581">
        <ele>358</ele>
        <time>2014-10-30T13:51:45Z</time>
      </trkpt>
      <trkpt lat="44.49745" lon="4.83606">
        <ele>360</ele>
        <time>2014-10-30T13:52:00Z</time>
      </trkpt>
      <trkpt lat="44.49732" lon="4.83612">
        <ele>362</ele>
        <time>2014-10-30T13:52:09Z</time>
      </trkpt>
      <trkpt lat="44.49712" lon="4.8363">
        <ele>367</ele>
        <time>2014-10-30T13:52:25Z</time>
      </trkpt>
      <trkpt lat="44.49706" lon="4.83642">
        <ele>368</ele>
        <time>2014-10-30T13:52:32Z</time>
      </trkpt>
      <trkpt lat="44.49702" lon="4.83655">
        <ele>368</ele>
        <time>2014-10-30T13:52:39Z</time>
      </trkpt>
      <trkpt lat="44.49693" lon="4.83686">
        <ele>370</ele>
        <time>2014-10-30T13:52:52Z</time>
      </trkpt>
      <trkpt lat="44.49688" lon="4.83718">
        <ele>371</ele>
        <time>2014-10-30T13:53:07Z</time>
      </trkpt>
      <trkpt lat="44.4968" lon="4.83747">
        <ele>374</ele>
        <time>2014-10-30T13:53:20Z</time>
      </trkpt>
      <trkpt lat="44.49678" lon="4.83762">
        <ele>375</ele>
        <time>2014-10-30T13:53:26Z</time>
      </trkpt>
      <trkpt lat="44.49679" lon="4.83776">
        <ele>375</ele>
        <time>2014-10-30T13:53:31Z</time>
      </trkpt>
      <trkpt lat="44.49679" lon="4.83806">
        <ele>377</ele>
        <time>2014-10-30T13:53:44Z</time>
      </trkpt>
      <trkpt lat="44.49678" lon="4.83824">
        <ele>378</ele>
        <time>2014-10-30T13:53:52Z</time>
      </trkpt>
      <trkpt lat="44.49677" lon="4.83834">
        <ele>379</ele>
        <time>2014-10-30T13:53:56Z</time>
      </trkpt>
      <trkpt lat="44.49676" lon="4.83844">
        <ele>379</ele>
        <time>2014-10-30T13:54:00Z</time>
      </trkpt>
      <trkpt lat="44.49677" lon="4.83864">
        <ele>380</ele>
        <time>2014-10-30T13:54:08Z</time>
      </trkpt>
      <trkpt lat="44.49677" lon="4.83898">
        <ele>384</ele>
        <time>2014-10-30T13:54:22Z</time>
      </trkpt>
      <trkpt lat="44.49678" lon="4.83901">
        <ele>384</ele>
        <time>2014-10-30T13:54:23Z</time>
      </trkpt>
      <trkpt lat="44.49678" lon="4.83911">
        <ele>385</ele>
        <time>2014-10-30T13:54:27Z</time>
      </trkpt>
      <trkpt lat="44.49681" lon="4.83931">
        <ele>386</ele>
        <time>2014-10-30T13:54:35Z</time>
      </trkpt>
      <trkpt lat="44.49691" lon="4.83965">
        <ele>384</ele>
        <time>2014-10-30T13:54:48Z</time>
      </trkpt>
      <trkpt lat="44.49684" lon="4.84004">
        <ele>386</ele>
        <time>2014-10-30T13:55:02Z</time>
      </trkpt>
      <trkpt lat="44.49678" lon="4.84036">
        <ele>386</ele>
        <time>2014-10-30T13:55:13Z</time>
      </trkpt>
      <trkpt lat="44.49669" lon="4.84073">
        <ele>386</ele>
        <time>2014-10-30T13:55:27Z</time>
      </trkpt>
      <trkpt lat="44.49663" lon="4.84101">
        <ele>387</ele>
        <time>2014-10-30T13:55:38Z</time>
      </trkpt>
      <trkpt lat="44.49662" lon="4.84106">
        <ele>387</ele>
        <time>2014-10-30T13:55:40Z</time>
      </trkpt>
      <trkpt lat="44.49659" lon="4.84112">
        <ele>387</ele>
        <time>2014-10-30T13:55:44Z</time>
      </trkpt>
      <trkpt lat="44.49655" lon="4.84119">
        <ele>388</ele>
        <time>2014-10-30T13:55:48Z</time>
      </trkpt>
      <trkpt lat="44.49653" lon="4.84129">
        <ele>389</ele>
        <time>2014-10-30T13:56:01Z</time>
      </trkpt>
      <trkpt lat="44.49653" lon="4.84126">
        <ele>389</ele>
        <time>2014-10-30T13:56:16Z</time>
      </trkpt>
      <trkpt lat="44.49652" lon="4.84122">
        <ele>389</ele>
        <time>2014-10-30T13:56:45Z</time>
      </trkpt>
      <trkpt lat="44.49652" lon="4.84121">
        <ele>389</ele>
        <time>2014-10-30T13:57:03Z</time>
      </trkpt>
      <trkpt lat="44.49653" lon="4.84121">
        <ele>389</ele>
        <time>2014-10-30T13:57:32Z</time>
      </trkpt>
      <trkpt lat="44.49652" lon="4.84121">
        <ele>389</ele>
        <time>2014-10-30T13:58:01Z</time>
      </trkpt>
      <trkpt lat="44.49652" lon="4.84123">
        <ele>389</ele>
        <time>2014-10-30T13:58:27Z</time>
      </trkpt>
      <trkpt lat="44.49652" lon="4.84123">
        <ele>389</ele>
        <time>2014-10-30T13:58:55Z</time>
      </trkpt>
      <trkpt lat="44.49653" lon="4.84124">
        <ele>389</ele>
        <time>2014-10-30T13:59:25Z</time>
      </trkpt>
      <trkpt lat="44.49653" lon="4.84124">
        <ele>389</ele>
        <time>2014-10-30T13:59:53Z</time>
      </trkpt>
      <trkpt lat="44.49652" lon="4.84124">
        <ele>389</ele>
        <time>2014-10-30T14:00:25Z</time>
      </trkpt>
      <trkpt lat="44.49653" lon="4.84123">
        <ele>389</ele>
        <time>2014-10-30T14:00:56Z</time>
      </trkpt>
      <trkpt lat="44.49655" lon="4.84122">
        <ele>388</ele>
        <time>2014-10-30T14:01:28Z</time>
      </trkpt>
      <trkpt lat="44.49654" lon="4.84122">
        <ele>388</ele>
        <time>2014-10-30T14:01:48Z</time>
      </trkpt>
      <trkpt lat="44.49654" lon="4.84121">
        <ele>388</ele>
        <time>2014-10-30T14:02:17Z</time>
      </trkpt>
      <trkpt lat="44.49653" lon="4.84121">
        <ele>388</ele>
        <time>2014-10-30T14:02:44Z</time>
      </trkpt>
      <trkpt lat="44.49653" lon="4.84121">
        <ele>389</ele>
        <time>2014-10-30T14:03:05Z</time>
      </trkpt>
      <trkpt lat="44.49652" lon="4.84121">
        <ele>389</ele>
        <time>2014-10-30T14:03:34Z</time>
      </trkpt>
      <trkpt lat="44.49652" lon="4.84122">
        <ele>389</ele>
        <time>2014-10-30T14:04:00Z</time>
      </trkpt>
      <trkpt lat="44.49652" lon="4.84122">
        <ele>389</ele>
        <time>2014-10-30T14:04:26Z</time>
      </trkpt>
      <trkpt lat="44.49652" lon="4.84122">
        <ele>389</ele>
        <time>2014-10-30T14:04:52Z</time>
      </trkpt>
      <trkpt lat="44.49652" lon="4.84123">
        <ele>389</ele>
        <time>2014-10-30T14:05:24Z</time>
      </trkpt>
      <trkpt lat="44.49652" lon="4.84122">
        <ele>389</ele>
        <time>2014-10-30T14:05:57Z</time>
      </trkpt>
      <trkpt lat="44.49653" lon="4.84121">
        <ele>389</ele>
        <time>2014-10-30T14:06:24Z</time>
      </trkpt>
      <trkpt lat="44.49653" lon="4.84121">
        <ele>388</ele>
        <time>2014-10-30T14:06:54Z</time>
      </trkpt>
      <trkpt lat="44.49653" lon="4.84122">
        <ele>389</ele>
        <time>2014-10-30T14:07:22Z</time>
      </trkpt>
      <trkpt lat="44.49653" lon="4.84123">
        <ele>389</ele>
        <time>2014-10-30T14:07:47Z</time>
      </trkpt>
      <trkpt lat="44.49653" lon="4.84123">
        <ele>389</ele>
        <time>2014-10-30T14:08:14Z</time>
      </trkpt>
      <trkpt lat="44.49653" lon="4.84123">
        <ele>389</ele>
        <time>2014-10-30T14:08:43Z</time>
      </trkpt>
      <trkpt lat="44.49653" lon="4.84122">
        <ele>389</ele>
        <time>2014-10-30T14:09:11Z</time>
      </trkpt>
      <trkpt lat="44.49654" lon="4.84123">
        <ele>388</ele>
        <time>2014-10-30T14:09:30Z</time>
      </trkpt>
      <trkpt lat="44.49654" lon="4.84123">
        <ele>388</ele>
        <time>2014-10-30T14:09:52Z</time>
      </trkpt>
      <trkpt lat="44.49654" lon="4.84123">
        <ele>388</ele>
        <time>2014-10-30T14:10:18Z</time>
      </trkpt>
      <trkpt lat="44.49654" lon="4.84123">
        <ele>388</ele>
        <time>2014-10-30T14:10:49Z</time>
      </trkpt>
      <trkpt lat="44.49654" lon="4.84121">
        <ele>388</ele>
        <time>2014-10-30T14:10:51Z</time>
      </trkpt>
      <trkpt lat="44.49642" lon="4.84115">
        <ele>390</ele>
        <time>2014-10-30T14:10:59Z</time>
      </trkpt>
      <trkpt lat="44.49616" lon="4.84099">
        <ele>391</ele>
        <time>2014-10-30T14:11:12Z</time>
      </trkpt>
      <trkpt lat="44.49606" lon="4.84091">
        <ele>391</ele>
        <time>2014-10-30T14:11:17Z</time>
      </trkpt>
      <trkpt lat="44.49575" lon="4.84057">
        <ele>391</ele>
        <time>2014-10-30T14:11:34Z</time>
      </trkpt>
      <trkpt lat="44.49557" lon="4.84038">
        <ele>390</ele>
        <time>2014-10-30T14:11:45Z</time>
      </trkpt>
      <trkpt lat="44.4955" lon="4.84033">
        <ele>390</ele>
        <time>2014-10-30T14:11:51Z</time>
      </trkpt>
      <trkpt lat="44.49546" lon="4.84033">
        <ele>390</ele>
        <time>2014-10-30T14:11:54Z</time>
      </trkpt>
      <trkpt lat="44.4954" lon="4.84032">
        <ele>390</ele>
        <time>2014-10-30T14:11:58Z</time>
      </trkpt>
      <trkpt lat="44.49532" lon="4.84026">
        <ele>390</ele>
        <time>2014-10-30T14:12:11Z</time>
      </trkpt>
      <trkpt lat="44.49527" lon="4.84023">
        <ele>390</ele>
        <time>2014-10-30T14:12:14Z</time>
      </trkpt>
      <trkpt lat="44.4952" lon="4.84018">
        <ele>389</ele>
        <time>2014-10-30T14:12:18Z</time>
      </trkpt>
      <trkpt lat="44.49511" lon="4.84013">
        <ele>389</ele>
        <time>2014-10-30T14:12:30Z</time>
      </trkpt>
      <trkpt lat="44.49509" lon="4.84013">
        <ele>389</ele>
        <time>2014-10-30T14:12:39Z</time>
      </trkpt>
      <trkpt lat="44.49502" lon="4.84011">
        <ele>389</ele>
        <time>2014-10-30T14:12:43Z</time>
      </trkpt>
      <trkpt lat="44.49477" lon="4.84006">
        <ele>389</ele>
        <time>2014-10-30T14:12:53Z</time>
      </trkpt>
      <trkpt lat="44.49453" lon="4.83996">
        <ele>389</ele>
        <time>2014-10-30T14:13:03Z</time>
      </trkpt>
      <trkpt lat="44.49438" lon="4.84009">
        <ele>389</ele>
        <time>2014-10-30T14:13:13Z</time>
      </trkpt>
      <trkpt lat="44.49414" lon="4.83999">
        <ele>389</ele>
        <time>2014-10-30T14:13:23Z</time>
      </trkpt>
      <trkpt lat="44.49397" lon="4.83984">
        <ele>389</ele>
        <time>2014-10-30T14:13:32Z</time>
      </trkpt>
      <trkpt lat="44.49382" lon="4.83979">
        <ele>388</ele>
        <time>2014-10-30T14:13:37Z</time>
      </trkpt>
      <trkpt lat="44.49344" lon="4.83951">
        <ele>388</ele>
        <time>2014-10-30T14:13:50Z</time>
      </trkpt>
      <trkpt lat="44.49302" lon="4.83947">
        <ele>387</ele>
        <time>2014-10-30T14:14:03Z</time>
      </trkpt>
      <trkpt lat="44.49258" lon="4.83945">
        <ele>386</ele>
        <time>2014-10-30T14:14:17Z</time>
      </trkpt>
      <trkpt lat="44.4923" lon="4.83942">
        <ele>386</ele>
        <time>2014-10-30T14:14:27Z</time>
      </trkpt>
      <trkpt lat="44.49224" lon="4.83941">
        <ele>386</ele>
        <time>2014-10-30T14:14:29Z</time>
      </trkpt>
      <trkpt lat="44.49189" lon="4.83947">
        <ele>384</ele>
        <time>2014-10-30T14:14:42Z</time>
      </trkpt>
      <trkpt lat="44.49182" lon="4.83946">
        <ele>384</ele>
        <time>2014-10-30T14:14:45Z</time>
      </trkpt>
      <trkpt lat="44.49158" lon="4.83941">
        <ele>384</ele>
        <time>2014-10-30T14:14:55Z</time>
      </trkpt>
      <trkpt lat="44.49152" lon="4.83942">
        <ele>384</ele>
        <time>2014-10-30T14:14:57Z</time>
      </trkpt>
      <trkpt lat="44.49126" lon="4.8395">
        <ele>383</ele>
        <time>2014-10-30T14:15:06Z</time>
      </trkpt>
      <trkpt lat="44.49093" lon="4.83946">
        <ele>382</ele>
        <time>2014-10-30T14:15:18Z</time>
      </trkpt>
      <trkpt lat="44.49058" lon="4.83948">
        <ele>382</ele>
        <time>2014-10-30T14:15:30Z</time>
      </trkpt>
      <trkpt lat="44.4903" lon="4.83944">
        <ele>381</ele>
        <time>2014-10-30T14:15:39Z</time>
      </trkpt>
      <trkpt lat="44.49023" lon="4.83942">
        <ele>381</ele>
        <time>2014-10-30T14:15:48Z</time>
      </trkpt>
      <trkpt lat="44.49023" lon="4.83942">
        <ele>381</ele>
        <time>2014-10-30T14:16:07Z</time>
      </trkpt>
      <trkpt lat="44.49023" lon="4.83943">
        <ele>381</ele>
        <time>2014-10-30T14:16:26Z</time>
      </trkpt>
      <trkpt lat="44.49023" lon="4.83943">
        <ele>381</ele>
        <time>2014-10-30T14:16:52Z</time>
      </trkpt>
      <trkpt lat="44.49023" lon="4.83943">
        <ele>381</ele>
        <time>2014-10-30T14:17:13Z</time>
      </trkpt>
      <trkpt lat="44.49023" lon="4.83943">
        <ele>381</ele>
        <time>2014-10-30T14:17:37Z</time>
      </trkpt>
      <trkpt lat="44.49023" lon="4.83943">
        <ele>381</ele>
        <time>2014-10-30T14:17:57Z</time>
      </trkpt>
      <trkpt lat="44.49023" lon="4.83943">
        <ele>381</ele>
        <time>2014-10-30T14:18:10Z</time>
      </trkpt>
      <trkpt lat="44.49024" lon="4.83943">
        <ele>381</ele>
        <time>2014-10-30T14:18:37Z</time>
      </trkpt>
      <trkpt lat="44.49024" lon="4.83942">
        <ele>381</ele>
        <time>2014-10-30T14:19:11Z</time>
      </trkpt>
      <trkpt lat="44.49024" lon="4.83942">
        <ele>381</ele>
        <time>2014-10-30T14:19:45Z</time>
      </trkpt>
      <trkpt lat="44.49025" lon="4.83938">
        <ele>381</ele>
        <time>2014-10-30T14:19:49Z</time>
      </trkpt>
      <trkpt lat="44.49028" lon="4.8393">
        <ele>381</ele>
        <time>2014-10-30T14:19:54Z</time>
      </trkpt>
      <trkpt lat="44.4904" lon="4.83916">
        <ele>382</ele>
        <time>2014-10-30T14:20:05Z</time>
      </trkpt>
      <trkpt lat="44.49046" lon="4.8391">
        <ele>382</ele>
        <time>2014-10-30T14:20:08Z</time>
      </trkpt>
      <trkpt lat="44.49056" lon="4.83898">
        <ele>383</ele>
        <time>2014-10-30T14:20:14Z</time>
      </trkpt>
      <trkpt lat="44.49072" lon="4.83873">
        <ele>384</ele>
        <time>2014-10-30T14:20:25Z</time>
      </trkpt>
      <trkpt lat="44.4909" lon="4.83855">
        <ele>385</ele>
        <time>2014-10-30T14:20:36Z</time>
      </trkpt>
      <trkpt lat="44.49097" lon="4.83846">
        <ele>386</ele>
        <time>2014-10-30T14:20:41Z</time>
      </trkpt>
      <trkpt lat="44.49101" lon="4.8384">
        <ele>386</ele>
        <time>2014-10-30T14:20:45Z</time>
      </trkpt>
      <trkpt lat="44.49107" lon="4.8383">
        <ele>386</ele>
        <time>2014-10-30T14:20:50Z</time>
      </trkpt>
      <trkpt lat="44.49113" lon="4.83826">
        <ele>386</ele>
        <time>2014-10-30T14:20:53Z</time>
      </trkpt>
      <trkpt lat="44.49135" lon="4.83803">
        <ele>387</ele>
        <time>2014-10-30T14:21:06Z</time>
      </trkpt>
      <trkpt lat="44.49136" lon="4.83801">
        <ele>387</ele>
        <time>2014-10-30T14:21:07Z</time>
      </trkpt>
      <trkpt lat="44.4916" lon="4.83777">
        <ele>387</ele>
        <time>2014-10-30T14:21:21Z</time>
      </trkpt>
      <trkpt lat="44.49165" lon="4.83767">
        <ele>387</ele>
        <time>2014-10-30T14:21:25Z</time>
      </trkpt>
      <trkpt lat="44.49186" lon="4.83737">
        <ele>387</ele>
        <time>2014-10-30T14:21:38Z</time>
      </trkpt>
      <trkpt lat="44.49202" lon="4.8372">
        <ele>387</ele>
        <time>2014-10-30T14:21:50Z</time>
      </trkpt>
      <trkpt lat="44.49206" lon="4.83716">
        <ele>387</ele>
        <time>2014-10-30T14:22:01Z</time>
      </trkpt>
      <trkpt lat="44.49211" lon="4.83708">
        <ele>387</ele>
        <time>2014-10-30T14:22:14Z</time>
      </trkpt>
      <trkpt lat="44.4922" lon="4.83699">
        <ele>387</ele>
        <time>2014-10-30T14:22:20Z</time>
      </trkpt>
      <trkpt lat="44.49236" lon="4.83682">
        <ele>387</ele>
        <time>2014-10-30T14:22:32Z</time>
      </trkpt>
      <trkpt lat="44.49237" lon="4.83681">
        <ele>387</ele>
        <time>2014-10-30T14:22:37Z</time>
      </trkpt>
      <trkpt lat="44.49253" lon="4.83659">
        <ele>387</ele>
        <time>2014-10-30T14:22:51Z</time>
      </trkpt>
      <trkpt lat="44.49256" lon="4.83656">
        <ele>387</ele>
        <time>2014-10-30T14:22:53Z</time>
      </trkpt>
      <trkpt lat="44.49264" lon="4.83646">
        <ele>387</ele>
        <time>2014-10-30T14:22:59Z</time>
      </trkpt>
      <trkpt lat="44.49278" lon="4.83632">
        <ele>387</ele>
        <time>2014-10-30T14:23:10Z</time>
      </trkpt>
      <trkpt lat="44.49288" lon="4.8362">
        <ele>387</ele>
        <time>2014-10-30T14:23:18Z</time>
      </trkpt>
      <trkpt lat="44.49293" lon="4.83616">
        <ele>387</ele>
        <time>2014-10-30T14:23:30Z</time>
      </trkpt>
      <trkpt lat="44.49293" lon="4.83615">
        <ele>387</ele>
        <time>2014-10-30T14:23:49Z</time>
      </trkpt>
      <trkpt lat="44.49308" lon="4.83587">
        <ele>387</ele>
        <time>2014-10-30T14:24:04Z</time>
      </trkpt>
      <trkpt lat="44.4931" lon="4.83585">
        <ele>387</ele>
        <time>2014-10-30T14:24:05Z</time>
      </trkpt>
      <trkpt lat="44.4932" lon="4.83566">
        <ele>388</ele>
        <time>2014-10-30T14:24:14Z</time>
      </trkpt>
      <trkpt lat="44.49336" lon="4.83539">
        <ele>388</ele>
        <time>2014-10-30T14:24:27Z</time>
      </trkpt>
      <trkpt lat="44.49351" lon="4.83512">
        <ele>389</ele>
        <time>2014-10-30T14:24:39Z</time>
      </trkpt>
      <trkpt lat="44.49365" lon="4.83487">
        <ele>390</ele>
        <time>2014-10-30T14:24:52Z</time>
      </trkpt>
      <trkpt lat="44.49374" lon="4.83473">
        <ele>391</ele>
        <time>2014-10-30T14:24:59Z</time>
      </trkpt>
      <trkpt lat="44.49378" lon="4.83463">
        <ele>391</ele>
        <time>2014-10-30T14:25:03Z</time>
      </trkpt>
      <trkpt lat="44.49386" lon="4.8345">
        <ele>392</ele>
        <time>2014-10-30T14:25:10Z</time>
      </trkpt>
      <trkpt lat="44.49398" lon="4.83433">
        <ele>392</ele>
        <time>2014-10-30T14:25:22Z</time>
      </trkpt>
      <trkpt lat="44.49406" lon="4.83419">
        <ele>393</ele>
        <time>2014-10-30T14:25:30Z</time>
      </trkpt>
      <trkpt lat="44.49417" lon="4.83401">
        <ele>393</ele>
        <time>2014-10-30T14:25:40Z</time>
      </trkpt>
      <trkpt lat="44.49437" lon="4.83372">
        <ele>393</ele>
        <time>2014-10-30T14:25:52Z</time>
      </trkpt>
      <trkpt lat="44.49453" lon="4.83341">
        <ele>394</ele>
        <time>2014-10-30T14:26:04Z</time>
      </trkpt>
      <trkpt lat="44.49469" lon="4.83313">
        <ele>396</ele>
        <time>2014-10-30T14:26:17Z</time>
      </trkpt>
      <trkpt lat="44.49487" lon="4.83285">
        <ele>396</ele>
        <time>2014-10-30T14:26:29Z</time>
      </trkpt>
      <trkpt lat="44.49489" lon="4.83284">
        <ele>396</ele>
        <time>2014-10-30T14:26:30Z</time>
      </trkpt>
      <trkpt lat="44.49507" lon="4.83255">
        <ele>398</ele>
        <time>2014-10-30T14:26:42Z</time>
      </trkpt>
      <trkpt lat="44.49517" lon="4.83236">
        <ele>399</ele>
        <time>2014-10-30T14:26:51Z</time>
      </trkpt>
      <trkpt lat="44.49528" lon="4.83214">
        <ele>400</ele>
        <time>2014-10-30T14:27:03Z</time>
      </trkpt>
      <trkpt lat="44.49535" lon="4.83196">
        <ele>401</ele>
        <time>2014-10-30T14:27:10Z</time>
      </trkpt>
      <trkpt lat="44.49537" lon="4.8319">
        <ele>401</ele>
        <time>2014-10-30T14:27:12Z</time>
      </trkpt>
      <trkpt lat="44.49541" lon="4.83177">
        <ele>401</ele>
        <time>2014-10-30T14:27:16Z</time>
      </trkpt>
      <trkpt lat="44.49552" lon="4.83139">
        <ele>402</ele>
        <time>2014-10-30T14:27:28Z</time>
      </trkpt>
      <trkpt lat="44.49562" lon="4.83109">
        <ele>402</ele>
        <time>2014-10-30T14:27:38Z</time>
      </trkpt>
      <trkpt lat="44.49567" lon="4.83094">
        <ele>402</ele>
        <time>2014-10-30T14:27:43Z</time>
      </trkpt>
      <trkpt lat="44.49574" lon="4.8307">
        <ele>402</ele>
        <time>2014-10-30T14:27:51Z</time>
      </trkpt>
      <trkpt lat="44.4958" lon="4.83054">
        <ele>403</ele>
        <time>2014-10-30T14:28:03Z</time>
      </trkpt>
      <trkpt lat="44.49579" lon="4.83053">
        <ele>403</ele>
        <time>2014-10-30T14:28:15Z</time>
      </trkpt>
      <trkpt lat="44.49577" lon="4.83052">
        <ele>402</ele>
        <time>2014-10-30T14:28:46Z</time>
      </trkpt>
      <trkpt lat="44.49578" lon="4.83051">
        <ele>402</ele>
        <time>2014-10-30T14:29:10Z</time>
      </trkpt>
      <trkpt lat="44.49578" lon="4.83051">
        <ele>402</ele>
        <time>2014-10-30T14:29:43Z</time>
      </trkpt>
      <trkpt lat="44.49577" lon="4.8305">
        <ele>402</ele>
        <time>2014-10-30T14:30:10Z</time>
      </trkpt>
      <trkpt lat="44.49577" lon="4.83049">
        <ele>402</ele>
        <time>2014-10-30T14:30:43Z</time>
      </trkpt>
      <trkpt lat="44.49578" lon="4.83049">
        <ele>402</ele>
        <time>2014-10-30T14:31:12Z</time>
      </trkpt>
      <trkpt lat="44.49578" lon="4.83049">
        <ele>402</ele>
        <time>2014-10-30T14:31:15Z</time>
      </trkpt>
      <trkpt lat="44.49566" lon="4.83042">
        <ele>402</ele>
        <time>2014-10-30T14:31:23Z</time>
      </trkpt>
      <trkpt lat="44.49542" lon="4.83015">
        <ele>401</ele>
        <time>2014-10-30T14:31:35Z</time>
      </trkpt>
      <trkpt lat="44.49519" lon="4.82983">
        <ele>401</ele>
        <time>2014-10-30T14:31:46Z</time>
      </trkpt>
      <trkpt lat="44.49488" lon="4.82958">
        <ele>399</ele>
        <time>2014-10-30T14:31:57Z</time>
      </trkpt>
      <trkpt lat="44.49441" lon="4.82944">
        <ele>397</ele>
        <time>2014-10-30T14:32:09Z</time>
      </trkpt>
      <trkpt lat="44.49426" lon="4.82928">
        <ele>396</ele>
        <time>2014-10-30T14:32:14Z</time>
      </trkpt>
      <trkpt lat="44.49424" lon="4.82923">
        <ele>396</ele>
        <time>2014-10-30T14:32:15Z</time>
      </trkpt>
      <trkpt lat="44.49422" lon="4.82917">
        <ele>395</ele>
        <time>2014-10-30T14:32:16Z</time>
      </trkpt>
      <trkpt lat="44.49418" lon="4.82906">
        <ele>395</ele>
        <time>2014-10-30T14:32:18Z</time>
      </trkpt>
      <trkpt lat="44.49399" lon="4.82849">
        <ele>393</ele>
        <time>2014-10-30T14:32:28Z</time>
      </trkpt>
      <trkpt lat="44.49398" lon="4.82843">
        <ele>392</ele>
        <time>2014-10-30T14:32:29Z</time>
      </trkpt>
      <trkpt lat="44.49396" lon="4.82837">
        <ele>392</ele>
        <time>2014-10-30T14:32:30Z</time>
      </trkpt>
      <trkpt lat="44.49394" lon="4.82831">
        <ele>392</ele>
        <time>2014-10-30T14:32:31Z</time>
      </trkpt>
      <trkpt lat="44.49392" lon="4.82825">
        <ele>391</ele>
        <time>2014-10-30T14:32:32Z</time>
      </trkpt>
      <trkpt lat="44.49377" lon="4.82783">
        <ele>390</ele>
        <time>2014-10-30T14:32:38Z</time>
      </trkpt>
      <trkpt lat="44.49373" lon="4.82778">
        <ele>390</ele>
        <time>2014-10-30T14:32:39Z</time>
      </trkpt>
      <trkpt lat="44.49369" lon="4.82773">
        <ele>390</ele>
        <time>2014-10-30T14:32:40Z</time>
      </trkpt>
      <trkpt lat="44.49365" lon="4.82769">
        <ele>390</ele>
        <time>2014-10-30T14:32:41Z</time>
      </trkpt>
      <trkpt lat="44.49362" lon="4.82765">
        <ele>390</ele>
        <time>2014-10-30T14:32:42Z</time>
      </trkpt>
      <trkpt lat="44.49359" lon="4.82761">
        <ele>390</ele>
        <time>2014-10-30T14:32:43Z</time>
      </trkpt>
      <trkpt lat="44.49358" lon="4.82757">
        <ele>390</ele>
        <time>2014-10-30T14:32:44Z</time>
      </trkpt>
      <trkpt lat="44.49359" lon="4.82753">
        <ele>390</ele>
        <time>2014-10-30T14:32:45Z</time>
      </trkpt>
      <trkpt lat="44.49361" lon="4.8275">
        <ele>390</ele>
        <time>2014-10-30T14:32:46Z</time>
      </trkpt>
      <trkpt lat="44.49363" lon="4.82748">
        <ele>390</ele>
        <time>2014-10-30T14:32:47Z</time>
      </trkpt>
      <trkpt lat="44.49365" lon="4.82746">
        <ele>390</ele>
        <time>2014-10-30T14:32:48Z</time>
      </trkpt>
      <trkpt lat="44.49393" lon="4.82748">
        <ele>390</ele>
        <time>2014-10-30T14:32:59Z</time>
      </trkpt>
      <trkpt lat="44.49426" lon="4.8275">
        <ele>391</ele>
        <time>2014-10-30T14:33:11Z</time>
      </trkpt>
      <trkpt lat="44.49461" lon="4.82745">
        <ele>393</ele>
        <time>2014-10-30T14:33:23Z</time>
      </trkpt>
      <trkpt lat="44.49487" lon="4.82754">
        <ele>394</ele>
        <time>2014-10-30T14:33:32Z</time>
      </trkpt>
      <trkpt lat="44.49492" lon="4.82752">
        <ele>394</ele>
        <time>2014-10-30T14:33:34Z</time>
      </trkpt>
      <trkpt lat="44.49495" lon="4.8275">
        <ele>394</ele>
        <time>2014-10-30T14:33:35Z</time>
      </trkpt>
      <trkpt lat="44.49496" lon="4.82746">
        <ele>394</ele>
        <time>2014-10-30T14:33:36Z</time>
      </trkpt>
      <trkpt lat="44.49497" lon="4.82741">
        <ele>395</ele>
        <time>2014-10-30T14:33:37Z</time>
      </trkpt>
      <trkpt lat="44.49498" lon="4.82738">
        <ele>395</ele>
        <time>2014-10-30T14:33:38Z</time>
      </trkpt>
      <trkpt lat="44.49498" lon="4.82734">
        <ele>395</ele>
        <time>2014-10-30T14:33:39Z</time>
      </trkpt>
      <trkpt lat="44.49498" lon="4.82731">
        <ele>395</ele>
        <time>2014-10-30T14:33:40Z</time>
      </trkpt>
      <trkpt lat="44.49496" lon="4.82695">
        <ele>396</ele>
        <time>2014-10-30T14:33:50Z</time>
      </trkpt>
      <trkpt lat="44.49495" lon="4.82693">
        <ele>396</ele>
        <time>2014-10-30T14:33:51Z</time>
      </trkpt>
      <trkpt lat="44.49491" lon="4.8265">
        <ele>399</ele>
        <time>2014-10-30T14:34:05Z</time>
      </trkpt>
      <trkpt lat="44.49488" lon="4.82609">
        <ele>400</ele>
        <time>2014-10-30T14:34:17Z</time>
      </trkpt>
      <trkpt lat="44.49483" lon="4.8256">
        <ele>400</ele>
        <time>2014-10-30T14:34:31Z</time>
      </trkpt>
      <trkpt lat="44.49482" lon="4.82496">
        <ele>401</ele>
        <time>2014-10-30T14:34:46Z</time>
      </trkpt>
      <trkpt lat="44.49509" lon="4.82444">
        <ele>402</ele>
        <time>2014-10-30T14:35:02Z</time>
      </trkpt>
      <trkpt lat="44.49527" lon="4.824">
        <ele>402</ele>
        <time>2014-10-30T14:35:14Z</time>
      </trkpt>
      <trkpt lat="44.49532" lon="4.82384">
        <ele>402</ele>
        <time>2014-10-30T14:35:18Z</time>
      </trkpt>
      <trkpt lat="44.49533" lon="4.82381">
        <ele>402</ele>
        <time>2014-10-30T14:35:19Z</time>
      </trkpt>
      <trkpt lat="44.49534" lon="4.82377">
        <ele>402</ele>
        <time>2014-10-30T14:35:20Z</time>
      </trkpt>
      <trkpt lat="44.49535" lon="4.82373">
        <ele>402</ele>
        <time>2014-10-30T14:35:21Z</time>
      </trkpt>
      <trkpt lat="44.49536" lon="4.82369">
        <ele>402</ele>
        <time>2014-10-30T14:35:22Z</time>
      </trkpt>
      <trkpt lat="44.49539" lon="4.82351">
        <ele>402</ele>
        <time>2014-10-30T14:35:32Z</time>
      </trkpt>
      <trkpt lat="44.49539" lon="4.82349">
        <ele>402</ele>
        <time>2014-10-30T14:35:59Z</time>
      </trkpt>
      <trkpt lat="44.49538" lon="4.82348">
        <ele>402</ele>
        <time>2014-10-30T14:36:10Z</time>
      </trkpt>
      <trkpt lat="44.49538" lon="4.82348">
        <ele>402</ele>
        <time>2014-10-30T14:36:16Z</time>
      </trkpt>
      <trkpt lat="44.49537" lon="4.82348">
        <ele>402</ele>
        <time>2014-10-30T14:36:31Z</time>
      </trkpt>
      <trkpt lat="44.49535" lon="4.82348">
        <ele>402</ele>
        <time>2014-10-30T14:36:52Z</time>
      </trkpt>
      <trkpt lat="44.49534" lon="4.82349">
        <ele>402</ele>
        <time>2014-10-30T14:36:53Z</time>
      </trkpt>
      <trkpt lat="44.49533" lon="4.82349">
        <ele>402</ele>
        <time>2014-10-30T14:36:54Z</time>
      </trkpt>
      <trkpt lat="44.49531" lon="4.8235">
        <ele>402</ele>
        <time>2014-10-30T14:36:55Z</time>
      </trkpt>
      <trkpt lat="44.4953" lon="4.8235">
        <ele>402</ele>
        <time>2014-10-30T14:36:56Z</time>
      </trkpt>
      <trkpt lat="44.49528" lon="4.82351">
        <ele>402</ele>
        <time>2014-10-30T14:36:57Z</time>
      </trkpt>
      <trkpt lat="44.49526" lon="4.82352">
        <ele>402</ele>
        <time>2014-10-30T14:36:58Z</time>
      </trkpt>
      <trkpt lat="44.49524" lon="4.82353">
        <ele>402</ele>
        <time>2014-10-30T14:36:59Z</time>
      </trkpt>
      <trkpt lat="44.4952" lon="4.82352">
        <ele>401</ele>
        <time>2014-10-30T14:37:11Z</time>
      </trkpt>
      <trkpt lat="44.49519" lon="4.8235">
        <ele>401</ele>
        <time>2014-10-30T14:37:15Z</time>
      </trkpt>
      <trkpt lat="44.49519" lon="4.82348">
        <ele>401</ele>
        <time>2014-10-30T14:37:16Z</time>
      </trkpt>
      <trkpt lat="44.49518" lon="4.82346">
        <ele>401</ele>
        <time>2014-10-30T14:37:17Z</time>
      </trkpt>
      <trkpt lat="44.49518" lon="4.82344">
        <ele>401</ele>
        <time>2014-10-30T14:37:18Z</time>
      </trkpt>
      <trkpt lat="44.49518" lon="4.82343">
        <ele>400</ele>
        <time>2014-10-30T14:37:19Z</time>
      </trkpt>
      <trkpt lat="44.49517" lon="4.82341">
        <ele>400</ele>
        <time>2014-10-30T14:37:20Z</time>
      </trkpt>
      <trkpt lat="44.49516" lon="4.82339">
        <ele>400</ele>
        <time>2014-10-30T14:37:21Z</time>
      </trkpt>
      <trkpt lat="44.49499" lon="4.82336">
        <ele>399</ele>
        <time>2014-10-30T14:37:30Z</time>
      </trkpt>
      <trkpt lat="44.49497" lon="4.82335">
        <ele>398</ele>
        <time>2014-10-30T14:37:31Z</time>
      </trkpt>
      <trkpt lat="44.49496" lon="4.82333">
        <ele>398</ele>
        <time>2014-10-30T14:37:32Z</time>
      </trkpt>
      <trkpt lat="44.49494" lon="4.82332">
        <ele>398</ele>
        <time>2014-10-30T14:37:33Z</time>
      </trkpt>
      <trkpt lat="44.49492" lon="4.8233">
        <ele>397</ele>
        <time>2014-10-30T14:37:34Z</time>
      </trkpt>
      <trkpt lat="44.4949" lon="4.82329">
        <ele>397</ele>
        <time>2014-10-30T14:37:35Z</time>
      </trkpt>
      <trkpt lat="44.49486" lon="4.82329">
        <ele>397</ele>
        <time>2014-10-30T14:37:36Z</time>
      </trkpt>
      <trkpt lat="44.49482" lon="4.82329">
        <ele>396</ele>
        <time>2014-10-30T14:37:37Z</time>
      </trkpt>
      <trkpt lat="44.49459" lon="4.82326">
        <ele>395</ele>
        <time>2014-10-30T14:37:43Z</time>
      </trkpt>
      <trkpt lat="44.49432" lon="4.82315">
        <ele>392</ele>
        <time>2014-10-30T14:37:51Z</time>
      </trkpt>
      <trkpt lat="44.4943" lon="4.82315">
        <ele>392</ele>
        <time>2014-10-30T14:37:52Z</time>
      </trkpt>
      <trkpt lat="44.49427" lon="4.82316">
        <ele>392</ele>
        <time>2014-10-30T14:37:53Z</time>
      </trkpt>
      <trkpt lat="44.49402" lon="4.82319">
        <ele>393</ele>
        <time>2014-10-30T14:38:04Z</time>
      </trkpt>
      <trkpt lat="44.49391" lon="4.82319">
        <ele>392</ele>
        <time>2014-10-30T14:38:08Z</time>
      </trkpt>
      <trkpt lat="44.49388" lon="4.82319">
        <ele>392</ele>
        <time>2014-10-30T14:38:09Z</time>
      </trkpt>
      <trkpt lat="44.49384" lon="4.82318">
        <ele>392</ele>
        <time>2014-10-30T14:38:10Z</time>
      </trkpt>
      <trkpt lat="44.49358" lon="4.82322">
        <ele>391</ele>
        <time>2014-10-30T14:38:19Z</time>
      </trkpt>
      <trkpt lat="44.49356" lon="4.82324">
        <ele>391</ele>
        <time>2014-10-30T14:38:20Z</time>
      </trkpt>
      <trkpt lat="44.49354" lon="4.82326">
        <ele>391</ele>
        <time>2014-10-30T14:38:21Z</time>
      </trkpt>
      <trkpt lat="44.49351" lon="4.82328">
        <ele>391</ele>
        <time>2014-10-30T14:38:22Z</time>
      </trkpt>
      <trkpt lat="44.49349" lon="4.8233">
        <ele>391</ele>
        <time>2014-10-30T14:38:23Z</time>
      </trkpt>
      <trkpt lat="44.49347" lon="4.82331">
        <ele>391</ele>
        <time>2014-10-30T14:38:24Z</time>
      </trkpt>
      <trkpt lat="44.49344" lon="4.82331">
        <ele>391</ele>
        <time>2014-10-30T14:38:25Z</time>
      </trkpt>
      <trkpt lat="44.49342" lon="4.82332">
        <ele>391</ele>
        <time>2014-10-30T14:38:26Z</time>
      </trkpt>
      <trkpt lat="44.49339" lon="4.82333">
        <ele>391</ele>
        <time>2014-10-30T14:38:27Z</time>
      </trkpt>
      <trkpt lat="44.49322" lon="4.82337">
        <ele>391</ele>
        <time>2014-10-30T14:38:33Z</time>
      </trkpt>
      <trkpt lat="44.49319" lon="4.82339">
        <ele>391</ele>
        <time>2014-10-30T14:38:34Z</time>
      </trkpt>
      <trkpt lat="44.49316" lon="4.8234">
        <ele>391</ele>
        <time>2014-10-30T14:38:35Z</time>
      </trkpt>
      <trkpt lat="44.49313" lon="4.82341">
        <ele>391</ele>
        <time>2014-10-30T14:38:36Z</time>
      </trkpt>
      <trkpt lat="44.4931" lon="4.82341">
        <ele>391</ele>
        <time>2014-10-30T14:38:37Z</time>
      </trkpt>
      <trkpt lat="44.49308" lon="4.82341">
        <ele>391</ele>
        <time>2014-10-30T14:38:38Z</time>
      </trkpt>
      <trkpt lat="44.49305" lon="4.82342">
        <ele>391</ele>
        <time>2014-10-30T14:38:39Z</time>
      </trkpt>
      <trkpt lat="44.49302" lon="4.82343">
        <ele>391</ele>
        <time>2014-10-30T14:38:40Z</time>
      </trkpt>
      <trkpt lat="44.49271" lon="4.82354">
        <ele>390</ele>
        <time>2014-10-30T14:38:51Z</time>
      </trkpt>
      <trkpt lat="44.49251" lon="4.82352">
        <ele>390</ele>
        <time>2014-10-30T14:39:00Z</time>
      </trkpt>
      <trkpt lat="44.49249" lon="4.82352">
        <ele>390</ele>
        <time>2014-10-30T14:39:01Z</time>
      </trkpt>
      <trkpt lat="44.49247" lon="4.82351">
        <ele>390</ele>
        <time>2014-10-30T14:39:02Z</time>
      </trkpt>
      <trkpt lat="44.49246" lon="4.8235">
        <ele>390</ele>
        <time>2014-10-30T14:39:03Z</time>
      </trkpt>
      <trkpt lat="44.49245" lon="4.82349">
        <ele>390</ele>
        <time>2014-10-30T14:39:04Z</time>
      </trkpt>
      <trkpt lat="44.49243" lon="4.82348">
        <ele>390</ele>
        <time>2014-10-30T14:39:05Z</time>
      </trkpt>
      <trkpt lat="44.49241" lon="4.82347">
        <ele>390</ele>
        <time>2014-10-30T14:39:06Z</time>
      </trkpt>
      <trkpt lat="44.49239" lon="4.82346">
        <ele>390</ele>
        <time>2014-10-30T14:39:07Z</time>
      </trkpt>
      <trkpt lat="44.49237" lon="4.82347">
        <ele>390</ele>
        <time>2014-10-30T14:39:08Z</time>
      </trkpt>
      <trkpt lat="44.49234" lon="4.82347">
        <ele>390</ele>
        <time>2014-10-30T14:39:09Z</time>
      </trkpt>
      <trkpt lat="44.4923" lon="4.82347">
        <ele>390</ele>
        <time>2014-10-30T14:39:10Z</time>
      </trkpt>
      <trkpt lat="44.49227" lon="4.82347">
        <ele>390</ele>
        <time>2014-10-30T14:39:11Z</time>
      </trkpt>
      <trkpt lat="44.49225" lon="4.82344">
        <ele>390</ele>
        <time>2014-10-30T14:39:12Z</time>
      </trkpt>
      <trkpt lat="44.49224" lon="4.82342">
        <ele>390</ele>
        <time>2014-10-30T14:39:13Z</time>
      </trkpt>
      <trkpt lat="44.49222" lon="4.8234">
        <ele>390</ele>
        <time>2014-10-30T14:39:14Z</time>
      </trkpt>
      <trkpt lat="44.4922" lon="4.82338">
        <ele>390</ele>
        <time>2014-10-30T14:39:15Z</time>
      </trkpt>
      <trkpt lat="44.49218" lon="4.82337">
        <ele>390</ele>
        <time>2014-10-30T14:39:16Z</time>
      </trkpt>
      <trkpt lat="44.49215" lon="4.82335">
        <ele>390</ele>
        <time>2014-10-30T14:39:17Z</time>
      </trkpt>
      <trkpt lat="44.49213" lon="4.82332">
        <ele>390</ele>
        <time>2014-10-30T14:39:18Z</time>
      </trkpt>
      <trkpt lat="44.49212" lon="4.8233">
        <ele>389</ele>
        <time>2014-10-30T14:39:19Z</time>
      </trkpt>
      <trkpt lat="44.4921" lon="4.82328">
        <ele>389</ele>
        <time>2014-10-30T14:39:20Z</time>
      </trkpt>
      <trkpt lat="44.49208" lon="4.82326">
        <ele>389</ele>
        <time>2014-10-30T14:39:21Z</time>
      </trkpt>
      <trkpt lat="44.49206" lon="4.82324">
        <ele>389</ele>
        <time>2014-10-30T14:39:22Z</time>
      </trkpt>
      <trkpt lat="44.49203" lon="4.82323">
        <ele>388</ele>
        <time>2014-10-30T14:39:23Z</time>
      </trkpt>
      <trkpt lat="44.492" lon="4.82322">
        <ele>388</ele>
        <time>2014-10-30T14:39:24Z</time>
      </trkpt>
      <trkpt lat="44.49198" lon="4.82321">
        <ele>388</ele>
        <time>2014-10-30T14:39:25Z</time>
      </trkpt>
      <trkpt lat="44.49197" lon="4.8232">
        <ele>388</ele>
        <time>2014-10-30T14:39:26Z</time>
      </trkpt>
      <trkpt lat="44.49194" lon="4.82319">
        <ele>388</ele>
        <time>2014-10-30T14:39:27Z</time>
      </trkpt>
      <trkpt lat="44.49192" lon="4.82318">
        <ele>388</ele>
        <time>2014-10-30T14:39:28Z</time>
      </trkpt>
      <trkpt lat="44.49189" lon="4.82317">
        <ele>388</ele>
        <time>2014-10-30T14:39:29Z</time>
      </trkpt>
      <trkpt lat="44.49187" lon="4.82316">
        <ele>387</ele>
        <time>2014-10-30T14:39:30Z</time>
      </trkpt>
      <trkpt lat="44.49184" lon="4.82315">
        <ele>387</ele>
        <time>2014-10-30T14:39:31Z</time>
      </trkpt>
      <trkpt lat="44.49179" lon="4.82311">
        <ele>387</ele>
        <time>2014-10-30T14:39:34Z</time>
      </trkpt>
      <trkpt lat="44.49178" lon="4.82311">
        <ele>387</ele>
        <time>2014-10-30T14:39:35Z</time>
      </trkpt>
      <trkpt lat="44.49176" lon="4.82311">
        <ele>387</ele>
        <time>2014-10-30T14:39:36Z</time>
      </trkpt>
      <trkpt lat="44.49174" lon="4.82311">
        <ele>387</ele>
        <time>2014-10-30T14:39:37Z</time>
      </trkpt>
      <trkpt lat="44.49164" lon="4.82308">
        <ele>386</ele>
        <time>2014-10-30T14:39:41Z</time>
      </trkpt>
      <trkpt lat="44.49159" lon="4.8231">
        <ele>386</ele>
        <time>2014-10-30T14:39:45Z</time>
      </trkpt>
      <trkpt lat="44.49153" lon="4.82306">
        <ele>386</ele>
        <time>2014-10-30T14:39:50Z</time>
      </trkpt>
      <trkpt lat="44.49138" lon="4.82302">
        <ele>385</ele>
        <time>2014-10-30T14:40:03Z</time>
      </trkpt>
      <trkpt lat="44.49127" lon="4.823">
        <ele>385</ele>
        <time>2014-10-30T14:40:27Z</time>
      </trkpt>
      <trkpt lat="44.4912" lon="4.82301">
        <ele>385</ele>
        <time>2014-10-30T14:40:30Z</time>
      </trkpt>
      <trkpt lat="44.49097" lon="4.82296">
        <ele>384</ele>
        <time>2014-10-30T14:40:41Z</time>
      </trkpt>
      <trkpt lat="44.49094" lon="4.82295">
        <ele>384</ele>
        <time>2014-10-30T14:40:42Z</time>
      </trkpt>
      <trkpt lat="44.49088" lon="4.82292">
        <ele>384</ele>
        <time>2014-10-30T14:40:45Z</time>
      </trkpt>
      <trkpt lat="44.49078" lon="4.8229">
        <ele>383</ele>
        <time>2014-10-30T14:40:50Z</time>
      </trkpt>
      <trkpt lat="44.49073" lon="4.8229">
        <ele>383</ele>
        <time>2014-10-30T14:40:53Z</time>
      </trkpt>
      <trkpt lat="44.49062" lon="4.82288">
        <ele>383</ele>
        <time>2014-10-30T14:40:58Z</time>
      </trkpt>
      <trkpt lat="44.49039" lon="4.82292">
        <ele>382</ele>
        <time>2014-10-30T14:41:06Z</time>
      </trkpt>
      <trkpt lat="44.49027" lon="4.823">
        <ele>382</ele>
        <time>2014-10-30T14:41:10Z</time>
      </trkpt>
      <trkpt lat="44.49023" lon="4.82302">
        <ele>382</ele>
        <time>2014-10-30T14:41:12Z</time>
      </trkpt>
      <trkpt lat="44.4902" lon="4.82305">
        <ele>383</ele>
        <time>2014-10-30T14:41:27Z</time>
      </trkpt>
      <trkpt lat="44.49017" lon="4.82324">
        <ele>383</ele>
        <time>2014-10-30T14:41:40Z</time>
      </trkpt>
      <trkpt lat="44.49011" lon="4.82361">
        <ele>383</ele>
        <time>2014-10-30T14:41:53Z</time>
      </trkpt>
      <trkpt lat="44.4901" lon="4.82407">
        <ele>383</ele>
        <time>2014-10-30T14:42:06Z</time>
      </trkpt>
      <trkpt lat="44.49014" lon="4.82422">
        <ele>382</ele>
        <time>2014-10-30T14:42:09Z</time>
      </trkpt>
      <trkpt lat="44.49015" lon="4.82428">
        <ele>382</ele>
        <time>2014-10-30T14:42:10Z</time>
      </trkpt>
      <trkpt lat="44.49016" lon="4.82442">
        <ele>382</ele>
        <time>2014-10-30T14:42:12Z</time>
      </trkpt>
      <trkpt lat="44.49016" lon="4.82448">
        <ele>382</ele>
        <time>2014-10-30T14:42:13Z</time>
      </trkpt>
      <trkpt lat="44.49013" lon="4.82453">
        <ele>381</ele>
        <time>2014-10-30T14:42:14Z</time>
      </trkpt>
      <trkpt lat="44.49009" lon="4.82455">
        <ele>381</ele>
        <time>2014-10-30T14:42:15Z</time>
      </trkpt>
      <trkpt lat="44.49005" lon="4.82455">
        <ele>381</ele>
        <time>2014-10-30T14:42:16Z</time>
      </trkpt>
      <trkpt lat="44.49002" lon="4.82452">
        <ele>381</ele>
        <time>2014-10-30T14:42:17Z</time>
      </trkpt>
      <trkpt lat="44.48998" lon="4.82449">
        <ele>381</ele>
        <time>2014-10-30T14:42:18Z</time>
      </trkpt>
      <trkpt lat="44.48969" lon="4.82432">
        <ele>381</ele>
        <time>2014-10-30T14:42:28Z</time>
      </trkpt>
      <trkpt lat="44.48932" lon="4.82415">
        <ele>380</ele>
        <time>2014-10-30T14:42:40Z</time>
      </trkpt>
      <trkpt lat="44.48913" lon="4.82399">
        <ele>380</ele>
        <time>2014-10-30T14:42:45Z</time>
      </trkpt>
      <trkpt lat="44.48886" lon="4.82387">
        <ele>379</ele>
        <time>2014-10-30T14:42:51Z</time>
      </trkpt>
      <trkpt lat="44.48881" lon="4.82386">
        <ele>379</ele>
        <time>2014-10-30T14:42:52Z</time>
      </trkpt>
      <trkpt lat="44.48872" lon="4.82384">
        <ele>379</ele>
        <time>2014-10-30T14:42:54Z</time>
      </trkpt>
      <trkpt lat="44.48859" lon="4.82385">
        <ele>379</ele>
        <time>2014-10-30T14:42:57Z</time>
      </trkpt>
      <trkpt lat="44.48836" lon="4.82391">
        <ele>378</ele>
        <time>2014-10-30T14:43:02Z</time>
      </trkpt>
      <trkpt lat="44.48832" lon="4.82391">
        <ele>378</ele>
        <time>2014-10-30T14:43:03Z</time>
      </trkpt>
      <trkpt lat="44.48807" lon="4.8239">
        <ele>378</ele>
        <time>2014-10-30T14:43:09Z</time>
      </trkpt>
      <trkpt lat="44.4879" lon="4.82386">
        <ele>378</ele>
        <time>2014-10-30T14:43:13Z</time>
      </trkpt>
      <trkpt lat="44.48785" lon="4.82385">
        <ele>378</ele>
        <time>2014-10-30T14:43:14Z</time>
      </trkpt>
      <trkpt lat="44.48746" lon="4.82373">
        <ele>377</ele>
        <time>2014-10-30T14:43:22Z</time>
      </trkpt>
      <trkpt lat="44.48742" lon="4.82373">
        <ele>377</ele>
        <time>2014-10-30T14:43:23Z</time>
      </trkpt>
      <trkpt lat="44.48737" lon="4.82373">
        <ele>377</ele>
        <time>2014-10-30T14:43:24Z</time>
      </trkpt>
      <trkpt lat="44.48728" lon="4.82374">
        <ele>377</ele>
        <time>2014-10-30T14:43:26Z</time>
      </trkpt>
      <trkpt lat="44.48723" lon="4.82373">
        <ele>377</ele>
        <time>2014-10-30T14:43:27Z</time>
      </trkpt>
      <trkpt lat="44.48718" lon="4.8237">
        <ele>377</ele>
        <time>2014-10-30T14:43:28Z</time>
      </trkpt>
      <trkpt lat="44.48713" lon="4.82366">
        <ele>377</ele>
        <time>2014-10-30T14:43:29Z</time>
      </trkpt>
      <trkpt lat="44.48709" lon="4.82361">
        <ele>376</ele>
        <time>2014-10-30T14:43:30Z</time>
      </trkpt>
      <trkpt lat="44.48705" lon="4.82356">
        <ele>376</ele>
        <time>2014-10-30T14:43:31Z</time>
      </trkpt>
      <trkpt lat="44.48701" lon="4.82351">
        <ele>376</ele>
        <time>2014-10-30T14:43:32Z</time>
      </trkpt>
      <trkpt lat="44.48697" lon="4.82347">
        <ele>376</ele>
        <time>2014-10-30T14:43:33Z</time>
      </trkpt>
      <trkpt lat="44.48692" lon="4.82343">
        <ele>376</ele>
        <time>2014-10-30T14:43:34Z</time>
      </trkpt>
      <trkpt lat="44.48645" lon="4.8231">
        <ele>376</ele>
        <time>2014-10-30T14:43:44Z</time>
      </trkpt>
      <trkpt lat="44.48636" lon="4.82301">
        <ele>376</ele>
        <time>2014-10-30T14:43:46Z</time>
      </trkpt>
      <trkpt lat="44.48631" lon="4.82297">
        <ele>376</ele>
        <time>2014-10-30T14:43:47Z</time>
      </trkpt>
      <trkpt lat="44.48628" lon="4.82292">
        <ele>376</ele>
        <time>2014-10-30T14:43:48Z</time>
      </trkpt>
      <trkpt lat="44.48616" lon="4.82282">
        <ele>376</ele>
        <time>2014-10-30T14:43:51Z</time>
      </trkpt>
      <trkpt lat="44.48611" lon="4.82279">
        <ele>376</ele>
        <time>2014-10-30T14:43:52Z</time>
      </trkpt>
      <trkpt lat="44.48602" lon="4.82273">
        <ele>376</ele>
        <time>2014-10-30T14:43:54Z</time>
      </trkpt>
      <trkpt lat="44.48598" lon="4.8227">
        <ele>376</ele>
        <time>2014-10-30T14:43:55Z</time>
      </trkpt>
      <trkpt lat="44.48585" lon="4.82264">
        <ele>375</ele>
        <time>2014-10-30T14:43:58Z</time>
      </trkpt>
      <trkpt lat="44.48582" lon="4.82261">
        <ele>375</ele>
        <time>2014-10-30T14:43:59Z</time>
      </trkpt>
      <trkpt lat="44.48578" lon="4.82257">
        <ele>375</ele>
        <time>2014-10-30T14:44:00Z</time>
      </trkpt>
      <trkpt lat="44.48575" lon="4.82254">
        <ele>375</ele>
        <time>2014-10-30T14:44:01Z</time>
      </trkpt>
      <trkpt lat="44.48572" lon="4.8225">
        <ele>375</ele>
        <time>2014-10-30T14:44:02Z</time>
      </trkpt>
      <trkpt lat="44.48565" lon="4.82243">
        <ele>375</ele>
        <time>2014-10-30T14:44:04Z</time>
      </trkpt>
      <trkpt lat="44.48561" lon="4.82241">
        <ele>374</ele>
        <time>2014-10-30T14:44:05Z</time>
      </trkpt>
      <trkpt lat="44.48556" lon="4.8224">
        <ele>374</ele>
        <time>2014-10-30T14:44:06Z</time>
      </trkpt>
      <trkpt lat="44.48552" lon="4.82239">
        <ele>374</ele>
        <time>2014-10-30T14:44:07Z</time>
      </trkpt>
      <trkpt lat="44.48549" lon="4.82239">
        <ele>374</ele>
        <time>2014-10-30T14:44:08Z</time>
      </trkpt>
      <trkpt lat="44.48545" lon="4.82237">
        <ele>373</ele>
        <time>2014-10-30T14:44:09Z</time>
      </trkpt>
      <trkpt lat="44.48542" lon="4.82235">
        <ele>373</ele>
        <time>2014-10-30T14:44:10Z</time>
      </trkpt>
      <trkpt lat="44.4854" lon="4.82233">
        <ele>373</ele>
        <time>2014-10-30T14:44:11Z</time>
      </trkpt>
      <trkpt lat="44.48539" lon="4.82232">
        <ele>373</ele>
        <time>2014-10-30T14:44:12Z</time>
      </trkpt>
      <trkpt lat="44.48537" lon="4.8223">
        <ele>372</ele>
        <time>2014-10-30T14:44:13Z</time>
      </trkpt>
      <trkpt lat="44.48535" lon="4.82228">
        <ele>372</ele>
        <time>2014-10-30T14:44:15Z</time>
      </trkpt>
      <trkpt lat="44.48535" lon="4.82226">
        <ele>372</ele>
        <time>2014-10-30T14:44:16Z</time>
      </trkpt>
      <trkpt lat="44.48536" lon="4.82223">
        <ele>372</ele>
        <time>2014-10-30T14:44:19Z</time>
      </trkpt>
      <trkpt lat="44.48541" lon="4.8222">
        <ele>372</ele>
        <time>2014-10-30T14:44:26Z</time>
      </trkpt>
      <trkpt lat="44.48543" lon="4.82221">
        <ele>372</ele>
        <time>2014-10-30T14:44:27Z</time>
      </trkpt>
      <trkpt lat="44.48544" lon="4.82221">
        <ele>372</ele>
        <time>2014-10-30T14:44:28Z</time>
      </trkpt>
      <trkpt lat="44.48565" lon="4.82203">
        <ele>371</ele>
        <time>2014-10-30T14:44:37Z</time>
      </trkpt>
      <trkpt lat="44.48569" lon="4.822">
        <ele>371</ele>
        <time>2014-10-30T14:44:38Z</time>
      </trkpt>
      <trkpt lat="44.48593" lon="4.82181">
        <ele>370</ele>
        <time>2014-10-30T14:44:44Z</time>
      </trkpt>
      <trkpt lat="44.48597" lon="4.82178">
        <ele>370</ele>
        <time>2014-10-30T14:44:45Z</time>
      </trkpt>
      <trkpt lat="44.48619" lon="4.82165">
        <ele>368</ele>
        <time>2014-10-30T14:44:50Z</time>
      </trkpt>
      <trkpt lat="44.48634" lon="4.82151">
        <ele>366</ele>
        <time>2014-10-30T14:44:55Z</time>
      </trkpt>
      <trkpt lat="44.48648" lon="4.82139">
        <ele>363</ele>
        <time>2014-10-30T14:45:02Z</time>
      </trkpt>
      <trkpt lat="44.48669" lon="4.82125">
        <ele>361</ele>
        <time>2014-10-30T14:45:08Z</time>
      </trkpt>
      <trkpt lat="44.4868" lon="4.82119">
        <ele>359</ele>
        <time>2014-10-30T14:45:12Z</time>
      </trkpt>
      <trkpt lat="44.48683" lon="4.82114">
        <ele>358</ele>
        <time>2014-10-30T14:45:14Z</time>
      </trkpt>
      <trkpt lat="44.48685" lon="4.82111">
        <ele>357</ele>
        <time>2014-10-30T14:45:15Z</time>
      </trkpt>
      <trkpt lat="44.48693" lon="4.82094">
        <ele>353</ele>
        <time>2014-10-30T14:45:19Z</time>
      </trkpt>
      <trkpt lat="44.48698" lon="4.82087">
        <ele>351</ele>
        <time>2014-10-30T14:45:20Z</time>
      </trkpt>
      <trkpt lat="44.48718" lon="4.82067">
        <ele>347</ele>
        <time>2014-10-30T14:45:23Z</time>
      </trkpt>
      <trkpt lat="44.48726" lon="4.82059">
        <ele>345</ele>
        <time>2014-10-30T14:45:24Z</time>
      </trkpt>
      <trkpt lat="44.48758" lon="4.82034">
        <ele>341</ele>
        <time>2014-10-30T14:45:27Z</time>
      </trkpt>
      <trkpt lat="44.48783" lon="4.82009">
        <ele>338</ele>
        <time>2014-10-30T14:45:30Z</time>
      </trkpt>
      <trkpt lat="44.48831" lon="4.81971">
        <ele>334</ele>
        <time>2014-10-30T14:45:35Z</time>
      </trkpt>
      <trkpt lat="44.48862" lon="4.81946">
        <ele>330</ele>
        <time>2014-10-30T14:45:40Z</time>
      </trkpt>
      <trkpt lat="44.48894" lon="4.81913">
        <ele>327</ele>
        <time>2014-10-30T14:45:48Z</time>
      </trkpt>
      <trkpt lat="44.48903" lon="4.81899">
        <ele>325</ele>
        <time>2014-10-30T14:45:51Z</time>
      </trkpt>
      <trkpt lat="44.48908" lon="4.81894">
        <ele>325</ele>
        <time>2014-10-30T14:45:52Z</time>
      </trkpt>
      <trkpt lat="44.48912" lon="4.81892">
        <ele>324</ele>
        <time>2014-10-30T14:45:53Z</time>
      </trkpt>
      <trkpt lat="44.48945" lon="4.81878">
        <ele>323</ele>
        <time>2014-10-30T14:46:03Z</time>
      </trkpt>
      <trkpt lat="44.48972" lon="4.81868">
        <ele>323</ele>
        <time>2014-10-30T14:46:15Z</time>
      </trkpt>
      <trkpt lat="44.48977" lon="4.81867">
        <ele>322</ele>
        <time>2014-10-30T14:46:17Z</time>
      </trkpt>
      <trkpt lat="44.48979" lon="4.81867">
        <ele>322</ele>
        <time>2014-10-30T14:46:18Z</time>
      </trkpt>
      <trkpt lat="44.49006" lon="4.81871">
        <ele>321</ele>
        <time>2014-10-30T14:46:29Z</time>
      </trkpt>
      <trkpt lat="44.4903" lon="4.81882">
        <ele>321</ele>
        <time>2014-10-30T14:46:40Z</time>
      </trkpt>
      <trkpt lat="44.49031" lon="4.81883">
        <ele>321</ele>
        <time>2014-10-30T14:46:41Z</time>
      </trkpt>
      <trkpt lat="44.49034" lon="4.81883">
        <ele>320</ele>
        <time>2014-10-30T14:46:43Z</time>
      </trkpt>
      <trkpt lat="44.49035" lon="4.81884">
        <ele>320</ele>
        <time>2014-10-30T14:46:44Z</time>
      </trkpt>
      <trkpt lat="44.49037" lon="4.81884">
        <ele>320</ele>
        <time>2014-10-30T14:46:45Z</time>
      </trkpt>
      <trkpt lat="44.49038" lon="4.81885">
        <ele>320</ele>
        <time>2014-10-30T14:46:46Z</time>
      </trkpt>
      <trkpt lat="44.4904" lon="4.81885">
        <ele>320</ele>
        <time>2014-10-30T14:46:47Z</time>
      </trkpt>
      <trkpt lat="44.49041" lon="4.81886">
        <ele>320</ele>
        <time>2014-10-30T14:46:48Z</time>
      </trkpt>
      <trkpt lat="44.49069" lon="4.81894">
        <ele>319</ele>
        <time>2014-10-30T14:47:01Z</time>
      </trkpt>
      <trkpt lat="44.49093" lon="4.81905">
        <ele>318</ele>
        <time>2014-10-30T14:47:12Z</time>
      </trkpt>
      <trkpt lat="44.49094" lon="4.81905">
        <ele>318</ele>
        <time>2014-10-30T14:47:34Z</time>
      </trkpt>
      <trkpt lat="44.49094" lon="4.81905">
        <ele>318</ele>
        <time>2014-10-30T14:48:00Z</time>
      </trkpt>
      <trkpt lat="44.49096" lon="4.81906">
        <ele>318</ele>
        <time>2014-10-30T14:48:08Z</time>
      </trkpt>
      <trkpt lat="44.49098" lon="4.81906">
        <ele>318</ele>
        <time>2014-10-30T14:48:09Z</time>
      </trkpt>
      <trkpt lat="44.49099" lon="4.81907">
        <ele>318</ele>
        <time>2014-10-30T14:48:10Z</time>
      </trkpt>
      <trkpt lat="44.49101" lon="4.81907">
        <ele>318</ele>
        <time>2014-10-30T14:48:11Z</time>
      </trkpt>
      <trkpt lat="44.49103" lon="4.81907">
        <ele>318</ele>
        <time>2014-10-30T14:48:12Z</time>
      </trkpt>
      <trkpt lat="44.49105" lon="4.81907">
        <ele>318</ele>
        <time>2014-10-30T14:48:13Z</time>
      </trkpt>
      <trkpt lat="44.49107" lon="4.81907">
        <ele>317</ele>
        <time>2014-10-30T14:48:14Z</time>
      </trkpt>
      <trkpt lat="44.4911" lon="4.81907">
        <ele>317</ele>
        <time>2014-10-30T14:48:15Z</time>
      </trkpt>
      <trkpt lat="44.49129" lon="4.8191">
        <ele>316</ele>
        <time>2014-10-30T14:48:20Z</time>
      </trkpt>
      <trkpt lat="44.49133" lon="4.81911">
        <ele>316</ele>
        <time>2014-10-30T14:48:21Z</time>
      </trkpt>
      <trkpt lat="44.49138" lon="4.81913">
        <ele>316</ele>
        <time>2014-10-30T14:48:22Z</time>
      </trkpt>
      <trkpt lat="44.49143" lon="4.81914">
        <ele>315</ele>
        <time>2014-10-30T14:48:23Z</time>
      </trkpt>
      <trkpt lat="44.49149" lon="4.81913">
        <ele>314</ele>
        <time>2014-10-30T14:48:24Z</time>
      </trkpt>
      <trkpt lat="44.49154" lon="4.8191">
        <ele>313</ele>
        <time>2014-10-30T14:48:25Z</time>
      </trkpt>
      <trkpt lat="44.4916" lon="4.81908">
        <ele>312</ele>
        <time>2014-10-30T14:48:26Z</time>
      </trkpt>
      <trkpt lat="44.49165" lon="4.81907">
        <ele>312</ele>
        <time>2014-10-30T14:48:27Z</time>
      </trkpt>
      <trkpt lat="44.49171" lon="4.8191">
        <ele>311</ele>
        <time>2014-10-30T14:48:28Z</time>
      </trkpt>
      <trkpt lat="44.49176" lon="4.81912">
        <ele>311</ele>
        <time>2014-10-30T14:48:29Z</time>
      </trkpt>
      <trkpt lat="44.49181" lon="4.81914">
        <ele>310</ele>
        <time>2014-10-30T14:48:30Z</time>
      </trkpt>
      <trkpt lat="44.49185" lon="4.81916">
        <ele>310</ele>
        <time>2014-10-30T14:48:31Z</time>
      </trkpt>
      <trkpt lat="44.49246" lon="4.81934">
        <ele>307</ele>
        <time>2014-10-30T14:48:44Z</time>
      </trkpt>
      <trkpt lat="44.4925" lon="4.81935">
        <ele>307</ele>
        <time>2014-10-30T14:48:45Z</time>
      </trkpt>
      <trkpt lat="44.49259" lon="4.81935">
        <ele>308</ele>
        <time>2014-10-30T14:48:47Z</time>
      </trkpt>
      <trkpt lat="44.49263" lon="4.81936">
        <ele>308</ele>
        <time>2014-10-30T14:48:48Z</time>
      </trkpt>
      <trkpt lat="44.49277" lon="4.81935">
        <ele>308</ele>
        <time>2014-10-30T14:48:51Z</time>
      </trkpt>
      <trkpt lat="44.49281" lon="4.81934">
        <ele>307</ele>
        <time>2014-10-30T14:48:52Z</time>
      </trkpt>
      <trkpt lat="44.49286" lon="4.81932">
        <ele>307</ele>
        <time>2014-10-30T14:48:53Z</time>
      </trkpt>
      <trkpt lat="44.49297" lon="4.81924">
        <ele>306</ele>
        <time>2014-10-30T14:48:56Z</time>
      </trkpt>
      <trkpt lat="44.49301" lon="4.81921">
        <ele>305</ele>
        <time>2014-10-30T14:48:57Z</time>
      </trkpt>
      <trkpt lat="44.49305" lon="4.81919">
        <ele>305</ele>
        <time>2014-10-30T14:48:58Z</time>
      </trkpt>
      <trkpt lat="44.49343" lon="4.81902">
        <ele>303</ele>
        <time>2014-10-30T14:49:06Z</time>
      </trkpt>
      <trkpt lat="44.49403" lon="4.81884">
        <ele>302</ele>
        <time>2014-10-30T14:49:18Z</time>
      </trkpt>
      <trkpt lat="44.49436" lon="4.81871">
        <ele>300</ele>
        <time>2014-10-30T14:49:25Z</time>
      </trkpt>
      <trkpt lat="44.4944" lon="4.8187">
        <ele>300</ele>
        <time>2014-10-30T14:49:26Z</time>
      </trkpt>
      <trkpt lat="44.49461" lon="4.81863">
        <ele>298</ele>
        <time>2014-10-30T14:49:32Z</time>
      </trkpt>
      <trkpt lat="44.49471" lon="4.81858">
        <ele>298</ele>
        <time>2014-10-30T14:49:34Z</time>
      </trkpt>
      <trkpt lat="44.49488" lon="4.8185">
        <ele>296</ele>
        <time>2014-10-30T14:49:37Z</time>
      </trkpt>
      <trkpt lat="44.49519" lon="4.81837">
        <ele>295</ele>
        <time>2014-10-30T14:49:43Z</time>
      </trkpt>
      <trkpt lat="44.49566" lon="4.81814">
        <ele>294</ele>
        <time>2014-10-30T14:49:53Z</time>
      </trkpt>
      <trkpt lat="44.49569" lon="4.8181">
        <ele>293</ele>
        <time>2014-10-30T14:49:54Z</time>
      </trkpt>
      <trkpt lat="44.49572" lon="4.81805">
        <ele>293</ele>
        <time>2014-10-30T14:49:55Z</time>
      </trkpt>
      <trkpt lat="44.49575" lon="4.8179">
        <ele>291</ele>
        <time>2014-10-30T14:49:58Z</time>
      </trkpt>
      <trkpt lat="44.49575" lon="4.81785">
        <ele>290</ele>
        <time>2014-10-30T14:49:59Z</time>
      </trkpt>
      <trkpt lat="44.49573" lon="4.8178">
        <ele>290</ele>
        <time>2014-10-30T14:50:00Z</time>
      </trkpt>
      <trkpt lat="44.4957" lon="4.81775">
        <ele>290</ele>
        <time>2014-10-30T14:50:01Z</time>
      </trkpt>
      <trkpt lat="44.49567" lon="4.81769">
        <ele>290</ele>
        <time>2014-10-30T14:50:02Z</time>
      </trkpt>
      <trkpt lat="44.49564" lon="4.81764">
        <ele>290</ele>
        <time>2014-10-30T14:50:03Z</time>
      </trkpt>
      <trkpt lat="44.4954" lon="4.81743">
        <ele>289</ele>
        <time>2014-10-30T14:50:12Z</time>
      </trkpt>
      <trkpt lat="44.49535" lon="4.81725">
        <ele>288</ele>
        <time>2014-10-30T14:50:17Z</time>
      </trkpt>
      <trkpt lat="44.49536" lon="4.81721">
        <ele>289</ele>
        <time>2014-10-30T14:50:18Z</time>
      </trkpt>
      <trkpt lat="44.49537" lon="4.81717">
        <ele>289</ele>
        <time>2014-10-30T14:50:19Z</time>
      </trkpt>
      <trkpt lat="44.4954" lon="4.81714">
        <ele>289</ele>
        <time>2014-10-30T14:50:20Z</time>
      </trkpt>
      <trkpt lat="44.49542" lon="4.81711">
        <ele>290</ele>
        <time>2014-10-30T14:50:21Z</time>
      </trkpt>
      <trkpt lat="44.49565" lon="4.81697">
        <ele>291</ele>
        <time>2014-10-30T14:50:29Z</time>
      </trkpt>
      <trkpt lat="44.49601" lon="4.81694">
        <ele>290</ele>
        <time>2014-10-30T14:50:40Z</time>
      </trkpt>
      <trkpt lat="44.49657" lon="4.81711">
        <ele>290</ele>
        <time>2014-10-30T14:50:53Z</time>
      </trkpt>
      <trkpt lat="44.49683" lon="4.81722">
        <ele>290</ele>
        <time>2014-10-30T14:50:59Z</time>
      </trkpt>
      <trkpt lat="44.4969" lon="4.81725">
        <ele>290</ele>
        <time>2014-10-30T14:51:01Z</time>
      </trkpt>
      <trkpt lat="44.49694" lon="4.81728">
        <ele>290</ele>
        <time>2014-10-30T14:51:02Z</time>
      </trkpt>
      <trkpt lat="44.49699" lon="4.8173">
        <ele>290</ele>
        <time>2014-10-30T14:51:03Z</time>
      </trkpt>
      <trkpt lat="44.49761" lon="4.81755">
        <ele>289</ele>
        <time>2014-10-30T14:51:15Z</time>
      </trkpt>
      <trkpt lat="44.49771" lon="4.81755">
        <ele>288</ele>
        <time>2014-10-30T14:51:17Z</time>
      </trkpt>
      <trkpt lat="44.49782" lon="4.81755">
        <ele>288</ele>
        <time>2014-10-30T14:51:19Z</time>
      </trkpt>
      <trkpt lat="44.49787" lon="4.81755">
        <ele>288</ele>
        <time>2014-10-30T14:51:20Z</time>
      </trkpt>
      <trkpt lat="44.49791" lon="4.81755">
        <ele>288</ele>
        <time>2014-10-30T14:51:21Z</time>
      </trkpt>
      <trkpt lat="44.49797" lon="4.81757">
        <ele>288</ele>
        <time>2014-10-30T14:51:22Z</time>
      </trkpt>
      <trkpt lat="44.49802" lon="4.81758">
        <ele>288</ele>
        <time>2014-10-30T14:51:23Z</time>
      </trkpt>
      <trkpt lat="44.49806" lon="4.81758">
        <ele>289</ele>
        <time>2014-10-30T14:51:24Z</time>
      </trkpt>
      <trkpt lat="44.49811" lon="4.81758">
        <ele>289</ele>
        <time>2014-10-30T14:51:25Z</time>
      </trkpt>
      <trkpt lat="44.49817" lon="4.81756">
        <ele>289</ele>
        <time>2014-10-30T14:51:26Z</time>
      </trkpt>
      <trkpt lat="44.49821" lon="4.81752">
        <ele>289</ele>
        <time>2014-10-30T14:51:27Z</time>
      </trkpt>
      <trkpt lat="44.49825" lon="4.81748">
        <ele>289</ele>
        <time>2014-10-30T14:51:28Z</time>
      </trkpt>
      <trkpt lat="44.49828" lon="4.81743">
        <ele>290</ele>
        <time>2014-10-30T14:51:29Z</time>
      </trkpt>
      <trkpt lat="44.49829" lon="4.81738">
        <ele>290</ele>
        <time>2014-10-30T14:51:30Z</time>
      </trkpt>
      <trkpt lat="44.4983" lon="4.81732">
        <ele>290</ele>
        <time>2014-10-30T14:51:31Z</time>
      </trkpt>
      <trkpt lat="44.4984" lon="4.81696">
        <ele>292</ele>
        <time>2014-10-30T14:51:40Z</time>
      </trkpt>
      <trkpt lat="44.49843" lon="4.81693">
        <ele>292</ele>
        <time>2014-10-30T14:51:41Z</time>
      </trkpt>
      <trkpt lat="44.4989" lon="4.81678">
        <ele>296</ele>
        <time>2014-10-30T14:51:53Z</time>
      </trkpt>
      <trkpt lat="44.49945" lon="4.81673">
        <ele>294</ele>
        <time>2014-10-30T14:52:06Z</time>
      </trkpt>
      <trkpt lat="44.49955" lon="4.81675">
        <ele>294</ele>
        <time>2014-10-30T14:52:08Z</time>
      </trkpt>
      <trkpt lat="44.4996" lon="4.81676">
        <ele>294</ele>
        <time>2014-10-30T14:52:09Z</time>
      </trkpt>
      <trkpt lat="44.49965" lon="4.81677">
        <ele>293</ele>
        <time>2014-10-30T14:52:10Z</time>
      </trkpt>
      <trkpt lat="44.4997" lon="4.81679">
        <ele>293</ele>
        <time>2014-10-30T14:52:11Z</time>
      </trkpt>
      <trkpt lat="44.49975" lon="4.81681">
        <ele>292</ele>
        <time>2014-10-30T14:52:12Z</time>
      </trkpt>
      <trkpt lat="44.4998" lon="4.81683">
        <ele>292</ele>
        <time>2014-10-30T14:52:13Z</time>
      </trkpt>
      <trkpt lat="44.50008" lon="4.81709">
        <ele>293</ele>
        <time>2014-10-30T14:52:20Z</time>
      </trkpt>
      <trkpt lat="44.50033" lon="4.8176">
        <ele>294</ele>
        <time>2014-10-30T14:52:31Z</time>
      </trkpt>
      <trkpt lat="44.50048" lon="4.81795">
        <ele>295</ele>
        <time>2014-10-30T14:52:38Z</time>
      </trkpt>
      <trkpt lat="44.50051" lon="4.81799">
        <ele>296</ele>
        <time>2014-10-30T14:52:39Z</time>
      </trkpt>
      <trkpt lat="44.50056" lon="4.81801">
        <ele>296</ele>
        <time>2014-10-30T14:52:40Z</time>
      </trkpt>
      <trkpt lat="44.5006" lon="4.818">
        <ele>297</ele>
        <time>2014-10-30T14:52:41Z</time>
      </trkpt>
      <trkpt lat="44.50064" lon="4.81797">
        <ele>297</ele>
        <time>2014-10-30T14:52:42Z</time>
      </trkpt>
      <trkpt lat="44.50068" lon="4.81793">
        <ele>297</ele>
        <time>2014-10-30T14:52:43Z</time>
      </trkpt>
      <trkpt lat="44.5007" lon="4.81789">
        <ele>298</ele>
        <time>2014-10-30T14:52:44Z</time>
      </trkpt>
      <trkpt lat="44.50073" lon="4.81785">
        <ele>298</ele>
        <time>2014-10-30T14:52:45Z</time>
      </trkpt>
      <trkpt lat="44.50075" lon="4.8178">
        <ele>298</ele>
        <time>2014-10-30T14:52:46Z</time>
      </trkpt>
      <trkpt lat="44.50081" lon="4.8177">
        <ele>298</ele>
        <time>2014-10-30T14:52:49Z</time>
      </trkpt>
      <trkpt lat="44.50088" lon="4.81761">
        <ele>299</ele>
        <time>2014-10-30T14:52:52Z</time>
      </trkpt>
      <trkpt lat="44.5009" lon="4.81759">
        <ele>299</ele>
        <time>2014-10-30T14:52:53Z</time>
      </trkpt>
      <trkpt lat="44.50092" lon="4.81757">
        <ele>300</ele>
        <time>2014-10-30T14:52:54Z</time>
      </trkpt>
      <trkpt lat="44.50121" lon="4.81738">
        <ele>303</ele>
        <time>2014-10-30T14:53:05Z</time>
      </trkpt>
      <trkpt lat="44.5014" lon="4.81729">
        <ele>304</ele>
        <time>2014-10-30T14:53:13Z</time>
      </trkpt>
      <trkpt lat="44.50142" lon="4.81729">
        <ele>305</ele>
        <time>2014-10-30T14:53:14Z</time>
      </trkpt>
      <trkpt lat="44.50145" lon="4.81729">
        <ele>305</ele>
        <time>2014-10-30T14:53:15Z</time>
      </trkpt>
      <trkpt lat="44.5016" lon="4.81729">
        <ele>305</ele>
        <time>2014-10-30T14:53:27Z</time>
      </trkpt>
      <trkpt lat="44.50161" lon="4.81727">
        <ele>304</ele>
        <time>2014-10-30T14:53:45Z</time>
      </trkpt>
      <trkpt lat="44.50161" lon="4.81728">
        <ele>304</ele>
        <time>2014-10-30T14:54:01Z</time>
      </trkpt>
      <trkpt lat="44.50162" lon="4.81728">
        <ele>304</ele>
        <time>2014-10-30T14:54:20Z</time>
      </trkpt>
      <trkpt lat="44.50162" lon="4.81727">
        <ele>304</ele>
        <time>2014-10-30T14:54:48Z</time>
      </trkpt>
      <trkpt lat="44.50162" lon="4.81727">
        <ele>304</ele>
        <time>2014-10-30T14:55:19Z</time>
      </trkpt>
      <trkpt lat="44.50161" lon="4.81728">
        <ele>304</ele>
        <time>2014-10-30T14:55:45Z</time>
      </trkpt>
      <trkpt lat="44.50161" lon="4.81728">
        <ele>304</ele>
        <time>2014-10-30T14:56:13Z</time>
      </trkpt>
      <trkpt lat="44.50162" lon="4.81729">
        <ele>305</ele>
        <time>2014-10-30T14:56:17Z</time>
      </trkpt>
      <trkpt lat="44.50163" lon="4.81731">
        <ele>305</ele>
        <time>2014-10-30T14:56:18Z</time>
      </trkpt>
      <trkpt lat="44.50163" lon="4.81734">
        <ele>305</ele>
        <time>2014-10-30T14:56:19Z</time>
      </trkpt>
      <trkpt lat="44.50165" lon="4.81736">
        <ele>305</ele>
        <time>2014-10-30T14:56:20Z</time>
      </trkpt>
      <trkpt lat="44.50166" lon="4.81738">
        <ele>305</ele>
        <time>2014-10-30T14:56:21Z</time>
      </trkpt>
      <trkpt lat="44.50167" lon="4.8174">
        <ele>305</ele>
        <time>2014-10-30T14:56:22Z</time>
      </trkpt>
      <trkpt lat="44.50185" lon="4.81766">
        <ele>309</ele>
        <time>2014-10-30T14:56:35Z</time>
      </trkpt>
      <trkpt lat="44.50204" lon="4.81789">
        <ele>312</ele>
        <time>2014-10-30T14:56:47Z</time>
      </trkpt>
      <trkpt lat="44.50223" lon="4.81818">
        <ele>316</ele>
        <time>2014-10-30T14:57:02Z</time>
      </trkpt>
      <trkpt lat="44.50223" lon="4.81826">
        <ele>317</ele>
        <time>2014-10-30T14:57:06Z</time>
      </trkpt>
      <trkpt lat="44.50223" lon="4.81828">
        <ele>317</ele>
        <time>2014-10-30T14:57:07Z</time>
      </trkpt>
      <trkpt lat="44.50222" lon="4.8183">
        <ele>318</ele>
        <time>2014-10-30T14:57:08Z</time>
      </trkpt>
      <trkpt lat="44.50221" lon="4.81832">
        <ele>318</ele>
        <time>2014-10-30T14:57:09Z</time>
      </trkpt>
      <trkpt lat="44.5022" lon="4.81834">
        <ele>318</ele>
        <time>2014-10-30T14:57:10Z</time>
      </trkpt>
      <trkpt lat="44.50219" lon="4.81835">
        <ele>318</ele>
        <time>2014-10-30T14:57:11Z</time>
      </trkpt>
      <trkpt lat="44.50218" lon="4.81837">
        <ele>319</ele>
        <time>2014-10-30T14:57:12Z</time>
      </trkpt>
      <trkpt lat="44.50216" lon="4.81838">
        <ele>319</ele>
        <time>2014-10-30T14:57:13Z</time>
      </trkpt>
      <trkpt lat="44.50215" lon="4.81839">
        <ele>319</ele>
        <time>2014-10-30T14:57:14Z</time>
      </trkpt>
      <trkpt lat="44.50213" lon="4.81839">
        <ele>319</ele>
        <time>2014-10-30T14:57:15Z</time>
      </trkpt>
      <trkpt lat="44.50211" lon="4.8184">
        <ele>319</ele>
        <time>2014-10-30T14:57:16Z</time>
      </trkpt>
      <trkpt lat="44.5021" lon="4.81841">
        <ele>319</ele>
        <time>2014-10-30T14:57:17Z</time>
      </trkpt>
      <trkpt lat="44.50208" lon="4.81842">
        <ele>320</ele>
        <time>2014-10-30T14:57:18Z</time>
      </trkpt>
      <trkpt lat="44.5019" lon="4.81854">
        <ele>322</ele>
        <time>2014-10-30T14:57:30Z</time>
      </trkpt>
      <trkpt lat="44.50187" lon="4.81857">
        <ele>323</ele>
        <time>2014-10-30T14:57:32Z</time>
      </trkpt>
      <trkpt lat="44.50186" lon="4.81859">
        <ele>323</ele>
        <time>2014-10-30T14:57:33Z</time>
      </trkpt>
      <trkpt lat="44.50185" lon="4.81862">
        <ele>324</ele>
        <time>2014-10-30T14:57:34Z</time>
      </trkpt>
      <trkpt lat="44.50181" lon="4.81898">
        <ele>328</ele>
        <time>2014-10-30T14:57:49Z</time>
      </trkpt>
      <trkpt lat="44.50174" lon="4.81935">
        <ele>330</ele>
        <time>2014-10-30T14:58:03Z</time>
      </trkpt>
      <trkpt lat="44.50171" lon="4.8195">
        <ele>331</ele>
        <time>2014-10-30T14:58:09Z</time>
      </trkpt>
      <trkpt lat="44.5017" lon="4.81953">
        <ele>331</ele>
        <time>2014-10-30T14:58:10Z</time>
      </trkpt>
      <trkpt lat="44.5017" lon="4.81955">
        <ele>331</ele>
        <time>2014-10-30T14:58:11Z</time>
      </trkpt>
      <trkpt lat="44.5017" lon="4.81958">
        <ele>331</ele>
        <time>2014-10-30T14:58:12Z</time>
      </trkpt>
      <trkpt lat="44.50169" lon="4.81961">
        <ele>331</ele>
        <time>2014-10-30T14:58:13Z</time>
      </trkpt>
      <trkpt lat="44.50163" lon="4.81993">
        <ele>332</ele>
        <time>2014-10-30T14:58:25Z</time>
      </trkpt>
      <trkpt lat="44.50147" lon="4.82021">
        <ele>333</ele>
        <time>2014-10-30T14:58:39Z</time>
      </trkpt>
      <trkpt lat="44.50137" lon="4.82032">
        <ele>334</ele>
        <time>2014-10-30T14:58:46Z</time>
      </trkpt>
      <trkpt lat="44.50135" lon="4.82033">
        <ele>334</ele>
        <time>2014-10-30T14:58:47Z</time>
      </trkpt>
      <trkpt lat="44.50134" lon="4.82035">
        <ele>334</ele>
        <time>2014-10-30T14:58:48Z</time>
      </trkpt>
      <trkpt lat="44.50133" lon="4.82036">
        <ele>334</ele>
        <time>2014-10-30T14:58:49Z</time>
      </trkpt>
      <trkpt lat="44.50131" lon="4.82038">
        <ele>334</ele>
        <time>2014-10-30T14:58:50Z</time>
      </trkpt>
      <trkpt lat="44.50129" lon="4.82039">
        <ele>334</ele>
        <time>2014-10-30T14:58:51Z</time>
      </trkpt>
      <trkpt lat="44.50128" lon="4.8204">
        <ele>334</ele>
        <time>2014-10-30T14:58:52Z</time>
      </trkpt>
      <trkpt lat="44.50107" lon="4.82055">
        <ele>336</ele>
        <time>2014-10-30T14:59:05Z</time>
      </trkpt>
      <trkpt lat="44.50092" lon="4.82068">
        <ele>338</ele>
        <time>2014-10-30T14:59:15Z</time>
      </trkpt>
      <trkpt lat="44.50091" lon="4.82069">
        <ele>338</ele>
        <time>2014-10-30T14:59:16Z</time>
      </trkpt>
      <trkpt lat="44.50075" lon="4.82079">
        <ele>340</ele>
        <time>2014-10-30T14:59:25Z</time>
      </trkpt>
      <trkpt lat="44.50051" lon="4.82101">
        <ele>344</ele>
        <time>2014-10-30T14:59:39Z</time>
      </trkpt>
      <trkpt lat="44.50049" lon="4.82104">
        <ele>345</ele>
        <time>2014-10-30T14:59:41Z</time>
      </trkpt>
      <trkpt lat="44.50048" lon="4.82106">
        <ele>345</ele>
        <time>2014-10-30T14:59:42Z</time>
      </trkpt>
      <trkpt lat="44.50047" lon="4.82109">
        <ele>346</ele>
        <time>2014-10-30T14:59:43Z</time>
      </trkpt>
      <trkpt lat="44.50046" lon="4.82111">
        <ele>346</ele>
        <time>2014-10-30T14:59:44Z</time>
      </trkpt>
      <trkpt lat="44.50046" lon="4.82113">
        <ele>347</ele>
        <time>2014-10-30T14:59:45Z</time>
      </trkpt>
      <trkpt lat="44.50046" lon="4.82122">
        <ele>348</ele>
        <time>2014-10-30T14:59:49Z</time>
      </trkpt>
      <trkpt lat="44.50047" lon="4.82123">
        <ele>348</ele>
        <time>2014-10-30T14:59:50Z</time>
      </trkpt>
      <trkpt lat="44.50047" lon="4.82125">
        <ele>349</ele>
        <time>2014-10-30T14:59:51Z</time>
      </trkpt>
      <trkpt lat="44.50048" lon="4.82127">
        <ele>349</ele>
        <time>2014-10-30T14:59:52Z</time>
      </trkpt>
      <trkpt lat="44.50049" lon="4.82129">
        <ele>349</ele>
        <time>2014-10-30T14:59:53Z</time>
      </trkpt>
      <trkpt lat="44.5005" lon="4.82131">
        <ele>349</ele>
        <time>2014-10-30T14:59:54Z</time>
      </trkpt>
      <trkpt lat="44.5005" lon="4.82133">
        <ele>350</ele>
        <time>2014-10-30T14:59:55Z</time>
      </trkpt>
      <trkpt lat="44.50051" lon="4.82135">
        <ele>350</ele>
        <time>2014-10-30T14:59:56Z</time>
      </trkpt>
      <trkpt lat="44.50052" lon="4.82155">
        <ele>352</ele>
        <time>2014-10-30T15:00:05Z</time>
      </trkpt>
      <trkpt lat="44.50052" lon="4.82157">
        <ele>352</ele>
        <time>2014-10-30T15:00:06Z</time>
      </trkpt>
      <trkpt lat="44.50053" lon="4.8216">
        <ele>352</ele>
        <time>2014-10-30T15:00:07Z</time>
      </trkpt>
      <trkpt lat="44.50053" lon="4.82162">
        <ele>352</ele>
        <time>2014-10-30T15:00:08Z</time>
      </trkpt>
      <trkpt lat="44.50052" lon="4.8217">
        <ele>353</ele>
        <time>2014-10-30T15:00:13Z</time>
      </trkpt>
      <trkpt lat="44.50052" lon="4.82173">
        <ele>353</ele>
        <time>2014-10-30T15:00:14Z</time>
      </trkpt>
      <trkpt lat="44.50052" lon="4.82176">
        <ele>354</ele>
        <time>2014-10-30T15:00:15Z</time>
      </trkpt>
      <trkpt lat="44.50052" lon="4.82178">
        <ele>354</ele>
        <time>2014-10-30T15:00:16Z</time>
      </trkpt>
      <trkpt lat="44.50051" lon="4.82181">
        <ele>354</ele>
        <time>2014-10-30T15:00:17Z</time>
      </trkpt>
      <trkpt lat="44.50051" lon="4.82184">
        <ele>354</ele>
        <time>2014-10-30T15:00:18Z</time>
      </trkpt>
      <trkpt lat="44.5004" lon="4.82219">
        <ele>355</ele>
        <time>2014-10-30T15:00:31Z</time>
      </trkpt>
      <trkpt lat="44.50026" lon="4.8224">
        <ele>357</ele>
        <time>2014-10-30T15:00:42Z</time>
      </trkpt>
      <trkpt lat="44.50026" lon="4.82241">
        <ele>357</ele>
        <time>2014-10-30T15:00:43Z</time>
      </trkpt>
      <trkpt lat="44.50025" lon="4.82243">
        <ele>358</ele>
        <time>2014-10-30T15:00:56Z</time>
      </trkpt>
      <trkpt lat="44.50026" lon="4.82242">
        <ele>358</ele>
        <time>2014-10-30T15:01:20Z</time>
      </trkpt>
      <trkpt lat="44.50026" lon="4.82246">
        <ele>357</ele>
        <time>2014-10-30T15:01:23Z</time>
      </trkpt>
      <trkpt lat="44.50026" lon="4.82248">
        <ele>357</ele>
        <time>2014-10-30T15:01:24Z</time>
      </trkpt>
      <trkpt lat="44.50027" lon="4.8225">
        <ele>357</ele>
        <time>2014-10-30T15:01:25Z</time>
      </trkpt>
      <trkpt lat="44.50027" lon="4.82253">
        <ele>357</ele>
        <time>2014-10-30T15:01:26Z</time>
      </trkpt>
      <trkpt lat="44.50027" lon="4.82255">
        <ele>357</ele>
        <time>2014-10-30T15:01:27Z</time>
      </trkpt>
      <trkpt lat="44.50026" lon="4.82258">
        <ele>357</ele>
        <time>2014-10-30T15:01:28Z</time>
      </trkpt>
      <trkpt lat="44.50025" lon="4.82261">
        <ele>357</ele>
        <time>2014-10-30T15:01:29Z</time>
      </trkpt>
      <trkpt lat="44.50024" lon="4.82278">
        <ele>356</ele>
        <time>2014-10-30T15:01:39Z</time>
      </trkpt>
      <trkpt lat="44.50025" lon="4.8228">
        <ele>356</ele>
        <time>2014-10-30T15:02:07Z</time>
      </trkpt>
      <trkpt lat="44.50025" lon="4.82283">
        <ele>356</ele>
        <time>2014-10-30T15:02:09Z</time>
      </trkpt>
      <trkpt lat="44.50026" lon="4.82285">
        <ele>356</ele>
        <time>2014-10-30T15:02:10Z</time>
      </trkpt>
      <trkpt lat="44.50025" lon="4.82287">
        <ele>356</ele>
        <time>2014-10-30T15:02:26Z</time>
      </trkpt>
      <trkpt lat="44.50028" lon="4.82287">
        <ele>355</ele>
        <time>2014-10-30T15:02:30Z</time>
      </trkpt>
      <trkpt lat="44.5003" lon="4.82287">
        <ele>355</ele>
        <time>2014-10-30T15:02:31Z</time>
      </trkpt>
      <trkpt lat="44.50038" lon="4.82281">
        <ele>354</ele>
        <time>2014-10-30T15:02:35Z</time>
      </trkpt>
      <trkpt lat="44.50039" lon="4.82279">
        <ele>354</ele>
        <time>2014-10-30T15:02:36Z</time>
      </trkpt>
      <trkpt lat="44.50041" lon="4.82278">
        <ele>354</ele>
        <time>2014-10-30T15:02:37Z</time>
      </trkpt>
      <trkpt lat="44.50043" lon="4.82279">
        <ele>353</ele>
        <time>2014-10-30T15:02:38Z</time>
      </trkpt>
      <trkpt lat="44.50044" lon="4.82281">
        <ele>353</ele>
        <time>2014-10-30T15:02:39Z</time>
      </trkpt>
      <trkpt lat="44.50045" lon="4.82284">
        <ele>352</ele>
        <time>2014-10-30T15:02:40Z</time>
      </trkpt>
      <trkpt lat="44.50045" lon="4.82287">
        <ele>352</ele>
        <time>2014-10-30T15:02:41Z</time>
      </trkpt>
      <trkpt lat="44.50045" lon="4.8229">
        <ele>352</ele>
        <time>2014-10-30T15:02:42Z</time>
      </trkpt>
      <trkpt lat="44.50049" lon="4.82308">
        <ele>349</ele>
        <time>2014-10-30T15:02:47Z</time>
      </trkpt>
      <trkpt lat="44.50061" lon="4.82317">
        <ele>347</ele>
        <time>2014-10-30T15:02:51Z</time>
      </trkpt>
      <trkpt lat="44.50064" lon="4.8232">
        <ele>347</ele>
        <time>2014-10-30T15:02:52Z</time>
      </trkpt>
      <trkpt lat="44.50067" lon="4.82324">
        <ele>346</ele>
        <time>2014-10-30T15:02:53Z</time>
      </trkpt>
      <trkpt lat="44.5007" lon="4.82329">
        <ele>346</ele>
        <time>2014-10-30T15:02:54Z</time>
      </trkpt>
      <trkpt lat="44.50071" lon="4.82332">
        <ele>346</ele>
        <time>2014-10-30T15:02:55Z</time>
      </trkpt>
      <trkpt lat="44.50073" lon="4.82335">
        <ele>346</ele>
        <time>2014-10-30T15:02:56Z</time>
      </trkpt>
      <trkpt lat="44.50086" lon="4.8235">
        <ele>344</ele>
        <time>2014-10-30T15:03:00Z</time>
      </trkpt>
      <trkpt lat="44.5009" lon="4.82354">
        <ele>343</ele>
        <time>2014-10-30T15:03:01Z</time>
      </trkpt>
      <trkpt lat="44.50095" lon="4.82355">
        <ele>342</ele>
        <time>2014-10-30T15:03:02Z</time>
      </trkpt>
      <trkpt lat="44.50099" lon="4.82354">
        <ele>341</ele>
        <time>2014-10-30T15:03:03Z</time>
      </trkpt>
      <trkpt lat="44.50102" lon="4.82353">
        <ele>340</ele>
        <time>2014-10-30T15:03:04Z</time>
      </trkpt>
      <trkpt lat="44.50106" lon="4.82352">
        <ele>339</ele>
        <time>2014-10-30T15:03:05Z</time>
      </trkpt>
      <trkpt lat="44.50128" lon="4.82358">
        <ele>334</ele>
        <time>2014-10-30T15:03:11Z</time>
      </trkpt>
      <trkpt lat="44.50137" lon="4.82367">
        <ele>333</ele>
        <time>2014-10-30T15:03:15Z</time>
      </trkpt>
      <trkpt lat="44.50145" lon="4.82384">
        <ele>335</ele>
        <time>2014-10-30T15:03:20Z</time>
      </trkpt>
      <trkpt lat="44.50148" lon="4.82384">
        <ele>335</ele>
        <time>2014-10-30T15:03:21Z</time>
      </trkpt>
      <trkpt lat="44.5015" lon="4.82384">
        <ele>334</ele>
        <time>2014-10-30T15:03:22Z</time>
      </trkpt>
      <trkpt lat="44.50153" lon="4.82382">
        <ele>333</ele>
        <time>2014-10-30T15:03:23Z</time>
      </trkpt>
      <trkpt lat="44.50155" lon="4.82381">
        <ele>332</ele>
        <time>2014-10-30T15:03:24Z</time>
      </trkpt>
      <trkpt lat="44.50156" lon="4.82379">
        <ele>331</ele>
        <time>2014-10-30T15:03:25Z</time>
      </trkpt>
      <trkpt lat="44.50158" lon="4.82377">
        <ele>330</ele>
        <time>2014-10-30T15:03:26Z</time>
      </trkpt>
      <trkpt lat="44.50174" lon="4.82363">
        <ele>325</ele>
        <time>2014-10-30T15:03:33Z</time>
      </trkpt>
      <trkpt lat="44.5018" lon="4.82357">
        <ele>323</ele>
        <time>2014-10-30T15:03:36Z</time>
      </trkpt>
      <trkpt lat="44.50184" lon="4.8235">
        <ele>322</ele>
        <time>2014-10-30T15:03:39Z</time>
      </trkpt>
      <trkpt lat="44.50183" lon="4.82345">
        <ele>321</ele>
        <time>2014-10-30T15:03:49Z</time>
      </trkpt>
      <trkpt lat="44.50182" lon="4.82346">
        <ele>321</ele>
        <time>2014-10-30T15:04:04Z</time>
      </trkpt>
      <trkpt lat="44.50175" lon="4.82344">
        <ele>322</ele>
        <time>2014-10-30T15:04:09Z</time>
      </trkpt>
      <trkpt lat="44.50173" lon="4.8233">
        <ele>321</ele>
        <time>2014-10-30T15:04:15Z</time>
      </trkpt>
      <trkpt lat="44.50175" lon="4.82324">
        <ele>320</ele>
        <time>2014-10-30T15:04:18Z</time>
      </trkpt>
      <trkpt lat="44.50175" lon="4.82322">
        <ele>319</ele>
        <time>2014-10-30T15:04:19Z</time>
      </trkpt>
      <trkpt lat="44.50184" lon="4.82301">
        <ele>320</ele>
        <time>2014-10-30T15:04:30Z</time>
      </trkpt>
      <trkpt lat="44.50191" lon="4.82292">
        <ele>321</ele>
        <time>2014-10-30T15:04:34Z</time>
      </trkpt>
      <trkpt lat="44.50193" lon="4.82289">
        <ele>321</ele>
        <time>2014-10-30T15:04:36Z</time>
      </trkpt>
      <trkpt lat="44.50208" lon="4.82297">
        <ele>318</ele>
        <time>2014-10-30T15:04:43Z</time>
      </trkpt>
      <trkpt lat="44.50228" lon="4.82303">
        <ele>314</ele>
        <time>2014-10-30T15:04:48Z</time>
      </trkpt>
      <trkpt lat="44.50248" lon="4.82305">
        <ele>311</ele>
        <time>2014-10-30T15:04:53Z</time>
      </trkpt>
      <trkpt lat="44.50252" lon="4.82306">
        <ele>310</ele>
        <time>2014-10-30T15:04:54Z</time>
      </trkpt>
      <trkpt lat="44.50257" lon="4.82304">
        <ele>310</ele>
        <time>2014-10-30T15:04:55Z</time>
      </trkpt>
      <trkpt lat="44.50261" lon="4.82301">
        <ele>310</ele>
        <time>2014-10-30T15:04:56Z</time>
      </trkpt>
      <trkpt lat="44.50266" lon="4.82299">
        <ele>310</ele>
        <time>2014-10-30T15:04:57Z</time>
      </trkpt>
      <trkpt lat="44.50271" lon="4.82298">
        <ele>310</ele>
        <time>2014-10-30T15:04:58Z</time>
      </trkpt>
      <trkpt lat="44.50283" lon="4.82298">
        <ele>309</ele>
        <time>2014-10-30T15:05:00Z</time>
      </trkpt>
      <trkpt lat="44.50288" lon="4.82296">
        <ele>308</ele>
        <time>2014-10-30T15:05:01Z</time>
      </trkpt>
      <trkpt lat="44.50316" lon="4.82294">
        <ele>306</ele>
        <time>2014-10-30T15:05:09Z</time>
      </trkpt>
      <trkpt lat="44.50323" lon="4.82294">
        <ele>305</ele>
        <time>2014-10-30T15:05:13Z</time>
      </trkpt>
      <trkpt lat="44.50333" lon="4.82303">
        <ele>302</ele>
        <time>2014-10-30T15:05:17Z</time>
      </trkpt>
      <trkpt lat="44.50341" lon="4.82309">
        <ele>300</ele>
        <time>2014-10-30T15:05:19Z</time>
      </trkpt>
      <trkpt lat="44.50346" lon="4.82312">
        <ele>298</ele>
        <time>2014-10-30T15:05:20Z</time>
      </trkpt>
      <trkpt lat="44.50352" lon="4.82313">
        <ele>297</ele>
        <time>2014-10-30T15:05:21Z</time>
      </trkpt>
      <trkpt lat="44.5037" lon="4.82314">
        <ele>295</ele>
        <time>2014-10-30T15:05:24Z</time>
      </trkpt>
      <trkpt lat="44.50376" lon="4.82317">
        <ele>294</ele>
        <time>2014-10-30T15:05:25Z</time>
      </trkpt>
      <trkpt lat="44.50389" lon="4.82325">
        <ele>291</ele>
        <time>2014-10-30T15:05:27Z</time>
      </trkpt>
      <trkpt lat="44.50395" lon="4.82326">
        <ele>290</ele>
        <time>2014-10-30T15:05:28Z</time>
      </trkpt>
      <trkpt lat="44.50402" lon="4.82326">
        <ele>290</ele>
        <time>2014-10-30T15:05:29Z</time>
      </trkpt>
      <trkpt lat="44.50407" lon="4.82325">
        <ele>290</ele>
        <time>2014-10-30T15:05:30Z</time>
      </trkpt>
      <trkpt lat="44.50412" lon="4.82324">
        <ele>289</ele>
        <time>2014-10-30T15:05:31Z</time>
      </trkpt>
      <trkpt lat="44.50418" lon="4.82324">
        <ele>289</ele>
        <time>2014-10-30T15:05:32Z</time>
      </trkpt>
      <trkpt lat="44.50425" lon="4.82324">
        <ele>289</ele>
        <time>2014-10-30T15:05:33Z</time>
      </trkpt>
      <trkpt lat="44.50431" lon="4.82324">
        <ele>288</ele>
        <time>2014-10-30T15:05:34Z</time>
      </trkpt>
      <trkpt lat="44.50437" lon="4.82327">
        <ele>288</ele>
        <time>2014-10-30T15:05:35Z</time>
      </trkpt>
      <trkpt lat="44.50444" lon="4.8233">
        <ele>289</ele>
        <time>2014-10-30T15:05:36Z</time>
      </trkpt>
      <trkpt lat="44.50451" lon="4.82334">
        <ele>289</ele>
        <time>2014-10-30T15:05:37Z</time>
      </trkpt>
      <trkpt lat="44.50458" lon="4.82338">
        <ele>289</ele>
        <time>2014-10-30T15:05:38Z</time>
      </trkpt>
      <trkpt lat="44.50464" lon="4.82342">
        <ele>289</ele>
        <time>2014-10-30T15:05:39Z</time>
      </trkpt>
      <trkpt lat="44.5047" lon="4.82346">
        <ele>289</ele>
        <time>2014-10-30T15:05:40Z</time>
      </trkpt>
      <trkpt lat="44.50483" lon="4.82355">
        <ele>287</ele>
        <time>2014-10-30T15:05:42Z</time>
      </trkpt>
      <trkpt lat="44.5049" lon="4.82359">
        <ele>286</ele>
        <time>2014-10-30T15:05:43Z</time>
      </trkpt>
      <trkpt lat="44.50497" lon="4.82364">
        <ele>285</ele>
        <time>2014-10-30T15:05:44Z</time>
      </trkpt>
      <trkpt lat="44.50515" lon="4.82381">
        <ele>280</ele>
        <time>2014-10-30T15:05:47Z</time>
      </trkpt>
      <trkpt lat="44.5052" lon="4.82387">
        <ele>278</ele>
        <time>2014-10-30T15:05:48Z</time>
      </trkpt>
      <trkpt lat="44.50525" lon="4.82393">
        <ele>276</ele>
        <time>2014-10-30T15:05:49Z</time>
      </trkpt>
      <trkpt lat="44.50531" lon="4.82399">
        <ele>276</ele>
        <time>2014-10-30T15:05:50Z</time>
      </trkpt>
      <trkpt lat="44.50538" lon="4.82403">
        <ele>276</ele>
        <time>2014-10-30T15:05:51Z</time>
      </trkpt>
      <trkpt lat="44.50544" lon="4.82406">
        <ele>276</ele>
        <time>2014-10-30T15:05:52Z</time>
      </trkpt>
      <trkpt lat="44.50554" lon="4.82412">
        <ele>275</ele>
        <time>2014-10-30T15:05:54Z</time>
      </trkpt>
      <trkpt lat="44.50571" lon="4.82416">
        <ele>274</ele>
        <time>2014-10-30T15:05:57Z</time>
      </trkpt>
      <trkpt lat="44.50577" lon="4.82415">
        <ele>273</ele>
        <time>2014-10-30T15:05:58Z</time>
      </trkpt>
      <trkpt lat="44.506" lon="4.82414">
        <ele>271</ele>
        <time>2014-10-30T15:06:01Z</time>
      </trkpt>
      <trkpt lat="44.50609" lon="4.82413">
        <ele>270</ele>
        <time>2014-10-30T15:06:02Z</time>
      </trkpt>
      <trkpt lat="44.50625" lon="4.82408">
        <ele>269</ele>
        <time>2014-10-30T15:06:04Z</time>
      </trkpt>
      <trkpt lat="44.50659" lon="4.82396">
        <ele>265</ele>
        <time>2014-10-30T15:06:08Z</time>
      </trkpt>
      <trkpt lat="44.50682" lon="4.82391">
        <ele>263</ele>
        <time>2014-10-30T15:06:13Z</time>
      </trkpt>
      <trkpt lat="44.50692" lon="4.82388">
        <ele>263</ele>
        <time>2014-10-30T15:06:16Z</time>
      </trkpt>
      <trkpt lat="44.50694" lon="4.82387">
        <ele>263</ele>
        <time>2014-10-30T15:06:17Z</time>
      </trkpt>
      <trkpt lat="44.5072" lon="4.82386">
        <ele>259</ele>
        <time>2014-10-30T15:06:26Z</time>
      </trkpt>
      <trkpt lat="44.50742" lon="4.82386">
        <ele>257</ele>
        <time>2014-10-30T15:06:36Z</time>
      </trkpt>
      <trkpt lat="44.50766" lon="4.82389">
        <ele>253</ele>
        <time>2014-10-30T15:06:44Z</time>
      </trkpt>
      <trkpt lat="44.50769" lon="4.8239">
        <ele>253</ele>
        <time>2014-10-30T15:06:45Z</time>
      </trkpt>
      <trkpt lat="44.50785" lon="4.82389">
        <ele>252</ele>
        <time>2014-10-30T15:06:50Z</time>
      </trkpt>
      <trkpt lat="44.50796" lon="4.82387">
        <ele>251</ele>
        <time>2014-10-30T15:06:54Z</time>
      </trkpt>
      <trkpt lat="44.50807" lon="4.82382">
        <ele>250</ele>
        <time>2014-10-30T15:06:58Z</time>
      </trkpt>
      <trkpt lat="44.5082" lon="4.82379">
        <ele>248</ele>
        <time>2014-10-30T15:07:01Z</time>
      </trkpt>
      <trkpt lat="44.50841" lon="4.82377">
        <ele>244</ele>
        <time>2014-10-30T15:07:06Z</time>
      </trkpt>
      <trkpt lat="44.50847" lon="4.82375">
        <ele>243</ele>
        <time>2014-10-30T15:07:07Z</time>
      </trkpt>
      <trkpt lat="44.50853" lon="4.82374">
        <ele>243</ele>
        <time>2014-10-30T15:07:08Z</time>
      </trkpt>
      <trkpt lat="44.50857" lon="4.82373">
        <ele>242</ele>
        <time>2014-10-30T15:07:09Z</time>
      </trkpt>
      <trkpt lat="44.50861" lon="4.82372">
        <ele>242</ele>
        <time>2014-10-30T15:07:10Z</time>
      </trkpt>
      <trkpt lat="44.50877" lon="4.82368">
        <ele>240</ele>
        <time>2014-10-30T15:07:19Z</time>
      </trkpt>
      <trkpt lat="44.50882" lon="4.82363">
        <ele>240</ele>
        <time>2014-10-30T15:07:52Z</time>
      </trkpt>
      <trkpt lat="44.50882" lon="4.82364">
        <ele>240</ele>
        <time>2014-10-30T15:08:20Z</time>
      </trkpt>
      <trkpt lat="44.50883" lon="4.82364">
        <ele>240</ele>
        <time>2014-10-30T15:08:50Z</time>
      </trkpt>
      <trkpt lat="44.50885" lon="4.82364">
        <ele>239</ele>
        <time>2014-10-30T15:09:08Z</time>
      </trkpt>
      <trkpt lat="44.5089" lon="4.82367">
        <ele>239</ele>
        <time>2014-10-30T15:09:37Z</time>
      </trkpt>
      <trkpt lat="44.50897" lon="4.82368">
        <ele>240</ele>
        <time>2014-10-30T15:10:11Z</time>
      </trkpt>
      <trkpt lat="44.50902" lon="4.82369">
        <ele>240</ele>
        <time>2014-10-30T15:10:20Z</time>
      </trkpt>
      <trkpt lat="44.50907" lon="4.82372">
        <ele>240</ele>
        <time>2014-10-30T15:10:24Z</time>
      </trkpt>
      <trkpt lat="44.50933" lon="4.82391">
        <ele>239</ele>
        <time>2014-10-30T15:10:37Z</time>
      </trkpt>
      <trkpt lat="44.50955" lon="4.82419">
        <ele>243</ele>
        <time>2014-10-30T15:10:49Z</time>
      </trkpt>
      <trkpt lat="44.5096" lon="4.82424">
        <ele>244</ele>
        <time>2014-10-30T15:10:52Z</time>
      </trkpt>
      <trkpt lat="44.50983" lon="4.82459">
        <ele>244</ele>
        <time>2014-10-30T15:11:06Z</time>
      </trkpt>
      <trkpt lat="44.50999" lon="4.8247">
        <ele>243</ele>
        <time>2014-10-30T15:11:13Z</time>
      </trkpt>
      <trkpt lat="44.51012" lon="4.82466">
        <ele>243</ele>
        <time>2014-10-30T15:11:19Z</time>
      </trkpt>
      <trkpt lat="44.51019" lon="4.82459">
        <ele>243</ele>
        <time>2014-10-30T15:11:22Z</time>
      </trkpt>
      <trkpt lat="44.51029" lon="4.82442">
        <ele>240</ele>
        <time>2014-10-30T15:11:27Z</time>
      </trkpt>
      <trkpt lat="44.51032" lon="4.8243">
        <ele>239</ele>
        <time>2014-10-30T15:11:31Z</time>
      </trkpt>
      <trkpt lat="44.51035" lon="4.82425">
        <ele>237</ele>
        <time>2014-10-30T15:11:34Z</time>
      </trkpt>
      <trkpt lat="44.51038" lon="4.82415">
        <ele>237</ele>
        <time>2014-10-30T15:11:38Z</time>
      </trkpt>
      <trkpt lat="44.51042" lon="4.82399">
        <ele>236</ele>
        <time>2014-10-30T15:11:44Z</time>
      </trkpt>
      <trkpt lat="44.51046" lon="4.82392">
        <ele>234</ele>
        <time>2014-10-30T15:11:47Z</time>
      </trkpt>
      <trkpt lat="44.51058" lon="4.82383">
        <ele>229</ele>
        <time>2014-10-30T15:11:52Z</time>
      </trkpt>
      <trkpt lat="44.51062" lon="4.82382">
        <ele>228</ele>
        <time>2014-10-30T15:11:53Z</time>
      </trkpt>
      <trkpt lat="44.51069" lon="4.8238">
        <ele>225</ele>
        <time>2014-10-30T15:11:55Z</time>
      </trkpt>
      <trkpt lat="44.51079" lon="4.82374">
        <ele>223</ele>
        <time>2014-10-30T15:11:57Z</time>
      </trkpt>
      <trkpt lat="44.51084" lon="4.82372">
        <ele>222</ele>
        <time>2014-10-30T15:11:58Z</time>
      </trkpt>
      <trkpt lat="44.51096" lon="4.82367">
        <ele>219</ele>
        <time>2014-10-30T15:12:01Z</time>
      </trkpt>
      <trkpt lat="44.51108" lon="4.8237">
        <ele>216</ele>
        <time>2014-10-30T15:12:12Z</time>
      </trkpt>
      <trkpt lat="44.51114" lon="4.82376">
        <ele>214</ele>
        <time>2014-10-30T15:12:34Z</time>
      </trkpt>
      <trkpt lat="44.51116" lon="4.82379">
        <ele>213</ele>
        <time>2014-10-30T15:12:35Z</time>
      </trkpt>
      <trkpt lat="44.51126" lon="4.8238">
        <ele>211</ele>
        <time>2014-10-30T15:12:39Z</time>
      </trkpt>
      <trkpt lat="44.51134" lon="4.82377">
        <ele>209</ele>
        <time>2014-10-30T15:12:43Z</time>
      </trkpt>
      <trkpt lat="44.5115" lon="4.82364">
        <ele>207</ele>
        <time>2014-10-30T15:12:51Z</time>
      </trkpt>
      <trkpt lat="44.51151" lon="4.82363">
        <ele>207</ele>
        <time>2014-10-30T15:12:52Z</time>
      </trkpt>
      <trkpt lat="44.51154" lon="4.82345">
        <ele>206</ele>
        <time>2014-10-30T15:13:04Z</time>
      </trkpt>
      <trkpt lat="44.51157" lon="4.82339">
        <ele>205</ele>
        <time>2014-10-30T15:13:12Z</time>
      </trkpt>
      <trkpt lat="44.5116" lon="4.82335">
        <ele>204</ele>
        <time>2014-10-30T15:13:15Z</time>
      </trkpt>
      <trkpt lat="44.51162" lon="4.82326">
        <ele>203</ele>
        <time>2014-10-30T15:13:19Z</time>
      </trkpt>
      <trkpt lat="44.51169" lon="4.82317">
        <ele>200</ele>
        <time>2014-10-30T15:13:25Z</time>
      </trkpt>
      <trkpt lat="44.51174" lon="4.82315">
        <ele>198</ele>
        <time>2014-10-30T15:13:28Z</time>
      </trkpt>
      <trkpt lat="44.51179" lon="4.82316">
        <ele>197</ele>
        <time>2014-10-30T15:13:44Z</time>
      </trkpt>
      <trkpt lat="44.51179" lon="4.82316">
        <ele>197</ele>
        <time>2014-10-30T15:13:56Z</time>
      </trkpt>
      <trkpt lat="44.51188" lon="4.82322">
        <ele>195</ele>
        <time>2014-10-30T15:14:02Z</time>
      </trkpt>
      <trkpt lat="44.51191" lon="4.82322">
        <ele>195</ele>
        <time>2014-10-30T15:14:03Z</time>
      </trkpt>
      <trkpt lat="44.512" lon="4.82325">
        <ele>193</ele>
        <time>2014-10-30T15:14:06Z</time>
      </trkpt>
      <trkpt lat="44.5121" lon="4.82327">
        <ele>191</ele>
        <time>2014-10-30T15:14:09Z</time>
      </trkpt>
      <trkpt lat="44.51215" lon="4.82327">
        <ele>190</ele>
        <time>2014-10-30T15:14:11Z</time>
      </trkpt>
      <trkpt lat="44.51222" lon="4.82329">
        <ele>189</ele>
        <time>2014-10-30T15:14:14Z</time>
      </trkpt>
      <trkpt lat="44.51241" lon="4.82341">
        <ele>186</ele>
        <time>2014-10-30T15:14:22Z</time>
      </trkpt>
      <trkpt lat="44.51244" lon="4.82343">
        <ele>185</ele>
        <time>2014-10-30T15:14:23Z</time>
      </trkpt>
      <trkpt lat="44.51261" lon="4.82353">
        <ele>183</ele>
        <time>2014-10-30T15:14:27Z</time>
      </trkpt>
      <trkpt lat="44.51266" lon="4.82356">
        <ele>183</ele>
        <time>2014-10-30T15:14:28Z</time>
      </trkpt>
      <trkpt lat="44.51277" lon="4.82363">
        <ele>181</ele>
        <time>2014-10-30T15:14:30Z</time>
      </trkpt>
      <trkpt lat="44.51333" lon="4.82392">
        <ele>176</ele>
        <time>2014-10-30T15:14:38Z</time>
      </trkpt>
      <trkpt lat="44.51339" lon="4.82394">
        <ele>175</ele>
        <time>2014-10-30T15:14:39Z</time>
      </trkpt>
      <trkpt lat="44.5136" lon="4.8239">
        <ele>174</ele>
        <time>2014-10-30T15:14:47Z</time>
      </trkpt>
      <trkpt lat="44.51393" lon="4.82352">
        <ele>172</ele>
        <time>2014-10-30T15:14:59Z</time>
      </trkpt>
      <trkpt lat="44.51419" lon="4.82311">
        <ele>170</ele>
        <time>2014-10-30T15:15:09Z</time>
      </trkpt>
      <trkpt lat="44.51421" lon="4.82305">
        <ele>170</ele>
        <time>2014-10-30T15:15:10Z</time>
      </trkpt>
      <trkpt lat="44.51421" lon="4.82299">
        <ele>170</ele>
        <time>2014-10-30T15:15:11Z</time>
      </trkpt>
      <trkpt lat="44.5142" lon="4.82293">
        <ele>170</ele>
        <time>2014-10-30T15:15:12Z</time>
      </trkpt>
      <trkpt lat="44.51418" lon="4.82288">
        <ele>170</ele>
        <time>2014-10-30T15:15:13Z</time>
      </trkpt>
      <trkpt lat="44.51415" lon="4.82283">
        <ele>171</ele>
        <time>2014-10-30T15:15:14Z</time>
      </trkpt>
      <trkpt lat="44.51399" lon="4.82213">
        <ele>171</ele>
        <time>2014-10-30T15:15:27Z</time>
      </trkpt>
      <trkpt lat="44.5138" lon="4.82114">
        <ele>171</ele>
        <time>2014-10-30T15:15:42Z</time>
      </trkpt>
      <trkpt lat="44.5137" lon="4.82087">
        <ele>172</ele>
        <time>2014-10-30T15:15:46Z</time>
      </trkpt>
      <trkpt lat="44.51367" lon="4.82081">
        <ele>172</ele>
        <time>2014-10-30T15:15:47Z</time>
      </trkpt>
      <trkpt lat="44.51364" lon="4.82076">
        <ele>172</ele>
        <time>2014-10-30T15:15:48Z</time>
      </trkpt>
      <trkpt lat="44.51354" lon="4.82061">
        <ele>172</ele>
        <time>2014-10-30T15:15:51Z</time>
      </trkpt>
      <trkpt lat="44.51352" lon="4.82056">
        <ele>173</ele>
        <time>2014-10-30T15:15:52Z</time>
      </trkpt>
      <trkpt lat="44.51351" lon="4.8205">
        <ele>173</ele>
        <time>2014-10-30T15:15:53Z</time>
      </trkpt>
      <trkpt lat="44.5135" lon="4.82043">
        <ele>173</ele>
        <time>2014-10-30T15:15:54Z</time>
      </trkpt>
      <trkpt lat="44.5135" lon="4.82036">
        <ele>173</ele>
        <time>2014-10-30T15:15:55Z</time>
      </trkpt>
      <trkpt lat="44.5135" lon="4.82029">
        <ele>173</ele>
        <time>2014-10-30T15:15:56Z</time>
      </trkpt>
      <trkpt lat="44.51349" lon="4.82">
        <ele>174</ele>
        <time>2014-10-30T15:16:00Z</time>
      </trkpt>
      <trkpt lat="44.51348" lon="4.81992">
        <ele>174</ele>
        <time>2014-10-30T15:16:01Z</time>
      </trkpt>
      <trkpt lat="44.51347" lon="4.81985">
        <ele>174</ele>
        <time>2014-10-30T15:16:02Z</time>
      </trkpt>
      <trkpt lat="44.51345" lon="4.81978">
        <ele>174</ele>
        <time>2014-10-30T15:16:03Z</time>
      </trkpt>
      <trkpt lat="44.51342" lon="4.81972">
        <ele>174</ele>
        <time>2014-10-30T15:16:04Z</time>
      </trkpt>
      <trkpt lat="44.51321" lon="4.81915">
        <ele>175</ele>
        <time>2014-10-30T15:16:13Z</time>
      </trkpt>
      <trkpt lat="44.51319" lon="4.81908">
        <ele>176</ele>
        <time>2014-10-30T15:16:14Z</time>
      </trkpt>
      <trkpt lat="44.51319" lon="4.81902">
        <ele>176</ele>
        <time>2014-10-30T15:16:15Z</time>
      </trkpt>
      <trkpt lat="44.5133" lon="4.81799">
        <ele>176</ele>
        <time>2014-10-30T15:16:31Z</time>
      </trkpt>
      <trkpt lat="44.51331" lon="4.81793">
        <ele>176</ele>
        <time>2014-10-30T15:16:32Z</time>
      </trkpt>
      <trkpt lat="44.51338" lon="4.81753">
        <ele>175</ele>
        <time>2014-10-30T15:16:38Z</time>
      </trkpt>
      <trkpt lat="44.5134" lon="4.81748">
        <ele>175</ele>
        <time>2014-10-30T15:16:39Z</time>
      </trkpt>
      <trkpt lat="44.51344" lon="4.81745">
        <ele>174</ele>
        <time>2014-10-30T15:16:40Z</time>
      </trkpt>
      <trkpt lat="44.51348" lon="4.81744">
        <ele>174</ele>
        <time>2014-10-30T15:16:41Z</time>
      </trkpt>
      <trkpt lat="44.51353" lon="4.81746">
        <ele>174</ele>
        <time>2014-10-30T15:16:42Z</time>
      </trkpt>
      <trkpt lat="44.51357" lon="4.81748">
        <ele>173</ele>
        <time>2014-10-30T15:16:43Z</time>
      </trkpt>
      <trkpt lat="44.51384" lon="4.81765">
        <ele>171</ele>
        <time>2014-10-30T15:16:49Z</time>
      </trkpt>
      <trkpt lat="44.51397" lon="4.81773">
        <ele>170</ele>
        <time>2014-10-30T15:16:52Z</time>
      </trkpt>
      <trkpt lat="44.51402" lon="4.81773">
        <ele>170</ele>
        <time>2014-10-30T15:16:53Z</time>
      </trkpt>
      <trkpt lat="44.51406" lon="4.81772">
        <ele>170</ele>
        <time>2014-10-30T15:16:54Z</time>
      </trkpt>
      <trkpt lat="44.5141" lon="4.8177">
        <ele>170</ele>
        <time>2014-10-30T15:16:55Z</time>
      </trkpt>
      <trkpt lat="44.51412" lon="4.81768">
        <ele>169</ele>
        <time>2014-10-30T15:16:56Z</time>
      </trkpt>
      <trkpt lat="44.51414" lon="4.81766">
        <ele>169</ele>
        <time>2014-10-30T15:16:57Z</time>
      </trkpt>
      <trkpt lat="44.51415" lon="4.81765">
        <ele>169</ele>
        <time>2014-10-30T15:16:58Z</time>
      </trkpt>
      <trkpt lat="44.51416" lon="4.81762">
        <ele>169</ele>
        <time>2014-10-30T15:16:59Z</time>
      </trkpt>
      <trkpt lat="44.51417" lon="4.81759">
        <ele>169</ele>
        <time>2014-10-30T15:17:00Z</time>
      </trkpt>
      <trkpt lat="44.51416" lon="4.81756">
        <ele>169</ele>
        <time>2014-10-30T15:17:01Z</time>
      </trkpt>
      <trkpt lat="44.51415" lon="4.81752">
        <ele>169</ele>
        <time>2014-10-30T15:17:02Z</time>
      </trkpt>
      <trkpt lat="44.51414" lon="4.81749">
        <ele>169</ele>
        <time>2014-10-30T15:17:03Z</time>
      </trkpt>
      <trkpt lat="44.51412" lon="4.81745">
        <ele>169</ele>
        <time>2014-10-30T15:17:04Z</time>
      </trkpt>
      <trkpt lat="44.51411" lon="4.8174">
        <ele>169</ele>
        <time>2014-10-30T15:17:05Z</time>
      </trkpt>
      <trkpt lat="44.51386" lon="4.81667">
        <ele>170</ele>
        <time>2014-10-30T15:17:19Z</time>
      </trkpt>
      <trkpt lat="44.51367" lon="4.81605">
        <ele>170</ele>
        <time>2014-10-30T15:17:30Z</time>
      </trkpt>
      <trkpt lat="44.51369" lon="4.81601">
        <ele>170</ele>
        <time>2014-10-30T15:17:31Z</time>
      </trkpt>
      <trkpt lat="44.51372" lon="4.81599">
        <ele>170</ele>
        <time>2014-10-30T15:17:32Z</time>
      </trkpt>
      <trkpt lat="44.51375" lon="4.81598">
        <ele>169</ele>
        <time>2014-10-30T15:17:33Z</time>
      </trkpt>
      <trkpt lat="44.51379" lon="4.81598">
        <ele>169</ele>
        <time>2014-10-30T15:17:34Z</time>
      </trkpt>
      <trkpt lat="44.51434" lon="4.81596">
        <ele>166</ele>
        <time>2014-10-30T15:17:44Z</time>
      </trkpt>
      <trkpt lat="44.51467" lon="4.81596">
        <ele>164</ele>
        <time>2014-10-30T15:17:49Z</time>
      </trkpt>
      <trkpt lat="44.51493" lon="4.81595">
        <ele>162</ele>
        <time>2014-10-30T15:17:53Z</time>
      </trkpt>
      <trkpt lat="44.515" lon="4.81593">
        <ele>162</ele>
        <time>2014-10-30T15:17:54Z</time>
      </trkpt>
      <trkpt lat="44.51506" lon="4.81588">
        <ele>162</ele>
        <time>2014-10-30T15:17:55Z</time>
      </trkpt>
      <trkpt lat="44.5151" lon="4.81582">
        <ele>162</ele>
        <time>2014-10-30T15:17:56Z</time>
      </trkpt>
      <trkpt lat="44.51514" lon="4.81573">
        <ele>162</ele>
        <time>2014-10-30T15:17:57Z</time>
      </trkpt>
      <trkpt lat="44.51517" lon="4.81565">
        <ele>162</ele>
        <time>2014-10-30T15:17:58Z</time>
      </trkpt>
      <trkpt lat="44.5152" lon="4.81558">
        <ele>162</ele>
        <time>2014-10-30T15:17:59Z</time>
      </trkpt>
      <trkpt lat="44.51525" lon="4.81552">
        <ele>161</ele>
        <time>2014-10-30T15:18:00Z</time>
      </trkpt>
      <trkpt lat="44.51531" lon="4.81548">
        <ele>161</ele>
        <time>2014-10-30T15:18:01Z</time>
      </trkpt>
      <trkpt lat="44.51537" lon="4.81546">
        <ele>161</ele>
        <time>2014-10-30T15:18:02Z</time>
      </trkpt>
      <trkpt lat="44.51543" lon="4.81544">
        <ele>161</ele>
        <time>2014-10-30T15:18:03Z</time>
      </trkpt>
      <trkpt lat="44.51555" lon="4.81539">
        <ele>160</ele>
        <time>2014-10-30T15:18:05Z</time>
      </trkpt>
      <trkpt lat="44.5156" lon="4.81534">
        <ele>160</ele>
        <time>2014-10-30T15:18:06Z</time>
      </trkpt>
      <trkpt lat="44.51564" lon="4.81528">
        <ele>160</ele>
        <time>2014-10-30T15:18:07Z</time>
      </trkpt>
      <trkpt lat="44.51568" lon="4.81521">
        <ele>160</ele>
        <time>2014-10-30T15:18:08Z</time>
      </trkpt>
      <trkpt lat="44.51571" lon="4.81513">
        <ele>159</ele>
        <time>2014-10-30T15:18:09Z</time>
      </trkpt>
      <trkpt lat="44.51573" lon="4.81505">
        <ele>159</ele>
        <time>2014-10-30T15:18:10Z</time>
      </trkpt>
      <trkpt lat="44.51588" lon="4.81451">
        <ele>159</ele>
        <time>2014-10-30T15:18:17Z</time>
      </trkpt>
      <trkpt lat="44.51617" lon="4.81346">
        <ele>157</ele>
        <time>2014-10-30T15:18:30Z</time>
      </trkpt>
      <trkpt lat="44.51627" lon="4.81262">
        <ele>155</ele>
        <time>2014-10-30T15:18:40Z</time>
      </trkpt>
      <trkpt lat="44.51627" lon="4.81254">
        <ele>155</ele>
        <time>2014-10-30T15:18:41Z</time>
      </trkpt>
      <trkpt lat="44.51626" lon="4.81246">
        <ele>155</ele>
        <time>2014-10-30T15:18:42Z</time>
      </trkpt>
      <trkpt lat="44.51625" lon="4.81238">
        <ele>155</ele>
        <time>2014-10-30T15:18:43Z</time>
      </trkpt>
      <trkpt lat="44.51624" lon="4.8123">
        <ele>155</ele>
        <time>2014-10-30T15:18:44Z</time>
      </trkpt>
      <trkpt lat="44.51622" lon="4.81222">
        <ele>155</ele>
        <time>2014-10-30T15:18:45Z</time>
      </trkpt>
      <trkpt lat="44.5162" lon="4.81215">
        <ele>155</ele>
        <time>2014-10-30T15:18:46Z</time>
      </trkpt>
      <trkpt lat="44.51616" lon="4.81201">
        <ele>155</ele>
        <time>2014-10-30T15:18:48Z</time>
      </trkpt>
      <trkpt lat="44.51614" lon="4.81195">
        <ele>155</ele>
        <time>2014-10-30T15:18:49Z</time>
      </trkpt>
      <trkpt lat="44.51612" lon="4.81188">
        <ele>155</ele>
        <time>2014-10-30T15:18:50Z</time>
      </trkpt>
      <trkpt lat="44.51611" lon="4.81181">
        <ele>155</ele>
        <time>2014-10-30T15:18:51Z</time>
      </trkpt>
      <trkpt lat="44.51612" lon="4.81174">
        <ele>155</ele>
        <time>2014-10-30T15:18:52Z</time>
      </trkpt>
      <trkpt lat="44.51613" lon="4.81167">
        <ele>155</ele>
        <time>2014-10-30T15:18:53Z</time>
      </trkpt>
      <trkpt lat="44.51615" lon="4.81161">
        <ele>155</ele>
        <time>2014-10-30T15:18:54Z</time>
      </trkpt>
      <trkpt lat="44.51619" lon="4.81156">
        <ele>155</ele>
        <time>2014-10-30T15:18:55Z</time>
      </trkpt>
      <trkpt lat="44.51623" lon="4.81152">
        <ele>155</ele>
        <time>2014-10-30T15:18:56Z</time>
      </trkpt>
      <trkpt lat="44.51627" lon="4.81148">
        <ele>155</ele>
        <time>2014-10-30T15:18:57Z</time>
      </trkpt>
      <trkpt lat="44.51631" lon="4.81144">
        <ele>155</ele>
        <time>2014-10-30T15:18:58Z</time>
      </trkpt>
      <trkpt lat="44.51646" lon="4.81127">
        <ele>155</ele>
        <time>2014-10-30T15:19:02Z</time>
      </trkpt>
      <trkpt lat="44.51697" lon="4.81086">
        <ele>158</ele>
        <time>2014-10-30T15:19:15Z</time>
      </trkpt>
      <trkpt lat="44.51747" lon="4.81047">
        <ele>160</ele>
        <time>2014-10-30T15:19:30Z</time>
      </trkpt>
      <trkpt lat="44.51788" lon="4.81012">
        <ele>164</ele>
        <time>2014-10-30T15:19:44Z</time>
      </trkpt>
      <trkpt lat="44.51827" lon="4.80984">
        <ele>167</ele>
        <time>2014-10-30T15:19:58Z</time>
      </trkpt>
      <trkpt lat="44.5187" lon="4.80952">
        <ele>169</ele>
        <time>2014-10-30T15:20:15Z</time>
      </trkpt>
      <trkpt lat="44.51897" lon="4.80931">
        <ele>172</ele>
        <time>2014-10-30T15:20:28Z</time>
      </trkpt>
      <trkpt lat="44.5193" lon="4.809">
        <ele>175</ele>
        <time>2014-10-30T15:20:44Z</time>
      </trkpt>
      <trkpt lat="44.51958" lon="4.80878">
        <ele>177</ele>
        <time>2014-10-30T15:20:59Z</time>
      </trkpt>
      <trkpt lat="44.51963" lon="4.80875">
        <ele>178</ele>
        <time>2014-10-30T15:21:03Z</time>
      </trkpt>
      <trkpt lat="44.51965" lon="4.80876">
        <ele>178</ele>
        <time>2014-10-30T15:21:20Z</time>
      </trkpt>
      <trkpt lat="44.51965" lon="4.80874">
        <ele>178</ele>
        <time>2014-10-30T15:21:57Z</time>
      </trkpt>
      <trkpt lat="44.51965" lon="4.80874">
        <ele>178</ele>
        <time>2014-10-30T15:22:28Z</time>
      </trkpt>
      <trkpt lat="44.51966" lon="4.80872">
        <ele>178</ele>
        <time>2014-10-30T15:22:57Z</time>
      </trkpt>
      <trkpt lat="44.51966" lon="4.80871">
        <ele>178</ele>
        <time>2014-10-30T15:22:58Z</time>
      </trkpt>
      <trkpt lat="44.51966" lon="4.80869">
        <ele>178</ele>
        <time>2014-10-30T15:22:59Z</time>
      </trkpt>
      <trkpt lat="44.51966" lon="4.80866">
        <ele>178</ele>
        <time>2014-10-30T15:23:00Z</time>
      </trkpt>
      <trkpt lat="44.51966" lon="4.80863">
        <ele>179</ele>
        <time>2014-10-30T15:23:01Z</time>
      </trkpt>
      <trkpt lat="44.51966" lon="4.8086">
        <ele>179</ele>
        <time>2014-10-30T15:23:02Z</time>
      </trkpt>
      <trkpt lat="44.51966" lon="4.80857">
        <ele>179</ele>
        <time>2014-10-30T15:23:03Z</time>
      </trkpt>
      <trkpt lat="44.51967" lon="4.80854">
        <ele>179</ele>
        <time>2014-10-30T15:23:04Z</time>
      </trkpt>
      <trkpt lat="44.51967" lon="4.8085">
        <ele>180</ele>
        <time>2014-10-30T15:23:05Z</time>
      </trkpt>
      <trkpt lat="44.51968" lon="4.80847">
        <ele>180</ele>
        <time>2014-10-30T15:23:06Z</time>
      </trkpt>
      <trkpt lat="44.51974" lon="4.80823">
        <ele>182</ele>
        <time>2014-10-30T15:23:13Z</time>
      </trkpt>
      <trkpt lat="44.51976" lon="4.80821">
        <ele>182</ele>
        <time>2014-10-30T15:23:14Z</time>
      </trkpt>
      <trkpt lat="44.51999" lon="4.80792">
        <ele>186</ele>
        <time>2014-10-30T15:23:26Z</time>
      </trkpt>
      <trkpt lat="44.52001" lon="4.8079">
        <ele>186</ele>
        <time>2014-10-30T15:23:27Z</time>
      </trkpt>
      <trkpt lat="44.52003" lon="4.80788">
        <ele>186</ele>
        <time>2014-10-30T15:23:28Z</time>
      </trkpt>
      <trkpt lat="44.52005" lon="4.80787">
        <ele>187</ele>
        <time>2014-10-30T15:23:29Z</time>
      </trkpt>
      <trkpt lat="44.52006" lon="4.80784">
        <ele>187</ele>
        <time>2014-10-30T15:23:30Z</time>
      </trkpt>
      <trkpt lat="44.52008" lon="4.80782">
        <ele>187</ele>
        <time>2014-10-30T15:23:31Z</time>
      </trkpt>
      <trkpt lat="44.52011" lon="4.8078">
        <ele>188</ele>
        <time>2014-10-30T15:23:32Z</time>
      </trkpt>
      <trkpt lat="44.52012" lon="4.80778">
        <ele>188</ele>
        <time>2014-10-30T15:23:33Z</time>
      </trkpt>
      <trkpt lat="44.52014" lon="4.80777">
        <ele>188</ele>
        <time>2014-10-30T15:23:34Z</time>
      </trkpt>
      <trkpt lat="44.52017" lon="4.80775">
        <ele>189</ele>
        <time>2014-10-30T15:23:35Z</time>
      </trkpt>
      <trkpt lat="44.52019" lon="4.80774">
        <ele>189</ele>
        <time>2014-10-30T15:23:36Z</time>
      </trkpt>
      <trkpt lat="44.52021" lon="4.80773">
        <ele>190</ele>
        <time>2014-10-30T15:23:37Z</time>
      </trkpt>
      <trkpt lat="44.52023" lon="4.80773">
        <ele>190</ele>
        <time>2014-10-30T15:23:38Z</time>
      </trkpt>
      <trkpt lat="44.52024" lon="4.80772">
        <ele>190</ele>
        <time>2014-10-30T15:23:39Z</time>
      </trkpt>
      <trkpt lat="44.52026" lon="4.80771">
        <ele>190</ele>
        <time>2014-10-30T15:23:40Z</time>
      </trkpt>
      <trkpt lat="44.52028" lon="4.80768">
        <ele>191</ele>
        <time>2014-10-30T15:23:41Z</time>
      </trkpt>
      <trkpt lat="44.52029" lon="4.80765">
        <ele>191</ele>
        <time>2014-10-30T15:23:42Z</time>
      </trkpt>
      <trkpt lat="44.52031" lon="4.80761">
        <ele>192</ele>
        <time>2014-10-30T15:23:43Z</time>
      </trkpt>
      <trkpt lat="44.52032" lon="4.80758">
        <ele>192</ele>
        <time>2014-10-30T15:23:44Z</time>
      </trkpt>
      <trkpt lat="44.52033" lon="4.80754">
        <ele>192</ele>
        <time>2014-10-30T15:23:45Z</time>
      </trkpt>
      <trkpt lat="44.52033" lon="4.80751">
        <ele>193</ele>
        <time>2014-10-30T15:23:46Z</time>
      </trkpt>
      <trkpt lat="44.52033" lon="4.80748">
        <ele>193</ele>
        <time>2014-10-30T15:23:47Z</time>
      </trkpt>
      <trkpt lat="44.52034" lon="4.80745">
        <ele>193</ele>
        <time>2014-10-30T15:23:48Z</time>
      </trkpt>
      <trkpt lat="44.52033" lon="4.80742">
        <ele>193</ele>
        <time>2014-10-30T15:23:49Z</time>
      </trkpt>
      <trkpt lat="44.52031" lon="4.80739">
        <ele>193</ele>
        <time>2014-10-30T15:23:50Z</time>
      </trkpt>
      <trkpt lat="44.5203" lon="4.80737">
        <ele>193</ele>
        <time>2014-10-30T15:23:51Z</time>
      </trkpt>
      <trkpt lat="44.52028" lon="4.80735">
        <ele>193</ele>
        <time>2014-10-30T15:23:52Z</time>
      </trkpt>
      <trkpt lat="44.52026" lon="4.80732">
        <ele>193</ele>
        <time>2014-10-30T15:23:53Z</time>
      </trkpt>
      <trkpt lat="44.52024" lon="4.8073">
        <ele>193</ele>
        <time>2014-10-30T15:23:54Z</time>
      </trkpt>
      <trkpt lat="44.52023" lon="4.80727">
        <ele>192</ele>
        <time>2014-10-30T15:23:55Z</time>
      </trkpt>
      <trkpt lat="44.52001" lon="4.80698">
        <ele>192</ele>
        <time>2014-10-30T15:24:07Z</time>
      </trkpt>
      <trkpt lat="44.51992" lon="4.80687">
        <ele>192</ele>
        <time>2014-10-30T15:24:11Z</time>
      </trkpt>
      <trkpt lat="44.5199" lon="4.80686">
        <ele>192</ele>
        <time>2014-10-30T15:24:12Z</time>
      </trkpt>
      <trkpt lat="44.51988" lon="4.80683">
        <ele>192</ele>
        <time>2014-10-30T15:24:13Z</time>
      </trkpt>
      <trkpt lat="44.51959" lon="4.80642">
        <ele>194</ele>
        <time>2014-10-30T15:24:24Z</time>
      </trkpt>
      <trkpt lat="44.51934" lon="4.80586">
        <ele>194</ele>
        <time>2014-10-30T15:24:35Z</time>
      </trkpt>
      <trkpt lat="44.51923" lon="4.80549">
        <ele>194</ele>
        <time>2014-10-30T15:24:41Z</time>
      </trkpt>
      <trkpt lat="44.51909" lon="4.80473">
        <ele>192</ele>
        <time>2014-10-30T15:24:52Z</time>
      </trkpt>
      <trkpt lat="44.5191" lon="4.80466">
        <ele>192</ele>
        <time>2014-10-30T15:24:53Z</time>
      </trkpt>
      <trkpt lat="44.5191" lon="4.8046">
        <ele>192</ele>
        <time>2014-10-30T15:24:54Z</time>
      </trkpt>
      <trkpt lat="44.51911" lon="4.80453">
        <ele>192</ele>
        <time>2014-10-30T15:24:55Z</time>
      </trkpt>
      <trkpt lat="44.5191" lon="4.80445">
        <ele>192</ele>
        <time>2014-10-30T15:24:56Z</time>
      </trkpt>
      <trkpt lat="44.5191" lon="4.80438">
        <ele>192</ele>
        <time>2014-10-30T15:24:57Z</time>
      </trkpt>
      <trkpt lat="44.51907" lon="4.80422">
        <ele>192</ele>
        <time>2014-10-30T15:24:59Z</time>
      </trkpt>
      <trkpt lat="44.51906" lon="4.80414">
        <ele>192</ele>
        <time>2014-10-30T15:25:00Z</time>
      </trkpt>
      <trkpt lat="44.51904" lon="4.80407">
        <ele>192</ele>
        <time>2014-10-30T15:25:01Z</time>
      </trkpt>
      <trkpt lat="44.519" lon="4.80392">
        <ele>192</ele>
        <time>2014-10-30T15:25:03Z</time>
      </trkpt>
      <trkpt lat="44.51896" lon="4.80366">
        <ele>193</ele>
        <time>2014-10-30T15:25:06Z</time>
      </trkpt>
      <trkpt lat="44.51894" lon="4.80358">
        <ele>193</ele>
        <time>2014-10-30T15:25:07Z</time>
      </trkpt>
      <trkpt lat="44.51866" lon="4.80246">
        <ele>194</ele>
        <time>2014-10-30T15:25:20Z</time>
      </trkpt>
      <trkpt lat="44.51861" lon="4.80211">
        <ele>194</ele>
        <time>2014-10-30T15:25:24Z</time>
      </trkpt>
      <trkpt lat="44.51859" lon="4.80168">
        <ele>194</ele>
        <time>2014-10-30T15:25:29Z</time>
      </trkpt>
      <trkpt lat="44.51858" lon="4.80159">
        <ele>194</ele>
        <time>2014-10-30T15:25:30Z</time>
      </trkpt>
      <trkpt lat="44.51844" lon="4.80105">
        <ele>192</ele>
        <time>2014-10-30T15:25:36Z</time>
      </trkpt>
      <trkpt lat="44.5184" lon="4.80098">
        <ele>191</ele>
        <time>2014-10-30T15:25:37Z</time>
      </trkpt>
      <trkpt lat="44.51833" lon="4.80094">
        <ele>191</ele>
        <time>2014-10-30T15:25:38Z</time>
      </trkpt>
      <trkpt lat="44.51826" lon="4.80093">
        <ele>190</ele>
        <time>2014-10-30T15:25:39Z</time>
      </trkpt>
      <trkpt lat="44.51818" lon="4.80094">
        <ele>189</ele>
        <time>2014-10-30T15:25:40Z</time>
      </trkpt>
      <trkpt lat="44.51809" lon="4.80096">
        <ele>188</ele>
        <time>2014-10-30T15:25:41Z</time>
      </trkpt>
      <trkpt lat="44.518" lon="4.80097">
        <ele>187</ele>
        <time>2014-10-30T15:25:42Z</time>
      </trkpt>
      <trkpt lat="44.51792" lon="4.80099">
        <ele>186</ele>
        <time>2014-10-30T15:25:43Z</time>
      </trkpt>
      <trkpt lat="44.51748" lon="4.80106">
        <ele>183</ele>
        <time>2014-10-30T15:25:48Z</time>
      </trkpt>
      <trkpt lat="44.51741" lon="4.80104">
        <ele>183</ele>
        <time>2014-10-30T15:25:49Z</time>
      </trkpt>
      <trkpt lat="44.51735" lon="4.80097">
        <ele>183</ele>
        <time>2014-10-30T15:25:50Z</time>
      </trkpt>
      <trkpt lat="44.51726" lon="4.80082">
        <ele>183</ele>
        <time>2014-10-30T15:25:52Z</time>
      </trkpt>
      <trkpt lat="44.51696" lon="4.79971">
        <ele>184</ele>
        <time>2014-10-30T15:26:04Z</time>
      </trkpt>
      <trkpt lat="44.51692" lon="4.79954">
        <ele>184</ele>
        <time>2014-10-30T15:26:06Z</time>
      </trkpt>
      <trkpt lat="44.51689" lon="4.79947">
        <ele>184</ele>
        <time>2014-10-30T15:26:07Z</time>
      </trkpt>
      <trkpt lat="44.51686" lon="4.79942">
        <ele>183</ele>
        <time>2014-10-30T15:26:08Z</time>
      </trkpt>
      <trkpt lat="44.51681" lon="4.79939">
        <ele>183</ele>
        <time>2014-10-30T15:26:09Z</time>
      </trkpt>
      <trkpt lat="44.51675" lon="4.79938">
        <ele>183</ele>
        <time>2014-10-30T15:26:10Z</time>
      </trkpt>
      <trkpt lat="44.5167" lon="4.79938">
        <ele>182</ele>
        <time>2014-10-30T15:26:11Z</time>
      </trkpt>
      <trkpt lat="44.51641" lon="4.7994">
        <ele>180</ele>
        <time>2014-10-30T15:26:15Z</time>
      </trkpt>
      <trkpt lat="44.51562" lon="4.79943">
        <ele>174</ele>
        <time>2014-10-30T15:26:25Z</time>
      </trkpt>
      <trkpt lat="44.51503" lon="4.79938">
        <ele>170</ele>
        <time>2014-10-30T15:26:32Z</time>
      </trkpt>
      <trkpt lat="44.51495" lon="4.79937">
        <ele>170</ele>
        <time>2014-10-30T15:26:33Z</time>
      </trkpt>
      <trkpt lat="44.51477" lon="4.79935">
        <ele>169</ele>
        <time>2014-10-30T15:26:35Z</time>
      </trkpt>
      <trkpt lat="44.51443" lon="4.79927">
        <ele>166</ele>
        <time>2014-10-30T15:26:39Z</time>
      </trkpt>
      <trkpt lat="44.5137" lon="4.79909">
        <ele>162</ele>
        <time>2014-10-30T15:26:50Z</time>
      </trkpt>
      <trkpt lat="44.51367" lon="4.79906">
        <ele>162</ele>
        <time>2014-10-30T15:26:51Z</time>
      </trkpt>
      <trkpt lat="44.51365" lon="4.799">
        <ele>162</ele>
        <time>2014-10-30T15:26:52Z</time>
      </trkpt>
      <trkpt lat="44.51365" lon="4.79894">
        <ele>162</ele>
        <time>2014-10-30T15:26:53Z</time>
      </trkpt>
      <trkpt lat="44.51366" lon="4.79887">
        <ele>162</ele>
        <time>2014-10-30T15:26:54Z</time>
      </trkpt>
      <trkpt lat="44.51366" lon="4.7988">
        <ele>162</ele>
        <time>2014-10-30T15:26:55Z</time>
      </trkpt>
      <trkpt lat="44.51369" lon="4.79837">
        <ele>163</ele>
        <time>2014-10-30T15:27:01Z</time>
      </trkpt>
      <trkpt lat="44.51368" lon="4.79831">
        <ele>163</ele>
        <time>2014-10-30T15:27:02Z</time>
      </trkpt>
      <trkpt lat="44.51366" lon="4.79825">
        <ele>163</ele>
        <time>2014-10-30T15:27:03Z</time>
      </trkpt>
      <trkpt lat="44.51363" lon="4.7982">
        <ele>162</ele>
        <time>2014-10-30T15:27:04Z</time>
      </trkpt>
      <trkpt lat="44.51358" lon="4.79817">
        <ele>162</ele>
        <time>2014-10-30T15:27:05Z</time>
      </trkpt>
      <trkpt lat="44.51352" lon="4.79814">
        <ele>162</ele>
        <time>2014-10-30T15:27:06Z</time>
      </trkpt>
      <trkpt lat="44.51297" lon="4.79794">
        <ele>159</ele>
        <time>2014-10-30T15:27:14Z</time>
      </trkpt>
      <trkpt lat="44.51171" lon="4.79746">
        <ele>155</ele>
        <time>2014-10-30T15:27:31Z</time>
      </trkpt>
      <trkpt lat="44.51126" lon="4.79731">
        <ele>155</ele>
        <time>2014-10-30T15:27:37Z</time>
      </trkpt>
      <trkpt lat="44.51106" lon="4.79719">
        <ele>155</ele>
        <time>2014-10-30T15:27:40Z</time>
      </trkpt>
      <trkpt lat="44.51099" lon="4.79713">
        <ele>155</ele>
        <time>2014-10-30T15:27:41Z</time>
      </trkpt>
      <trkpt lat="44.51022" lon="4.7961">
        <ele>155</ele>
        <time>2014-10-30T15:27:55Z</time>
      </trkpt>
      <trkpt lat="44.50936" lon="4.79497">
        <ele>155</ele>
        <time>2014-10-30T15:28:11Z</time>
      </trkpt>
      <trkpt lat="44.50887" lon="4.79435">
        <ele>154</ele>
        <time>2014-10-30T15:28:20Z</time>
      </trkpt>
      <trkpt lat="44.50881" lon="4.79429">
        <ele>154</ele>
        <time>2014-10-30T15:28:21Z</time>
      </trkpt>
      <trkpt lat="44.50877" lon="4.79421">
        <ele>154</ele>
        <time>2014-10-30T15:28:22Z</time>
      </trkpt>
      <trkpt lat="44.50873" lon="4.79412">
        <ele>154</ele>
        <time>2014-10-30T15:28:23Z</time>
      </trkpt>
      <trkpt lat="44.50872" lon="4.79402">
        <ele>154</ele>
        <time>2014-10-30T15:28:24Z</time>
      </trkpt>
      <trkpt lat="44.50873" lon="4.79393">
        <ele>154</ele>
        <time>2014-10-30T15:28:25Z</time>
      </trkpt>
      <trkpt lat="44.50875" lon="4.79383">
        <ele>154</ele>
        <time>2014-10-30T15:28:26Z</time>
      </trkpt>
      <trkpt lat="44.50878" lon="4.79374">
        <ele>154</ele>
        <time>2014-10-30T15:28:27Z</time>
      </trkpt>
      <trkpt lat="44.50882" lon="4.79366">
        <ele>154</ele>
        <time>2014-10-30T15:28:28Z</time>
      </trkpt>
      <trkpt lat="44.50905" lon="4.79306">
        <ele>154</ele>
        <time>2014-10-30T15:28:35Z</time>
      </trkpt>
      <trkpt lat="44.50906" lon="4.79296">
        <ele>154</ele>
        <time>2014-10-30T15:28:36Z</time>
      </trkpt>
      <trkpt lat="44.50906" lon="4.79286">
        <ele>154</ele>
        <time>2014-10-30T15:28:37Z</time>
      </trkpt>
      <trkpt lat="44.50905" lon="4.79276">
        <ele>154</ele>
        <time>2014-10-30T15:28:38Z</time>
      </trkpt>
      <trkpt lat="44.50903" lon="4.79267">
        <ele>154</ele>
        <time>2014-10-30T15:28:39Z</time>
      </trkpt>
      <trkpt lat="44.50897" lon="4.7923">
        <ele>154</ele>
        <time>2014-10-30T15:28:43Z</time>
      </trkpt>
      <trkpt lat="44.50897" lon="4.79223">
        <ele>154</ele>
        <time>2014-10-30T15:28:44Z</time>
      </trkpt>
      <trkpt lat="44.50893" lon="4.79206">
        <ele>154</ele>
        <time>2014-10-30T15:28:49Z</time>
      </trkpt>
      <trkpt lat="44.5089" lon="4.79203">
        <ele>154</ele>
        <time>2014-10-30T15:28:50Z</time>
      </trkpt>
      <trkpt lat="44.50886" lon="4.79202">
        <ele>154</ele>
        <time>2014-10-30T15:28:51Z</time>
      </trkpt>
      <trkpt lat="44.50882" lon="4.79202">
        <ele>154</ele>
        <time>2014-10-30T15:28:52Z</time>
      </trkpt>
      <trkpt lat="44.50877" lon="4.79202">
        <ele>154</ele>
        <time>2014-10-30T15:28:53Z</time>
      </trkpt>
      <trkpt lat="44.50863" lon="4.79199">
        <ele>154</ele>
        <time>2014-10-30T15:28:56Z</time>
      </trkpt>
      <trkpt lat="44.508" lon="4.79172">
        <ele>157</ele>
        <time>2014-10-30T15:29:09Z</time>
      </trkpt>
      <trkpt lat="44.50768" lon="4.79154">
        <ele>158</ele>
        <time>2014-10-30T15:29:16Z</time>
      </trkpt>
      <trkpt lat="44.50765" lon="4.79149">
        <ele>158</ele>
        <time>2014-10-30T15:29:17Z</time>
      </trkpt>
      <trkpt lat="44.50764" lon="4.79143">
        <ele>158</ele>
        <time>2014-10-30T15:29:18Z</time>
      </trkpt>
      <trkpt lat="44.50765" lon="4.79136">
        <ele>158</ele>
        <time>2014-10-30T15:29:19Z</time>
      </trkpt>
      <trkpt lat="44.50766" lon="4.79129">
        <ele>158</ele>
        <time>2014-10-30T15:29:20Z</time>
      </trkpt>
      <trkpt lat="44.50768" lon="4.79122">
        <ele>157</ele>
        <time>2014-10-30T15:29:21Z</time>
      </trkpt>
      <trkpt lat="44.50774" lon="4.79098">
        <ele>157</ele>
        <time>2014-10-30T15:29:24Z</time>
      </trkpt>
      <trkpt lat="44.50779" lon="4.79071">
        <ele>157</ele>
        <time>2014-10-30T15:29:27Z</time>
      </trkpt>
      <trkpt lat="44.5078" lon="4.79061">
        <ele>157</ele>
        <time>2014-10-30T15:29:28Z</time>
      </trkpt>
      <trkpt lat="44.50782" lon="4.7904">
        <ele>157</ele>
        <time>2014-10-30T15:29:30Z</time>
      </trkpt>
      <trkpt lat="44.50811" lon="4.78928">
        <ele>155</ele>
        <time>2014-10-30T15:29:41Z</time>
      </trkpt>
      <trkpt lat="44.50847" lon="4.78792">
        <ele>153</ele>
        <time>2014-10-30T15:29:54Z</time>
      </trkpt>
      <trkpt lat="44.50865" lon="4.78716">
        <ele>152</ele>
        <time>2014-10-30T15:30:02Z</time>
      </trkpt>
      <trkpt lat="44.50865" lon="4.78708">
        <ele>152</ele>
        <time>2014-10-30T15:30:03Z</time>
      </trkpt>
      <trkpt lat="44.50863" lon="4.78702">
        <ele>152</ele>
        <time>2014-10-30T15:30:04Z</time>
      </trkpt>
      <trkpt lat="44.50859" lon="4.78697">
        <ele>152</ele>
        <time>2014-10-30T15:30:05Z</time>
      </trkpt>
      <trkpt lat="44.50853" lon="4.78693">
        <ele>152</ele>
        <time>2014-10-30T15:30:06Z</time>
      </trkpt>
      <trkpt lat="44.50847" lon="4.78691">
        <ele>152</ele>
        <time>2014-10-30T15:30:07Z</time>
      </trkpt>
      <trkpt lat="44.50841" lon="4.78689">
        <ele>153</ele>
        <time>2014-10-30T15:30:08Z</time>
      </trkpt>
      <trkpt lat="44.50739" lon="4.7865">
        <ele>153</ele>
        <time>2014-10-30T15:30:23Z</time>
      </trkpt>
      <trkpt lat="44.50652" lon="4.78619">
        <ele>153</ele>
        <time>2014-10-30T15:30:35Z</time>
      </trkpt>
      <trkpt lat="44.50556" lon="4.78579">
        <ele>151</ele>
        <time>2014-10-30T15:30:49Z</time>
      </trkpt>
      <trkpt lat="44.50528" lon="4.7857">
        <ele>151</ele>
        <time>2014-10-30T15:30:53Z</time>
      </trkpt>
      <trkpt lat="44.50522" lon="4.7857">
        <ele>151</ele>
        <time>2014-10-30T15:30:54Z</time>
      </trkpt>
      <trkpt lat="44.50516" lon="4.78572">
        <ele>152</ele>
        <time>2014-10-30T15:30:55Z</time>
      </trkpt>
      <trkpt lat="44.50509" lon="4.78576">
        <ele>152</ele>
        <time>2014-10-30T15:30:56Z</time>
      </trkpt>
      <trkpt lat="44.50504" lon="4.78581">
        <ele>152</ele>
        <time>2014-10-30T15:30:57Z</time>
      </trkpt>
      <trkpt lat="44.50498" lon="4.78586">
        <ele>152</ele>
        <time>2014-10-30T15:30:58Z</time>
      </trkpt>
      <trkpt lat="44.50487" lon="4.78596">
        <ele>152</ele>
        <time>2014-10-30T15:31:00Z</time>
      </trkpt>
      <trkpt lat="44.50482" lon="4.78601">
        <ele>152</ele>
        <time>2014-10-30T15:31:01Z</time>
      </trkpt>
      <trkpt lat="44.50445" lon="4.7864">
        <ele>153</ele>
        <time>2014-10-30T15:31:08Z</time>
      </trkpt>
      <trkpt lat="44.50441" lon="4.78644">
        <ele>153</ele>
        <time>2014-10-30T15:31:09Z</time>
      </trkpt>
      <trkpt lat="44.50438" lon="4.78647">
        <ele>154</ele>
        <time>2014-10-30T15:31:10Z</time>
      </trkpt>
      <trkpt lat="44.50436" lon="4.78648">
        <ele>154</ele>
        <time>2014-10-30T15:31:11Z</time>
      </trkpt>
      <trkpt lat="44.50434" lon="4.78649">
        <ele>154</ele>
        <time>2014-10-30T15:31:12Z</time>
      </trkpt>
      <trkpt lat="44.50431" lon="4.7865">
        <ele>154</ele>
        <time>2014-10-30T15:31:14Z</time>
      </trkpt>
      <trkpt lat="44.5043" lon="4.78649">
        <ele>154</ele>
        <time>2014-10-30T15:31:15Z</time>
      </trkpt>
      <trkpt lat="44.50428" lon="4.78649">
        <ele>154</ele>
        <time>2014-10-30T15:31:16Z</time>
      </trkpt>
      <trkpt lat="44.50425" lon="4.7865">
        <ele>154</ele>
        <time>2014-10-30T15:31:17Z</time>
      </trkpt>
      <trkpt lat="44.50385" lon="4.78648">
        <ele>154</ele>
        <time>2014-10-30T15:31:29Z</time>
      </trkpt>
      <trkpt lat="44.50357" lon="4.7865">
        <ele>154</ele>
        <time>2014-10-30T15:31:38Z</time>
      </trkpt>
      <trkpt lat="44.50358" lon="4.78623">
        <ele>153</ele>
        <time>2014-10-30T15:31:44Z</time>
      </trkpt>
      <trkpt lat="44.5034" lon="4.78618">
        <ele>153</ele>
        <time>2014-10-30T15:31:50Z</time>
      </trkpt>
      <trkpt lat="44.50313" lon="4.78611">
        <ele>153</ele>
        <time>2014-10-30T15:32:00Z</time>
      </trkpt>
      <trkpt lat="44.50275" lon="4.78592">
        <ele>153</ele>
        <time>2014-10-30T15:32:11Z</time>
      </trkpt>
      <trkpt lat="44.50274" lon="4.78589">
        <ele>153</ele>
        <time>2014-10-30T15:32:24Z</time>
      </trkpt>
      <trkpt lat="44.50267" lon="4.78589">
        <ele>153</ele>
        <time>2014-10-30T15:32:28Z</time>
      </trkpt>
      <trkpt lat="44.50229" lon="4.78589">
        <ele>152</ele>
        <time>2014-10-30T15:32:39Z</time>
      </trkpt>
      <trkpt lat="44.50214" lon="4.78598">
        <ele>152</ele>
        <time>2014-10-30T15:32:43Z</time>
      </trkpt>
      <trkpt lat="44.50201" lon="4.78596">
        <ele>152</ele>
        <time>2014-10-30T15:32:47Z</time>
      </trkpt>
      <trkpt lat="44.50167" lon="4.78597">
        <ele>151</ele>
        <time>2014-10-30T15:32:54Z</time>
      </trkpt>
      <trkpt lat="44.50152" lon="4.78596">
        <ele>151</ele>
        <time>2014-10-30T15:32:57Z</time>
      </trkpt>
      <trkpt lat="44.50142" lon="4.78599">
        <ele>151</ele>
        <time>2014-10-30T15:32:59Z</time>
      </trkpt>
      <trkpt lat="44.50138" lon="4.78603">
        <ele>151</ele>
        <time>2014-10-30T15:33:00Z</time>
      </trkpt>
      <trkpt lat="44.50131" lon="4.78611">
        <ele>150</ele>
        <time>2014-10-30T15:33:02Z</time>
      </trkpt>
      <trkpt lat="44.5011" lon="4.78614">
        <ele>150</ele>
        <time>2014-10-30T15:33:06Z</time>
      </trkpt>
      <trkpt lat="44.50096" lon="4.7862">
        <ele>150</ele>
        <time>2014-10-30T15:33:09Z</time>
      </trkpt>
      <trkpt lat="44.50092" lon="4.78624">
        <ele>150</ele>
        <time>2014-10-30T15:33:10Z</time>
      </trkpt>
      <trkpt lat="44.50088" lon="4.7863">
        <ele>150</ele>
        <time>2014-10-30T15:33:11Z</time>
      </trkpt>
      <trkpt lat="44.50086" lon="4.78636">
        <ele>150</ele>
        <time>2014-10-30T15:33:12Z</time>
      </trkpt>
      <trkpt lat="44.50083" lon="4.78642">
        <ele>150</ele>
        <time>2014-10-30T15:33:13Z</time>
      </trkpt>
      <trkpt lat="44.5008" lon="4.78648">
        <ele>150</ele>
        <time>2014-10-30T15:33:14Z</time>
      </trkpt>
      <trkpt lat="44.50078" lon="4.78654">
        <ele>150</ele>
        <time>2014-10-30T15:33:15Z</time>
      </trkpt>
      <trkpt lat="44.50076" lon="4.7866">
        <ele>150</ele>
        <time>2014-10-30T15:33:16Z</time>
      </trkpt>
      <trkpt lat="44.50075" lon="4.78666">
        <ele>150</ele>
        <time>2014-10-30T15:33:17Z</time>
      </trkpt>
      <trkpt lat="44.50073" lon="4.78675">
        <ele>150</ele>
        <time>2014-10-30T15:33:27Z</time>
      </trkpt>
      <trkpt lat="44.50073" lon="4.78677">
        <ele>150</ele>
        <time>2014-10-30T15:33:32Z</time>
      </trkpt>
      <trkpt lat="44.50063" lon="4.78685">
        <ele>150</ele>
        <time>2014-10-30T15:33:39Z</time>
      </trkpt>
      <trkpt lat="44.49987" lon="4.78659">
        <ele>148</ele>
        <time>2014-10-30T15:33:53Z</time>
      </trkpt>
      <trkpt lat="44.49889" lon="4.78632">
        <ele>146</ele>
        <time>2014-10-30T15:34:08Z</time>
      </trkpt>
      <trkpt lat="44.49884" lon="4.78633">
        <ele>146</ele>
        <time>2014-10-30T15:34:09Z</time>
      </trkpt>
      <trkpt lat="44.4988" lon="4.78637">
        <ele>146</ele>
        <time>2014-10-30T15:34:10Z</time>
      </trkpt>
      <trkpt lat="44.49878" lon="4.78641">
        <ele>147</ele>
        <time>2014-10-30T15:34:11Z</time>
      </trkpt>
      <trkpt lat="44.49876" lon="4.78643">
        <ele>147</ele>
        <time>2014-10-30T15:34:12Z</time>
      </trkpt>
      <trkpt lat="44.49876" lon="4.78643">
        <ele>147</ele>
        <time>2014-10-30T15:34:23Z</time>
      </trkpt>
      <trkpt lat="44.49876" lon="4.78643">
        <ele>147</ele>
        <time>2014-10-30T15:34:39Z</time>
      </trkpt>
      <trkpt lat="44.49876" lon="4.78643">
        <ele>147</ele>
        <time>2014-10-30T15:34:40Z</time>
      </trkpt>
      <trkpt lat="44.49876" lon="4.78643">
        <ele>147</ele>
        <time>2014-10-30T15:34:41Z</time>
      </trkpt>
      <trkpt lat="44.49876" lon="4.78643">
        <ele>147</ele>
        <time>2014-10-30T15:34:42Z</time>
      </trkpt>
    </trkseg>
  </trk>
</gpx>